[[{"header":{"parameterUnit":"m.s-1","parameterCategory":1,"la1":31.0,"la2":29.5877,"lo1":-88.7671,"lo2":-86.6584,"dy":0.0162,"dx":0.0185,"nx":115,"ny":88,"refTime":"2023-10-02T06:00:00:Z","depth":0,"parameterNumber":2,"parameterNumberName":"U-component_of_WINDS"},"data":[0.0,0.0,0.0,0.0,0.0,0.0,0.0,0.0,0.0,0.0,0.0,0.0,0.0,0.0,0.0,0.0,0.0,0.0,0.0,0.0,0.0,0.0,0.0,0.0,0.0,0.0,0.0,0.0,0.0,0.0,0.0,0.0,0.0,0.0,0.0,0.0,0.0,0.0,0.0,0.0,0.0,0.0,0.0,0.0,0.0,0.0,0.0,0.0,0.0,0.0,0.0,0.0,0.0,0.0,0.0,0.0,0.0,0.0,0.0,0.0,0.0,0.0,0.0,0.0,0.0,0.0,0.0,0.0,0.0,0.0,0.0,0.0,0.0,0.0,0.0,0.0,0.0,0.0,0.0,0.0,0.0,0.0,0.0,0.0,0.0,0.0,0.0,0.0,0.0,0.0,0.0,0.0,0.0,0.0,0.0,0.0,0.0,0.0,0.0,0.0,0.0,0.0,0.0,0.0,0.0,0.0,0.0,0.0,0.0,0.0,0.0,0.0,0.0,0.0,0.0,0.0,0.0,0.0,0.0,0.0,0.0,0.0,0.0,0.0,0.0,0.0,0.0,0.0,0.0,0.0,0.0,0.0,0.0,0.0,0.0,0.0,0.0,0.0,0.0,0.0,0.0,0.0,0.0,0.0,0.0,0.0,0.0,0.0,0.0,0.0,0.0,0.0,0.0,0.0,0.0,0.0,0.0,0.0,0.0,0.0,0.0,0.0,0.0,0.0,0.0,0.0,0.0,0.0,0.0,0.0,0.0,0.0,0.0,0.0,0.0,0.0,0.0,0.0,0.0,0.0,0.0,0.0,0.0,0.0,0.0,0.0,0.0,0.0,0.0,0.0,0.0,0.0,0.0,0.0,0.0,0.0,0.0,0.0,0.0,0.0,0.0,0.0,0.0,0.0,0.0,0.0,0.0,0.0,0.0,0.0,0.0,0.0,0.0,0.0,0.0,0.0,0.0,0.0,0.0,0.0,0.0,0.0,0.0,0.0,0.0,0.0,0.0,0.0,0.0,0.0,0.0,0.0,0.0,0.0,0.0,0.0,0.0,0.0,0.0,0.0,0.0,0.0,0.0,0.0,0.0,0.0,0.0,0.0,0.0,0.0,0.0,0.0,0.0,0.0,0.0,0.0,0.0,0.0,0.0,0.0,0.0,0.0,0.0,0.0,0.0,0.0,0.0,0.0,0.0,0.0,0.0,0.0,0.0,0.0,0.0,0.0,0.0,0.0,0.0,0.0,0.0,0.0,0.0,0.0,0.0,0.0,0.0,0.0,0.0,0.0,0.0,0.0,0.0,0.0,0.0,0.0,0.0,0.0,0.0,0.0,0.0,0.0,0.0,0.0,0.0,0.0,0.0,0.0,0.0,0.0,0.0,0.0,0.0,0.0,0.0,0.0,0.0,0.0,0.0,0.0,0.0,0.0,0.0,0.0,0.0,0.0,0.0,0.0,0.0,0.0,0.0,0.0,0.0,0.0,0.0,0.0,0.0,0.0,0.0,0.0,0.0,0.0,0.0,0.0,0.0,0.0,0.0,0.0,0.0,0.0,0.0,0.0,0.0,0.0,0.0,0.0,0.0,0.0,0.0,0.0,0.0,0.0,0.0,0.0,0.0,0.0,0.0,0.0,0.0,0.0,0.0,0.0,0.0,0.0,0.0,0.0,0.0,0.0,0.0,0.0,0.0,0.0,0.0,0.0,0.0,0.0,0.0,0.0,0.0,0.0,0.0,0.0,0.0,0.0,0.0,0.0,0.0,0.0,0.0,0.0,0.0,0.0,0.0,0.0,0.0,0.0,0.0,0.0,0.0,0.0,0.0,0.0,0.0,0.0,0.0,0.0,0.0,0.0,0.0,0.0,0.0,0.0,0.0,0.0,0.0,0.0,0.0,0.0,0.0,0.0,0.0,0.0,0.0,0.0,0.0,0.0,0.0,0.0,0.0,0.0,0.0,0.0,0.0,0.0,0.0,0.0,0.0,0.0,0.0,0.0,0.0,0.0,0.0,0.0,0.0,0.0,0.0,0.0,0.0,0.0,0.0,0.0,0.0,0.0,0.0,0.0,0.0,0.0,0.0,0.0,0.0,0.0,0.0,0.0,0.0,0.0,0.0,0.0,0.0,0.0,0.0,0.0,0.0,0.0,0.0,0.0,0.0,0.0,0.0,0.0,0.0,0.0,0.0,0.0,0.0,0.0,0.0,0.0,0.0,0.0,0.0,0.0,0.0,0.0,0.0,0.0,0.0,0.0,0.0,0.0,0.0,0.0,0.0,0.0,0.0,0.0,0.0,0.0,0.0,0.0,0.0,0.0,0.0,0.0,0.0,0.0,0.0,0.0,0.0,0.0,0.0,0.0,0.0,0.0,0.0,0.0,0.0,0.0,0.0,0.0,0.0,0.0,0.0,0.0,0.0,0.0,0.0,0.0,0.0,0.0,0.0,0.0,0.0,0.0,0.0,0.0,0.0,0.0,0.0,0.0,0.0,0.0,0.0,0.0,0.0,0.0,0.0,0.0,0.0,0.0,0.0,0.0,0.0,0.0,0.0,0.0,0.0,0.0,0.0,0.0,0.0,0.0,0.0,0.0,0.0,0.0,0.0,0.0,0.0,0.0,0.0,0.0,0.0,0.0,0.0,0.0,0.0,0.0,0.0,0.0,0.0,0.0,0.0,0.0,0.0,0.0,0.0,0.0,0.0,0.0,0.0,0.0,0.0,0.0,0.0,0.0,0.0,0.0,0.0,0.0,0.0,0.0,0.0,0.0,0.0,0.0,0.0,0.0,0.0,0.0,0.0,0.0,0.0,0.0,0.0,0.0,0.0,0.0,0.0,0.0,0.0,0.0,0.0,0.0,0.0,0.0,0.0,0.0,0.0,0.0,0.0,0.0,0.0,0.0,0.0,0.0,0.0,0.0,0.0,0.0,0.0,0.0,0.0,0.0,0.0,0.0,0.0,0.0,0.0,0.0,0.0,0.0,0.0,0.0,0.0,0.0,0.0,0.0,0.0,0.0,0.0,0.0,0.0,0.0,0.0,0.0,0.0,0.0,0.0,0.0,0.0,0.0,0.0,0.0,0.0,0.0,0.0,0.0,0.0,0.0,0.0,0.0,0.0,0.0,0.0,0.0,0.0,0.0,0.0,0.0,0.0,0.0,0.0,0.0,0.0,0.0,0.0,0.0,0.0,0.0,0.0,0.0,0.0,0.0,0.0,0.0,0.0,0.0,0.0,0.0,0.0,0.0,0.0,0.0,0.0,0.0,0.0,0.0,0.0,0.0,0.0,0.0,0.0,0.0,0.0,0.0,0.0,0.0,0.0,0.0,0.0,0.0,0.0,0.0,0.0,0.0,0.0,0.0,0.0,0.0,0.0,0.0,0.0,0.0,0.0,0.0,0.0,0.0,0.0,0.0,0.0,0.0,0.0,0.0,0.0,0.0,0.0,0.0,0.0,0.0,0.0,0.0,0.0,0.0,0.0,0.0,0.0,0.0,0.0,0.0,0.0,0.0,0.0,0.0,0.0,0.0,0.0,0.0,0.0,0.0,0.0,0.0,0.0,0.0,0.0,0.0,0.0,0.0,0.0,0.0,0.0,0.0,0.0,0.0,0.0,0.0,0.0,0.0,0.0,0.0,0.0,0.0,0.0,0.0,0.0,0.0,0.0,0.0,0.0,0.0,0.0,0.0,0.0,0.0,0.0,0.0,0.0,0.0,0.0,0.0,0.0,0.0,0.0,0.0,0.0,0.0,0.0,0.0,0.0,0.0,0.0,0.0,0.0,0.0,0.0,0.0,0.0,0.0,0.0,0.0,0.0,0.0,0.0,0.0,0.0,0.0,0.0,0.0,0.0,0.0,0.0,0.0,0.0,0.0,0.0,0.0,0.0,0.0,0.0,0.0,0.0,0.0,0.0,0.0,0.0,0.0,0.0,0.0,0.0,0.0,0.0,0.0,0.0,0.0,0.0,0.0,0.0,0.0,0.0,0.0,0.0,0.0,0.0,0.0,0.0,0.0,0.0,0.0,0.0,0.0,0.0,0.0,0.0,0.0,0.0,0.0,0.0,0.0,0.0,0.0,0.0,0.0,0.0,0.0,0.0,0.0,0.0,0.0,0.0,0.0,0.0,0.0,0.0,0.0,0.0,0.0,0.0,0.0,0.0,0.0,0.0,0.0,0.0,0.0,0.0,0.0,0.0,0.0,0.0,0.0,0.0,0.0,0.0,0.0,0.0,0.0,0.0,0.0,0.0,0.0,0.0,0.0,0.0,0.0,0.0,0.0,1.3001,0.0,0.0,0.0,0.0,0.0,0.0,0.0,0.0,0.0,0.0,0.0,0.0,0.0,0.0,0.0,0.0,0.0,0.0,0.0,0.0,0.0,0.0,0.0,0.0,0.0,0.0,0.0,0.0,0.0,0.0,0.0,0.0,0.0,0.0,0.0,0.0,0.0,0.0,0.0,0.0,0.0,0.0,0.0,0.0,0.0,0.0,0.0,0.0,0.0,0.0,0.0,0.0,0.0,0.0,0.0,0.0,0.0,0.0,0.0,0.0,0.0,0.0,0.0,0.0,0.0,0.0,0.0,0.0,0.0,0.0,0.0,0.0,0.0,0.0,0.0,0.0,0.0,0.0,0.0,0.0,0.0,0.0,0.0,0.0,0.0,0.0,0.0,0.0,0.0,0.0,0.0,0.0,0.0,0.0,0.0,0.0,0.0,0.0,0.0,0.0,0.0,0.0,0.0,0.0,0.0,0.0,0.0,0.0,0.0,0.0,1.4645,1.4435,1.4191,1.3929,1.3693,0.0,0.0,0.0,0.0,0.0,0.0,0.0,0.0,0.0,0.0,0.0,0.0,0.0,0.0,0.0,0.0,0.0,0.0,0.0,0.0,0.0,0.0,0.0,0.0,0.0,0.0,0.0,0.0,0.0,0.0,0.0,0.0,0.0,0.0,0.0,0.0,0.0,0.0,0.0,0.0,0.0,0.0,0.0,0.0,0.0,0.0,0.0,0.0,0.0,0.0,0.0,0.0,0.0,0.0,0.0,0.0,0.0,0.0,0.0,0.0,0.0,0.0,0.0,0.0,0.0,0.0,0.0,0.0,0.0,0.0,0.0,0.0,0.0,0.0,0.0,0.0,0.0,0.0,0.0,0.0,0.0,0.0,0.0,0.0,0.0,0.0,0.0,0.0,0.0,0.0,0.0,0.0,0.0,0.0,0.0,0.0,0.0,0.0,0.0,0.0,0.0,0.0,0.0,0.0,0.0,0.0,0.0,0.0,0.0,0.0,0.0,0.0,1.5017,1.4628,1.4056,0.0,0.0,0.0,0.0,0.0,0.0,0.0,0.0,0.0,0.0,0.0,0.0,0.0,0.0,0.0,0.0,0.0,0.0,0.0,0.0,0.0,0.0,0.0,0.0,0.0,0.0,0.0,0.0,0.0,0.0,0.0,0.0,0.0,0.0,0.0,0.0,0.0,0.0,0.0,0.0,0.0,0.0,0.0,0.0,0.0,0.0,0.0,0.0,0.0,0.0,0.0,0.0,0.0,0.0,0.0,0.0,0.0,0.0,0.0,0.0,0.0,0.0,0.0,0.0,0.0,0.0,0.0,0.0,0.0,0.0,0.0,0.0,0.0,0.0,0.0,0.0,0.0,0.0,0.0,0.0,0.0,0.0,0.0,0.0,0.0,0.0,0.0,0.0,0.0,0.0,0.0,0.0,0.0,0.0,0.0,0.0,0.0,0.0,0.0,0.0,0.0,0.0,0.0,0.0,0.0,0.0,0.0,0.0,0.0,0.0,1.5455,1.5283,1.4979,0.0,1.3598,0.0,0.0,0.0,0.0,0.0,0.0,0.0,0.0,0.0,0.0,0.0,0.0,0.0,0.0,0.0,0.0,0.0,0.0,0.0,0.0,0.0,0.0,0.0,0.0,0.0,0.0,0.0,0.0,0.0,0.0,0.0,0.0,0.0,0.0,0.0,0.0,0.0,0.0,0.0,0.0,0.0,0.0,0.0,0.0,0.0,0.0,0.0,0.0,0.0,0.0,0.0,0.0,0.0,0.0,0.0,0.0,0.0,0.0,0.0,0.0,0.0,0.0,0.0,0.0,0.0,0.0,0.0,0.0,0.0,0.0,0.0,0.0,0.0,0.0,0.0,0.0,0.0,0.0,0.0,0.0,0.0,0.0,0.0,0.0,0.0,0.0,0.0,0.0,0.0,0.0,0.0,0.0,0.0,0.0,0.0,0.0,0.0,0.0,0.0,0.0,0.0,0.0,0.0,0.0,0.0,0.0,0.0,0.0,0.0,0.0,1.6455,1.6317,1.5826,1.51,0.0,0.0,0.0,0.0,0.0,0.0,0.0,0.0,0.0,0.0,0.0,0.0,0.0,0.0,0.0,0.0,0.0,0.0,0.0,0.0,0.0,0.0,0.0,0.0,0.0,0.0,0.0,0.0,0.0,0.0,0.0,0.0,0.0,0.0,0.0,0.0,0.0,0.0,0.0,0.0,0.0,0.0,0.0,0.0,0.0,0.0,0.0,0.0,0.0,0.0,0.0,0.0,0.0,0.0,0.0,0.0,0.0,0.0,0.0,0.0,0.0,0.0,0.0,0.0,0.0,0.0,0.0,0.0,0.0,0.0,0.0,0.0,0.0,0.0,0.0,0.0,0.0,0.0,0.0,0.0,0.0,0.0,0.0,0.0,0.0,0.0,0.0,0.0,0.0,0.0,0.0,0.0,0.0,0.0,0.0,0.0,0.0,0.0,0.0,0.0,0.0,0.0,0.0,0.0,0.0,0.0,0.0,0.0,0.0,0.0,1.7015,1.7104,1.6852,1.6334,1.5577,1.4522,0.0,0.0,0.0,0.0,0.0,0.0,0.0,0.0,0.0,0.0,0.0,0.0,0.0,0.0,0.0,0.0,0.0,0.0,0.0,0.0,0.0,0.0,0.0,0.0,0.0,0.0,0.0,0.0,0.0,0.0,0.0,0.0,0.0,0.0,0.0,0.0,0.0,0.0,0.0,0.0,0.0,0.0,0.0,0.0,0.0,0.0,0.0,0.0,0.0,0.0,0.0,0.0,0.0,0.0,0.0,0.0,0.0,0.0,0.0,0.0,0.0,0.0,0.0,0.0,0.0,0.0,0.0,0.0,0.0,0.0,0.0,0.0,0.0,0.0,0.0,0.0,0.0,0.0,0.0,0.0,0.0,0.0,0.0,0.0,0.0,0.0,0.0,0.0,0.0,0.0,0.0,0.0,0.0,0.0,0.0,0.0,0.0,0.0,0.0,0.0,0.0,0.0,0.0,0.0,0.0,0.0,0.0,0.0,1.7232,1.7231,1.7001,1.6566,1.6127,1.5451,0.0,0.0,0.0,0.0,0.0,0.0,0.0,0.0,0.0,0.0,0.0,0.0,0.0,0.0,0.0,0.0,0.0,0.0,0.0,0.0,0.0,0.0,0.0,0.0,0.0,0.0,0.0,0.0,0.0,0.0,0.0,0.0,0.0,0.0,0.0,0.0,0.0,0.0,0.0,0.0,0.0,0.0,0.0,0.0,0.0,0.0,0.0,0.0,0.0,0.0,0.0,0.0,0.0,0.0,0.0,0.0,0.0,0.0,0.0,0.0,0.0,0.0,0.0,0.0,0.0,0.0,0.0,0.0,0.0,0.0,0.0,0.0,0.0,0.0,0.0,0.0,0.0,0.0,0.0,0.0,0.0,0.0,0.0,0.0,0.0,0.0,0.0,0.0,0.0,0.0,0.0,0.0,0.0,0.0,0.0,0.0,0.0,0.0,0.0,0.0,0.0,0.0,0.0,0.0,0.0,0.0,0.0,0.0,0.0,1.763,1.7748,1.7701,1.7415,1.7045,1.6409,0.0,0.0,0.0,0.0,0.0,0.0,0.0,0.0,0.0,0.0,0.0,0.0,0.0,0.0,0.0,0.0,0.0,0.0,0.0,0.0,0.0,0.0,0.0,0.0,0.0,0.0,0.0,0.0,0.0,0.0,0.0,0.0,0.0,0.0,0.0,0.0,0.0,0.0,0.0,0.0,0.0,0.0,0.0,0.0,0.0,0.0,0.0,0.0,0.0,0.0,0.0,0.0,0.0,0.0,0.0,0.0,0.0,0.0,0.0,0.0,0.0,0.0,0.0,0.0,0.0,0.0,0.0,0.0,0.0,0.0,0.0,0.0,0.0,0.0,0.0,0.0,0.0,0.0,0.0,0.0,0.0,0.0,0.0,0.0,0.0,0.0,0.0,0.0,0.0,0.0,0.0,0.0,0.0,0.0,0.0,0.0,0.0,0.0,0.0,0.0,0.0,0.0,0.0,0.0,0.0,0.0,0.0,0.0,0.0,1.8633,0.0,1.8512,1.8511,1.7856,1.7099,0.0,0.0,0.0,0.0,0.0,0.0,0.0,0.0,0.0,0.0,0.0,0.0,0.0,0.0,0.0,0.0,0.0,0.0,0.0,0.0,0.0,0.0,0.0,0.0,0.0,0.0,0.0,0.0,0.0,0.0,0.0,0.0,0.0,0.0,0.0,0.0,0.0,0.0,0.0,0.0,0.0,0.0,0.0,0.0,0.0,0.0,0.0,0.0,0.0,0.0,0.0,0.0,0.0,0.0,0.0,0.0,0.0,0.0,0.0,0.0,0.0,0.0,0.0,0.0,0.0,0.0,0.0,0.0,0.0,0.0,0.0,0.0,0.0,0.0,0.0,0.0,0.0,0.0,0.0,0.0,0.0,0.0,0.0,0.0,0.0,0.0,0.0,0.0,0.0,0.0,0.0,0.0,0.0,0.0,0.0,0.0,0.0,0.0,0.0,0.0,0.0,0.0,0.0,0.0,0.0,0.0,0.0,0.0,1.9462,2.0297,1.9638,1.9395,1.9732,1.843,1.7404,0.0,0.0,0.0,0.0,0.0,0.0,0.0,0.0,0.0,0.0,0.0,0.0,0.0,0.0,0.0,0.0,0.0,0.0,0.0,0.0,0.0,0.0,0.0,0.0,0.0,0.0,0.0,0.0,0.0,0.0,0.0,0.0,0.0,0.0,0.0,0.0,0.0,0.0,0.0,0.0,0.0,0.0,0.0,0.0,0.0,0.0,0.0,0.0,0.0,0.0,0.0,0.0,0.0,0.0,0.0,0.0,0.0,0.0,0.0,0.0,0.0,0.0,0.0,0.0,0.0,0.0,0.0,0.0,0.0,0.0,0.0,0.0,0.0,0.0,0.0,0.0,0.0,0.0,0.0,0.0,0.0,0.0,0.0,0.0,0.0,0.0,0.0,0.0,0.0,0.0,0.0,0.0,0.0,0.0,0.0,0.0,0.0,0.0,0.0,0.0,0.0,0.0,0.0,0.0,0.0,0.0,0.0,0.0,0.0,2.0825,2.0554,2.0263,1.9854,1.8693,1.7864,0.0,0.0,0.0,0.0,0.0,0.0,0.0,0.0,0.0,0.0,0.0,0.0,0.0,0.0,0.0,0.0,0.0,0.0,0.0,0.0,0.0,0.0,0.0,0.0,0.0,0.0,0.0,0.0,0.0,0.0,0.0,0.0,0.0,0.0,0.0,0.0,0.0,0.0,0.0,0.0,0.0,0.0,0.0,0.0,0.0,0.0,0.0,0.0,0.0,0.0,0.0,0.0,0.0,0.0,0.0,0.0,0.0,0.0,0.0,0.0,0.0,0.0,0.0,0.0,0.0,0.0,0.0,0.0,0.0,0.0,0.0,0.0,0.0,0.0,0.0,0.0,0.0,0.0,0.0,0.0,0.0,0.0,0.0,0.0,0.0,0.0,0.0,0.0,0.0,0.0,0.0,0.0,0.0,0.0,0.0,0.0,0.0,0.0,0.0,0.0,0.0,0.0,0.0,0.0,0.0,0.0,0.0,0.0,0.0,2.1966,2.1472,2.1069,2.0719,1.9472,1.8563,1.8084,0.0,0.0,0.0,0.0,0.0,0.0,0.0,0.0,0.0,0.0,0.0,0.0,0.0,0.0,0.0,0.0,0.0,0.0,0.0,0.0,0.0,0.0,0.0,0.0,0.0,0.0,0.0,0.0,0.0,0.0,0.0,0.0,0.0,0.0,0.0,0.0,0.0,0.0,0.0,0.0,0.0,0.0,0.0,0.0,0.0,0.0,0.0,0.0,0.0,0.0,0.0,0.0,0.0,0.0,0.0,0.0,0.0,0.0,0.0,0.0,0.0,0.0,0.0,0.0,0.0,0.0,0.0,0.0,0.0,0.0,0.0,0.0,0.0,0.0,0.0,0.0,0.0,0.0,0.0,0.0,0.0,0.0,0.0,0.0,0.0,0.0,0.0,0.0,0.0,0.0,0.0,0.0,0.0,0.0,0.0,0.0,0.0,0.0,0.0,0.0,0.0,0.0,0.0,0.0,0.0,0.0,0.0,0.0,2.3486,2.232,2.1843,2.2021,2.0558,1.9436,0.0,0.0,0.0,0.0,0.0,0.0,0.0,0.0,0.0,0.0,0.0,0.0,0.0,0.0,0.0,0.0,0.0,0.0,0.0,0.0,0.0,0.0,0.0,0.0,0.0,0.0,0.0,0.0,0.0,0.0,0.0,0.0,0.0,0.0,0.0,0.0,0.0,0.0,0.0,0.0,0.0,0.0,0.0,0.0,0.0,0.0,0.0,0.0,0.0,0.0,0.0,0.0,0.0,0.0,0.0,0.0,0.0,0.0,0.0,0.0,0.0,0.0,0.0,0.0,0.0,0.0,0.0,0.0,0.0,0.0,0.0,0.0,0.0,0.0,0.0,0.0,0.0,0.0,0.0,0.0,0.0,0.0,0.0,0.0,0.0,0.0,0.0,0.0,0.0,0.0,0.0,0.0,0.0,0.0,0.0,0.0,0.0,0.0,0.0,0.0,0.0,0.0,0.0,0.0,0.0,0.0,0.0,0.0,0.0,2.3135,2.2588,2.2119,2.1728,2.0549,1.9706,0.0,0.0,0.0,0.0,0.0,0.0,0.0,0.0,0.0,0.0,0.0,0.0,0.0,0.0,0.0,0.0,0.0,0.0,0.0,0.0,0.0,0.0,0.0,0.0,0.0,0.0,0.0,0.0,0.0,0.0,0.0,0.0,0.0,0.0,0.0,0.0,0.0,0.0,0.0,0.0,0.0,0.0,0.0,0.0,0.0,0.0,0.0,0.0,0.0,0.0,0.0,0.0,0.0,0.0,0.0,0.0,0.0,0.0,0.0,0.0,0.0,0.0,0.0,0.0,0.0,0.0,0.0,0.0,0.0,0.0,0.0,0.0,0.0,0.0,0.0,0.0,0.0,0.0,0.0,0.0,0.0,0.0,0.0,0.0,0.0,0.0,0.0,0.0,0.0,0.0,0.0,0.0,0.0,0.0,0.0,0.0,0.0,0.0,0.0,0.0,0.0,0.0,0.0,0.0,0.0,0.0,0.0,0.0,2.381,2.2946,2.2394,2.1779,2.1114,2.0677,2.0241,0.0,0.0,0.0,0.0,0.0,0.0,0.0,0.0,0.0,0.0,0.0,0.0,0.0,0.0,0.0,0.0,0.0,0.0,0.0,0.0,0.0,0.0,0.0,0.0,0.0,0.0,0.0,0.0,0.0,0.0,0.0,0.0,0.0,0.0,0.0,0.0,0.0,0.0,0.0,0.0,0.0,0.0,0.0,0.0,0.0,0.0,0.0,0.0,0.0,0.0,0.0,0.0,0.0,0.0,0.0,0.0,0.0,0.0,0.0,0.0,0.0,0.0,0.0,0.0,0.0,0.0,0.0,0.0,0.0,0.0,0.0,0.0,0.0,0.0,0.0,0.0,0.0,0.0,0.0,0.0,0.0,0.0,0.0,0.0,0.0,0.0,0.0,0.0,0.0,0.0,0.0,0.0,0.0,0.0,0.0,0.0,0.0,0.0,0.0,0.0,0.0,0.0,0.0,0.0,0.0,0.0,0.0,0.0,2.3871,2.2831,2.1956,2.1185,2.0518,2.0824,2.078,0.0,0.0,0.0,0.0,0.0,0.0,0.0,0.0,0.0,0.0,0.0,0.0,0.0,0.0,0.0,0.0,0.0,0.0,0.0,0.0,0.0,0.0,0.0,0.0,0.0,0.0,0.0,0.0,0.0,0.0,0.0,0.0,0.0,0.0,0.0,0.0,0.0,0.0,0.0,0.0,0.0,0.0,0.0,0.0,0.0,0.0,0.0,0.0,0.0,0.0,0.0,0.0,0.0,0.0,0.0,0.0,0.0,0.0,0.0,0.0,0.0,0.0,0.0,0.0,0.0,0.0,0.0,0.0,0.0,0.0,0.0,0.0,0.0,0.0,0.0,0.0,0.0,0.0,0.0,0.0,0.0,0.0,0.0,0.0,0.0,0.0,0.0,0.0,0.0,0.0,0.0,0.0,0.0,0.0,0.0,0.0,0.0,0.0,0.0,0.0,0.0,0.0,0.0,0.0,0.0,0.0,0.0,0.0,2.3346,2.27,2.1475,2.0889,2.1096,2.0628,2.0242,0.0,0.0,0.0,0.0,0.0,0.0,0.0,0.0,0.0,0.0,0.0,0.0,0.0,0.0,0.0,0.0,0.0,0.0,0.0,0.0,0.0,0.0,0.0,0.0,0.0,0.0,0.0,0.0,0.0,0.0,0.0,0.0,0.0,0.0,0.0,0.0,0.0,0.0,0.0,0.0,0.0,0.0,0.0,0.0,0.0,0.0,0.0,0.0,1.7008,0.0,0.0,0.0,0.0,0.0,0.0,0.0,0.0,0.0,0.0,0.0,0.0,0.0,0.0,0.0,0.0,0.0,0.0,0.0,0.0,0.0,0.0,0.0,0.0,0.0,0.0,0.0,0.0,0.0,0.0,0.0,0.0,0.0,0.0,0.0,0.0,0.0,0.0,0.0,0.0,0.0,0.0,0.0,0.0,0.0,0.0,0.0,0.0,0.0,0.0,0.0,0.0,0.0,0.0,0.0,0.0,0.0,0.0,0.0,2.2708,2.193,2.0718,2.0169,2.0324,2.0188,2.0251,0.0,0.0,0.0,0.0,0.0,0.0,0.0,0.0,0.0,0.0,0.0,0.0,0.0,0.0,0.0,0.0,0.0,0.0,0.0,0.0,0.0,0.0,0.0,0.0,0.0,0.0,0.0,0.0,0.0,0.0,0.0,0.0,0.0,0.0,0.0,0.0,0.0,0.0,0.0,0.0,0.0,0.0,0.0,0.0,0.0,0.0,0.0,0.0,0.0,0.0,0.0,0.0,0.0,0.0,0.0,0.0,0.0,0.0,0.0,0.0,0.0,0.0,0.0,0.0,0.0,0.0,0.0,0.0,0.0,0.0,0.0,0.0,0.0,0.0,0.0,0.0,0.0,0.0,0.0,0.0,0.0,0.0,0.0,0.0,0.0,0.0,0.0,0.0,0.0,0.0,0.0,0.0,0.0,0.0,0.0,0.0,0.0,0.0,0.0,0.0,0.0,0.0,0.0,0.0,0.0,0.0,0.0,2.2747,2.2039,2.1044,2.0049,1.948,1.9368,1.9842,2.0531,2.1404,0.0,0.0,0.0,0.0,0.0,0.0,0.0,0.0,0.0,0.0,0.0,0.0,0.0,0.0,0.0,0.0,0.0,0.0,0.0,0.0,0.0,0.0,0.0,0.0,0.0,0.0,0.0,0.0,0.0,0.0,0.0,0.0,0.0,0.0,0.0,0.0,0.0,0.0,1.6468,1.843,0.0,0.0,0.0,0.0,0.0,0.0,0.0,0.0,1.9603,0.0,0.0,0.0,0.0,0.0,0.0,0.0,0.0,0.0,0.0,0.0,0.0,0.0,0.0,0.0,0.0,0.0,0.0,0.0,0.0,0.0,0.0,0.0,0.0,0.0,0.0,0.0,0.0,0.0,0.0,0.0,0.0,0.0,0.0,0.0,0.0,0.0,0.0,0.0,0.0,0.0,0.0,0.0,0.0,0.0,0.0,0.0,0.0,0.0,0.0,0.0,0.0,0.0,0.0,0.0,0.0,2.2665,2.1961,2.1329,2.0796,2.0106,1.9836,2.0046,2.0427,2.0873,2.1251,0.0,0.0,0.0,0.0,0.0,0.0,0.0,0.0,0.0,0.0,0.0,0.0,0.0,0.0,0.0,0.0,0.0,0.0,0.0,0.0,0.0,0.0,0.0,0.0,0.0,0.0,0.0,0.0,0.0,0.0,0.0,0.0,0.0,0.0,0.0,0.0,0.0,0.0,0.0,1.92,2.0382,0.0,0.0,0.0,0.0,0.0,0.0,0.0,0.0,2.0374,0.0,0.0,0.0,0.0,0.0,0.0,0.0,0.0,0.0,0.0,0.0,0.0,0.0,0.0,0.0,0.0,0.0,0.0,0.0,0.0,0.0,0.0,0.0,0.0,0.0,0.0,0.0,0.0,0.0,0.0,0.0,0.0,0.0,0.0,0.0,0.0,0.0,0.0,0.0,0.0,0.0,0.0,0.0,0.0,0.0,0.0,0.0,0.0,0.0,0.0,0.0,0.0,0.0,0.0,0.0,2.2255,2.1351,2.065,2.019,1.9572,1.9446,1.9914,2.0581,2.0808,0.0,0.0,0.0,0.0,0.0,0.0,0.0,0.0,0.0,0.0,0.0,0.0,0.0,0.0,0.0,0.0,0.0,0.0,0.0,0.0,0.0,0.0,0.0,0.0,0.0,0.0,0.0,0.0,0.0,0.0,0.0,0.0,0.0,0.0,0.0,0.0,0.0,0.0,0.0,0.0,2.0605,2.15,2.1499,0.0,0.0,0.0,0.0,0.0,0.0,2.1963,2.1607,0.0,0.0,0.0,0.0,0.0,0.0,0.0,0.0,0.0,0.0,0.0,0.0,0.0,0.0,0.0,0.0,0.0,0.0,0.0,0.0,0.0,0.0,0.0,0.0,0.0,0.0,0.0,0.0,0.0,0.0,0.0,0.0,0.0,0.0,0.0,0.0,0.0,0.0,0.0,0.0,0.0,0.0,0.0,0.0,0.0,0.0,0.0,0.0,0.0,0.0,0.0,0.0,0.0,0.0,0.0,2.1905,2.0941,2.0164,1.969,1.921,1.9291,2.0036,2.08,2.0842,0.0,0.0,0.0,0.0,0.0,0.0,0.0,0.0,0.0,0.0,0.0,0.0,0.0,0.0,0.0,0.0,0.0,0.0,0.0,0.0,0.0,0.0,0.0,0.0,0.0,0.0,0.0,0.0,0.0,0.0,0.0,0.0,0.0,0.0,0.0,0.0,0.0,0.0,0.0,0.0,0.0,2.2554,2.3051,2.3103,0.0,0.0,0.0,0.0,2.2843,2.3008,0.0,0.0,0.0,0.0,0.0,0.0,0.0,0.0,0.0,0.0,0.0,0.0,0.0,0.0,0.0,0.0,0.0,0.0,0.0,0.0,0.0,0.0,0.0,0.0,0.0,0.0,0.0,0.0,0.0,0.0,0.0,0.0,0.0,0.0,0.0,0.0,0.0,0.0,0.0,0.0,0.0,0.0,0.0,0.0,0.0,0.0,0.0,0.0,0.0,0.0,0.0,0.0,0.0,0.0,0.0,0.0,2.1474,2.0776,2.0162,1.9736,1.9751,2.0216,2.1189,2.1413,2.1424,0.0,0.0,0.0,0.0,0.0,0.0,0.0,0.0,0.0,0.0,0.0,0.0,0.0,0.0,0.0,0.0,0.0,0.0,0.0,0.0,0.0,0.0,0.0,0.0,0.0,0.0,0.0,0.0,0.0,0.0,0.0,0.0,0.0,0.0,0.0,0.0,0.0,0.0,0.0,0.0,0.0,2.2806,2.3736,2.344,2.3263,0.0,0.0,2.3047,2.3205,2.3295,0.0,0.0,0.0,0.0,0.0,0.0,0.0,0.0,0.0,0.0,0.0,0.0,0.0,0.0,0.0,0.0,0.0,0.0,0.0,0.0,0.0,0.0,0.0,0.0,0.0,0.0,0.0,0.0,0.0,0.0,0.0,0.0,0.0,0.0,0.0,0.0,0.0,0.0,0.0,0.0,0.0,0.0,0.0,0.0,0.0,0.0,0.0,0.0,0.0,0.0,0.0,0.0,0.0,0.0,0.0,2.171,2.1792,2.1117,2.0495,2.0041,2.0492,2.1213,2.2005,2.2408,2.2337,0.0,0.0,0.0,0.0,0.0,0.0,0.0,0.0,0.0,0.0,0.0,0.0,0.0,0.0,0.0,0.0,0.0,0.0,0.0,0.0,0.0,0.0,0.0,0.0,0.0,0.0,0.0,0.0,0.0,0.0,0.0,0.0,0.0,0.0,0.0,0.0,0.0,0.0,0.0,0.0,0.0,0.0,2.3956,2.4071,0.0,0.0,0.0,2.4291,2.4342,0.0,0.0,0.0,0.0,0.0,0.0,0.0,0.0,0.0,0.0,0.0,0.0,0.0,0.0,0.0,0.0,0.0,0.0,0.0,0.0,0.0,0.0,0.0,0.0,0.0,0.0,0.0,0.0,0.0,0.0,0.0,0.0,0.0,0.0,0.0,0.0,0.0,0.0,0.0,0.0,0.0,0.0,0.0,0.0,0.0,0.0,0.0,0.0,0.0,0.0,0.0,0.0,0.0,0.0,0.0,0.0,0.0,2.221,2.1515,2.0912,2.0502,2.1176,2.194,2.2702,2.3232,0.0,0.0,0.0,0.0,0.0,0.0,0.0,0.0,0.0,0.0,0.0,0.0,0.0,0.0,0.0,0.0,0.0,0.0,0.0,0.0,0.0,0.0,0.0,0.0,0.0,0.0,0.0,1.8349,0.0,0.0,0.0,0.0,0.0,0.0,0.0,0.0,0.0,0.0,0.0,0.0,0.0,0.0,2.3589,2.4533,2.4867,2.4964,0.0,0.0,2.5172,2.4906,2.4779,2.4265,0.0,0.0,0.0,0.0,0.0,0.0,0.0,0.0,0.0,0.0,0.0,0.0,0.0,0.0,0.0,0.0,0.0,0.0,0.0,0.0,0.0,0.0,0.0,0.0,0.0,0.0,0.0,0.0,0.0,0.0,0.0,0.0,0.0,0.0,0.0,0.0,0.0,0.0,0.0,0.0,0.0,0.0,0.0,0.0,0.0,0.0,0.0,0.0,0.0,0.0,0.0,0.0,0.0,0.0,0.0,2.2613,2.1805,2.1326,2.1256,2.1523,2.2239,2.3383,2.3663,2.3669,0.0,0.0,0.0,0.0,0.0,0.0,0.0,0.0,0.0,0.0,0.0,0.0,0.0,0.0,0.0,0.0,0.0,0.0,0.0,0.0,0.0,0.0,0.0,0.0,0.0,0.0,0.0,0.0,0.0,0.0,0.0,0.0,0.0,0.0,0.0,0.0,0.0,0.0,0.0,0.0,0.0,2.4272,2.5919,2.5977,2.5812,0.0,0.0,2.5067,2.4148,2.4247,2.3963,2.2574,0.0,0.0,0.0,0.0,0.0,0.0,0.0,0.0,0.0,0.0,0.0,0.0,0.0,0.0,0.0,0.0,0.0,0.0,0.0,0.0,0.0,0.0,0.0,0.0,0.0,0.0,0.0,0.0,0.0,0.0,0.0,0.0,0.0,0.0,0.0,0.0,0.0,0.0,0.0,0.0,0.0,0.0,0.0,0.0,0.0,0.0,0.0,0.0,0.0,0.0,0.0,0.0,0.0,2.2155,2.2872,2.2235,2.1906,2.2023,2.2758,2.3582,2.4639,2.5107,2.5114,0.0,0.0,0.0,0.0,0.0,0.0,0.0,0.0,0.0,0.0,0.0,0.0,0.0,0.0,0.0,0.0,0.0,0.0,0.0,0.0,0.0,0.0,0.0,0.0,0.0,0.0,0.0,0.0,2.186,2.1935,2.1841,0.0,0.0,0.0,0.0,0.0,0.0,0.0,0.0,0.0,0.0,2.4693,2.5843,2.5876,0.0,0.0,2.5691,2.5427,2.4874,2.4578,2.4128,2.3156,2.2322,0.0,0.0,0.0,0.0,0.0,0.0,0.0,0.0,0.0,0.0,0.0,0.0,0.0,0.0,0.0,0.0,0.0,0.0,0.0,0.0,0.0,0.0,0.0,0.0,0.0,0.0,0.0,0.0,0.0,0.0,0.0,0.0,0.0,0.0,0.0,0.0,0.0,0.0,0.0,0.0,0.0,0.0,0.0,0.0,0.0,0.0,0.0,0.0,0.0,0.0,0.0,0.0,2.2563,2.319,2.2876,2.2713,2.2662,2.3707,2.465,2.5502,2.6198,2.6361,0.0,0.0,0.0,0.0,0.0,0.0,0.0,0.0,0.0,0.0,0.0,0.0,0.0,0.0,0.0,0.0,0.0,0.0,0.0,0.0,0.0,0.0,0.0,0.0,0.0,0.0,0.0,0.0,2.2757,2.2688,2.2068,0.0,0.0,0.0,0.0,0.0,0.0,0.0,0.0,0.0,0.0,2.4877,2.5655,2.5783,2.5805,2.5644,2.5714,2.5602,2.5032,2.4603,2.4075,2.3362,0.0,0.0,0.0,0.0,0.0,0.0,0.0,0.0,0.0,0.0,0.0,0.0,0.0,0.0,0.0,0.0,0.0,0.0,0.0,0.0,0.0,0.0,0.0,0.0,0.0,0.0,0.0,0.0,0.0,0.0,1.3811,0.0,0.0,0.0,0.0,0.0,0.0,0.0,0.0,0.0,0.0,0.0,0.0,0.0,0.0,0.0,0.0,0.0,0.0,0.0,0.0,0.0,0.0,2.3268,2.3692,2.3831,2.3707,2.3277,2.4233,2.5158,2.5845,2.6741,2.7268,2.7363,0.0,0.0,0.0,0.0,0.0,0.0,0.0,0.0,0.0,0.0,0.0,0.0,0.0,0.0,0.0,0.0,0.0,0.0,0.0,0.0,0.0,0.0,0.0,0.0,0.0,0.0,2.3248,2.3343,2.3155,0.0,0.0,0.0,0.0,0.0,0.0,0.0,0.0,0.0,0.0,2.4298,2.4799,2.5581,2.5902,2.5908,2.5554,2.5615,2.5333,2.4398,2.4071,2.3691,0.0,0.0,0.0,0.0,0.0,0.0,0.0,0.0,0.0,0.0,0.0,0.0,0.0,0.0,0.0,0.0,0.0,0.0,0.0,0.0,0.0,0.0,0.0,0.0,0.0,0.0,0.0,1.8085,1.7856,0.0,0.0,0.0,0.0,0.0,0.0,0.0,0.0,0.0,0.0,0.0,2.3992,2.4252,0.0,0.0,0.0,0.0,0.0,0.0,0.0,0.0,0.0,0.0,0.0,0.0,2.3508,2.4133,2.4074,2.4232,2.4747,2.5589,2.6453,2.7321,2.8499,2.9105,2.9048,0.0,0.0,0.0,0.0,0.0,0.0,0.0,0.0,0.0,0.0,0.0,0.0,0.0,0.0,0.0,0.0,0.0,0.0,0.0,0.0,0.0,0.0,0.0,0.0,0.0,2.372,0.0,0.0,0.0,0.0,0.0,0.0,0.0,0.0,0.0,0.0,0.0,2.3822,2.4265,2.4532,2.4821,2.513,2.5391,2.5448,0.0,0.0,0.0,0.0,0.0,0.0,0.0,0.0,0.0,0.0,0.0,0.0,0.0,0.0,2.4445,2.3381,2.3678,2.42,2.4535,0.0,0.0,0.0,0.0,0.0,0.0,0.0,0.0,0.0,0.0,0.0,0.0,0.0,0.0,2.1155,0.0,2.0666,0.0,0.0,0.0,0.0,0.0,0.0,0.0,0.0,2.4502,2.5193,2.5858,2.5884,2.5579,0.0,2.4897,2.4061,0.0,0.0,0.0,0.0,0.0,0.0,0.0,0.0,2.3892,2.45,2.4599,2.4927,2.5513,2.6624,2.7628,2.8482,2.9689,3.0385,3.0475,2.9036,2.806,0.0,0.0,0.0,0.0,0.0,0.0,0.0,0.0,0.0,0.0,0.0,0.0,0.0,0.0,0.0,0.0,0.0,0.0,0.0,0.0,0.0,0.0,0.0,2.4602,0.0,0.0,0.0,0.0,0.0,0.0,0.0,0.0,0.0,2.3407,2.3889,2.4322,2.4585,2.4557,2.4559,2.4637,0.0,0.0,0.0,0.0,0.0,0.0,0.0,2.4593,2.4784,2.5292,2.595,2.6773,2.6904,2.6893,2.7034,0.0,0.0,2.5428,2.565,2.6109,2.6136,2.615,2.6106,2.6144,2.5573,2.5045,0.0,0.0,0.0,0.0,0.0,0.0,0.0,0.0,2.4521,2.4497,0.0,2.387,0.0,0.0,0.0,0.0,0.0,2.3244,0.0,0.0,2.6068,2.6578,2.6884,2.6953,2.6744,2.6197,2.6156,2.5616,2.4643,2.3386,0.0,0.0,0.0,0.0,0.0,0.0,2.4506,2.4842,2.5546,2.5808,2.5679,2.7306,2.8607,2.9309,3.0215,3.1037,3.1527,3.0308,2.9369,2.8907,2.7672,0.0,0.0,0.0,0.0,0.0,0.0,0.0,0.0,0.0,0.0,0.0,0.0,0.0,0.0,0.0,0.0,0.0,0.0,0.0,0.0,2.6009,0.0,0.0,0.0,0.0,0.0,0.0,0.0,0.0,0.0,0.0,2.3893,2.446,2.4888,2.4825,0.0,0.0,0.0,0.0,2.414,2.4492,2.4384,2.452,2.5218,2.511,2.5133,2.5599,0.0,0.0,2.8766,2.8964,2.8876,2.8734,2.8626,2.8275,2.6907,2.7135,2.7415,2.6962,2.6803,2.6669,2.6305,2.599,2.5694,2.7914,0.0,0.0,0.0,0.0,2.5833,2.6544,2.7254,2.7547,2.7597,2.747,2.6516,0.0,0.0,0.0,0.0,0.0,0.0,2.5399,2.5917,2.6069,2.6429,2.696,2.6508,2.6114,2.5694,2.5682,2.5471,2.4988,2.4457,2.4138,2.3987,0.0,0.0,0.0,0.0,2.5243,2.5457,2.5937,2.6496,2.7152,2.8392,2.9784,3.1302,3.1326,3.1649,3.2292,3.1445,3.1012,3.0973,2.9248,0.0,0.0,0.0,0.0,0.0,0.0,0.0,0.0,0.0,0.0,0.0,0.0,0.0,0.0,0.0,0.0,0.0,0.0,0.0,2.6779,2.6637,2.6121,0.0,0.0,0.0,0.0,0.0,0.0,0.0,0.0,0.0,2.4188,2.4585,2.5022,0.0,0.0,2.4482,2.4717,2.4829,2.4968,2.524,0.0,0.0,0.0,2.6054,2.6285,2.6723,2.7801,2.8715,2.9073,2.8944,2.8823,2.9026,2.877,2.8328,2.7892,2.7961,2.8047,2.7785,2.7849,2.7735,2.7185,2.6533,2.6074,3.0546,2.8659,2.7994,2.7719,2.7734,2.8344,2.8986,2.9563,2.9689,2.9628,2.9404,2.8544,2.7686,2.6747,2.5618,0.0,0.0,0.0,2.5898,2.6249,2.5878,2.5993,2.6447,2.5815,2.5319,2.5034,2.5023,2.4943,2.4727,2.4557,2.4508,2.4675,0.0,0.0,2.5399,2.5273,2.5444,2.599,2.6317,2.6989,2.8104,2.9598,3.0981,3.2143,3.2123,3.2367,3.2947,3.2222,3.196,3.2292,3.0721,2.9361,0.0,0.0,0.0,0.0,0.0,0.0,0.0,0.0,0.0,0.0,0.0,2.1454,2.2735,0.0,0.0,0.0,2.574,2.6469,2.7346,2.6852,0.0,0.0,0.0,0.0,0.0,0.0,0.0,2.343,2.3915,2.4317,2.4526,2.464,2.4878,2.5206,2.4904,2.4722,2.4981,0.0,2.5242,2.5624,2.5793,2.5974,2.6226,2.6428,2.682,2.7472,2.8213,2.878,2.9055,2.8745,2.8479,2.8525,2.8174,2.7736,2.7516,2.7538,2.7561,2.7479,2.7674,2.7609,2.6747,2.6264,2.6012,3.2368,3.1554,3.0566,2.9864,2.9551,3.0302,3.0809,3.1067,3.1028,3.0755,3.0373,2.9883,2.8798,2.7209,2.6254,0.0,2.6173,2.5778,2.5943,2.6407,2.5638,2.5442,2.5679,2.5032,2.4561,2.4301,2.4311,2.4311,2.4243,2.402,2.4375,2.5147,2.4776,2.5026,2.5801,2.5224,2.5448,2.655,2.6721,2.7401,2.8728,3.0813,3.2038,3.2189,3.2549,3.3012,3.3421,3.2609,3.24,3.2864,3.1973,3.0827,2.9602,0.0,0.0,0.0,0.0,0.0,0.0,0.0,0.0,0.0,0.0,0.0,0.0,0.0,0.0,0.0,2.6648,0.0,2.7637,2.6568,0.0,0.0,0.0,2.3285,2.2608,2.2661,2.283,2.3158,0.0,0.0,2.4602,2.4529,2.4426,2.4586,2.4654,2.4766,2.5003,2.5071,2.5184,2.576,2.5636,2.5707,2.6306,2.6457,2.6748,2.757,2.789,2.8164,2.8556,2.8197,2.7809,2.7668,2.7115,2.663,2.6302,2.6288,2.6229,2.6115,2.6632,2.6705,2.5608,2.5325,2.5318,3.2913,3.2708,3.2432,3.183,3.101,3.1505,3.1769,3.1786,3.1404,3.1149,3.095,2.9536,2.809,2.6766,2.6734,2.6511,2.6142,2.6003,2.5983,2.5939,2.5323,2.5087,2.5151,2.4794,2.4571,2.453,2.452,2.452,2.446,2.4246,2.4484,2.5072,2.4635,2.5127,2.658,2.6529,2.6689,2.7169,2.7437,2.8248,2.9721,3.1296,3.2167,3.2221,3.2333,3.2498,3.2774,3.2574,3.251,3.2523,3.1803,3.1006,3.0122,2.8378,0.0,0.0,0.0,0.0,0.0,0.0,0.0,0.0,0.0,2.3627,2.4874,0.0,2.5979,0.0,2.637,2.6436,2.6555,2.5547,0.0,0.0,2.3301,2.2771,2.219,2.246,2.2529,2.2197,2.2543,2.2833,2.3072,2.3168,2.3353,2.3739,2.4231,2.4783,2.5345,2.5291,2.541,2.6032,2.5939,2.5994,2.6239,2.6414,2.6485,2.6716,2.7074,2.7432,2.7594,2.6935,2.6494,2.6764,2.5786,2.5075,2.5271,2.5029,2.4594,2.4225,2.5026,2.5717,2.4963,2.4308,2.3943,3.2352,3.2099,3.2112,3.1759,3.1254,3.1931,3.2192,3.2147,3.1376,3.0922,3.0576,2.8688,2.7302,2.6363,2.6202,2.5917,2.5614,2.55,2.5362,2.5208,2.4721,2.4496,2.4446,2.4067,2.3866,2.3916,2.3866,2.3915,2.3993,2.3997,2.4347,2.4988,2.4885,2.5582,2.704,2.6698,2.6848,2.7579,2.838,2.9205,2.9937,3.1562,3.2235,3.183,3.2291,3.2425,3.2289,3.2182,3.2104,3.2125,3.1504,3.0875,3.0304,2.8993,2.7571,0.0,0.0,0.0,0.0,0.0,0.0,0.0,0.0,0.0,0.0,0.0,2.6042,2.5978,2.5752,2.5477,2.5188,2.4341,2.3451,2.2505,2.2081,2.1595,2.0845,2.1226,2.1348,2.0969,2.1294,2.1572,2.159,2.1783,2.2029,2.2249,2.2641,2.3356,2.4497,2.4669,2.481,2.5306,2.5285,2.5245,2.5428,2.5386,2.5397,2.5458,2.5651,2.5876,2.5823,2.5229,2.4832,2.5044,2.4249,2.3542,2.3945,2.3812,2.3456,2.3377,2.3708,2.4091,2.4008,2.3619,2.3475,3.1443,3.0986,3.0949,3.0899,3.096,3.1579,3.1912,3.1947,3.0803,2.999,2.9306,2.7474,2.642,2.5858,2.524,2.495,2.4941,2.4688,2.4578,2.4558,2.4004,2.3752,2.3752,2.3288,2.3086,2.3086,2.3086,2.314,2.3361,2.3688,2.4254,2.4941,2.5345,2.6175,2.729,2.6584,2.6715,2.7887,2.9363,2.9953,2.9772,3.1616,3.2207,3.1455,3.2146,3.238,3.1876,3.1556,3.1446,3.1545,3.1003,3.0547,3.0215,2.9505,2.8478,0.0,2.6241,0.0,0.0,0.0,0.0,0.0,0.0,0.0,0.0,2.538,2.5579,2.5082,2.4772,2.4306,2.3589,2.3017,2.2142,2.0989,2.0639,2.0161,1.933,1.9501,1.9683,1.9474,1.9781,2.0022,2.0046,2.0249,2.0398,2.0422,2.0444,2.1041,2.261,2.3171,2.348,2.3827,2.3827,2.3681,2.3672,2.3771,2.379,2.3808,2.3845,2.3855,2.3864,2.333,2.2965,2.3046,2.2599,2.2274,2.2492,2.2535,2.2487,2.2523,2.2375,2.2417,2.2933,2.313,2.3254,3.1713,3.161,3.1096,3.089,3.0815,2.9915,2.9915,3.0399,2.8892,2.7513,2.6287,2.584,2.5393,2.4895,2.4747,2.4769,2.4891,2.4425,2.433,2.4498,2.3881,2.3615,2.3615,2.3521,2.347,2.346,2.347,2.3489,2.3526,2.4106,2.4671,2.5225,2.5572,2.6296,2.7348,0.0,0.0,0.0,2.9554,3.0055,3.0086,3.1535,3.2064,3.1617,3.1613,0.0,3.1059,3.0814,3.0605,3.0359,3.0258,0.0,0.0,0.0,0.0,0.0,0.0,0.0,0.0,0.0,0.0,0.0,2.3632,2.4107,2.4278,2.4109,2.3911,2.3731,2.299,2.2268,2.166,2.1131,2.0574,1.9993,1.9593,1.9174,1.8646,1.8529,1.834,1.785,1.786,1.7944,1.8117,1.8173,1.829,1.8451,1.8431,1.8589,1.8984,2.0588,2.167,2.1891,2.1791,2.1595,2.1453,2.1561,2.1699,2.1715,2.1841,2.1916,2.1862,2.1434,2.1281,2.1708,2.1103,2.0598,2.1215,2.0983,2.068,2.0686,2.0604,2.0974,2.231,2.2363,2.2274,3.0361,0.0,2.9787,2.9526,0.0,2.8231,2.8058,2.8365,2.7379,2.6017,2.4545,2.4494,2.424,2.3731,2.3985,2.4256,2.4419,2.4161,2.4115,2.4221,2.4056,2.389,2.3795,2.3899,2.3946,2.3937,2.3842,2.3951,2.4211,2.4675,2.5192,2.5707,2.6106,2.6855,2.7795,2.8295,2.8672,2.8825,2.9779,3.0169,2.9972,3.1427,3.1966,3.1536,0.0,0.0,0.0,0.0,0.0,0.0,0.0,0.0,0.0,0.0,0.0,2.7522,2.6721,2.5767,2.4687,2.395,2.3307,2.2857,2.2477,2.2708,2.3654,2.3236,2.2681,2.2074,2.1685,2.1038,2.0072,1.9792,1.9354,1.8546,1.8225,1.7889,1.7316,1.7102,1.6951,1.6798,1.6702,1.6734,1.6853,1.6866,1.6892,1.7018,1.7031,1.7031,1.7141,1.8452,1.9536,1.9665,1.9613,1.9468,1.9401,1.9431,1.9545,1.9506,1.962,1.9673,1.968,1.9464,1.9378,1.973,1.9364,1.9233,1.9516,1.9601,1.9616,1.9672,1.9901,2.0384,2.126,2.1485,2.1661,2.877,2.8243,2.8138,2.7821,2.7282,2.6711,2.6396,2.6281,0.0,0.0,0.0,2.3748,2.3488,2.3072,2.354,2.3842,2.4065,2.4065,2.4065,2.4075,2.4236,2.4226,2.4075,2.4236,2.4374,2.4408,2.4218,2.4437,2.494,2.5303,2.5707,2.6272,2.6785,2.7505,2.8406,2.906,2.9318,2.9212,3.0028,3.0296,2.9921,3.1454,3.2039,3.1494,3.2089,3.1915,3.0942,3.0854,3.0544,2.9947,2.9526,2.9405,2.9456,2.8635,2.7906,2.7175,2.6201,2.5179,2.4282,2.3119,2.2306,2.2126,2.097,2.1036,2.274,2.2183,2.1338,2.0393,2.0466,2.0006,1.8589,1.8676,1.8282,1.7023,1.6896,1.6625,1.5936,1.576,1.5796,1.5794,1.5745,1.5757,1.5757,1.5757,1.5757,1.5757,1.5757,1.5757,1.5923,1.6858,1.7681,1.7694,1.7736,1.7632,1.7584,1.7626,1.759,1.7626,1.7632,1.7597,1.7637,1.7662,1.7692,1.7891,1.7865,1.7944,1.7977,1.8352,1.873,1.8844,1.9398,1.9892,2.0064,2.0579,2.1026,2.8145,2.7607,2.7068,2.6799,2.6681,2.5898,2.5229,2.4683,2.5101,2.486,2.4226,2.4173,2.4173,2.4067,2.4173,2.4245,2.4273,2.4273,2.422,0.0,2.4302,2.4302,2.4273,2.4302,2.4524,2.4938,2.4796,2.495,2.5495,2.582,2.6272,2.6785,2.74,2.8195,2.9127,2.9346,2.9507,2.9682,3.0228,3.0474,3.0397,3.186,3.2445,3.2095,3.2491,3.2339,3.1439,3.1124,3.0524,2.9599,2.9513,2.9127,2.8297,2.7693,2.6772,2.5469,2.4843,2.402,2.2862,2.2176,2.1424,2.0522,1.9641,1.974,2.1115,2.0108,1.9285,1.9146,1.9019,1.8492,1.7388,1.7473,1.721,1.6292,1.6099,1.5839,1.5377,1.5284,1.5124,1.4714,1.4542,1.4603,1.4664,1.4664,1.467,1.4603,1.477,1.4597,1.482,1.5591,1.6256,1.6366,1.6366,1.6366,1.6373,1.6366,1.6366,1.6366,1.6366,1.6404,1.6497,1.6503,1.6596,1.6813,1.6862,1.6931,1.703,1.7131,1.7453,1.7845,1.816,1.8476,1.8939,1.9517,2.0117,2.7118,2.6566,2.625,2.5979,2.5643,2.5275,2.4963,2.4652,2.4867,2.4573,2.3843,2.3834,2.3834,2.3834,2.4152,2.4378,2.4491,2.4438,2.4491,2.4447,2.4551,2.4703,2.4885,2.5034,2.5415,2.5878,2.5722,2.5877,2.6385,2.6452,2.6911,2.772,2.8231,2.8609,2.8943,2.9237,2.9584,3.002,3.0392,3.0464,3.0362,3.1343,3.1813,3.1645,3.1808,3.1613,3.1038,3.0468,2.9868,2.9265,2.8507,2.7885,2.7266,2.6395,2.543,2.4366,2.3399,2.2529,2.1717,2.0832,1.9873,1.8768,1.8196,1.8047,1.8432,1.8314,1.8144,1.7919,1.7661,1.7183,1.646,1.648,1.6288,1.5594,1.5561,1.541,1.496,1.4809,1.4697,1.4479,1.4423,1.4423,1.4423,1.4472,1.4483,1.4434,1.4369,1.4325,1.432,1.4764,1.5153,1.5097,1.5153,1.5097,1.5147,1.5097,1.5097,1.5153,1.5153,1.5176,1.5245,1.5331,1.5481,1.5596,1.5716,1.5773,1.5906,1.6198,1.6489,1.678,1.7413,1.7884,1.8291,1.8755,1.9632,2.6088,2.5599,2.5599,2.5327,2.4936,2.4882,2.4882,2.4882,2.4882,2.4486,2.3777,2.3706,2.3759,2.3812,2.424,2.4548,2.4636,2.4655,2.4655,2.4665,2.4816,2.5014,2.5267,2.5521,2.5925,2.6491,2.6397,2.6661,2.7174,2.7081,2.7503,2.8468,2.8818,2.886,2.8677,2.9056,2.9452,2.9846,3.0059,3.0129,3.0157,3.0789,3.1073,3.095,3.0886,3.069,3.0267,2.9428,2.8795,2.8331,2.7249,2.6369,2.578,2.4768,2.3793,2.2855,2.1809,2.0873,2.0215,1.9339,1.8306,1.7158,1.6895,1.6602,1.6269,1.669,1.6989,1.6762,1.6559,1.6206,1.5803,1.5784,1.5581,1.5126,1.519,1.509,1.4655,1.4542,1.4542,1.4542,1.4542,1.4542,1.4559,1.4619,1.4619,1.451,1.4396,1.4325,1.432,1.432,1.432,1.432,1.432,1.4375,1.432,1.4375,1.4375,1.432,1.4375,1.4453,1.4446,1.4588,1.4714,1.4831,1.4921,1.5094,1.5079,1.5382,1.579,1.6075,1.6774,1.7413,1.782,1.8407,1.9226,2.5535,2.5045,2.4991,2.4936,2.4882,2.4882,2.4882,2.4882,2.4882,2.4873,2.4698,2.4771,2.4752,2.4771,2.4816,2.4825,2.4844,2.4854,2.4844,2.4844,2.4873,2.4927,2.5017,2.5036,2.5544,2.6491,2.6408,2.6905,2.7856,2.7737,2.7924,2.8468,2.8766,2.8848,2.8843,2.87,2.87,2.8739,2.8767,2.9135,2.9867,3.0576,3.072,3.023,3.0119,2.9873,2.9163,2.8342,2.7324,2.6398,2.5684,2.4724,2.34,2.2678,2.1652,2.0233,1.9787,1.9068,1.791,1.7606,1.7069,1.596,1.5811,1.5728,1.5626,1.5391,1.5403,1.5681,1.5851,1.5657,1.5194,1.5269,1.5229,1.4747,1.475,1.4714,1.4714,1.4714,1.4657,1.4714,1.4651,1.4657,1.4651,1.4719,1.4624,1.4515,1.4396,1.432,1.432,1.432,1.433,1.433,1.4325,1.4325,1.4325,1.432,1.432,1.432,1.432,1.4352,1.4428,1.4494,1.4575,1.4711,1.4883,1.4901,1.4977,1.5096,1.5312,1.5703,1.6168,1.6535,1.7529,1.8265,1.9011,2.51,2.4882,2.4882,2.4882,2.4882,2.4882,2.4882,2.4882,2.4882,2.4882,2.4882,2.4882,2.4882,2.4882,2.4882,2.4882,2.4882,2.4882,2.4882,2.4882,2.4882,2.5109,2.5436,2.5426,2.6023,2.7053,2.7058,2.7404,2.8092,2.8166,2.7952,2.7706,2.7799,2.7744,2.7593,2.7548,2.766,2.792,2.766,2.7502,2.7619,2.85,2.8596,2.7818,2.727,2.673,2.6057,2.4939,2.4117,2.3686,2.3004,2.2156,2.1198,2.0839,2.0239,1.9274,1.8594,1.7664,1.6442,1.634,1.5962,1.5206,1.5222,1.5106,1.4724,1.4618,1.4663,1.4795,1.4878,1.4851,1.4647,1.4792,1.4786,1.4583,1.4668,1.4782,1.4839,1.4834,1.4817,1.4752,1.4795,1.4806,1.4746,1.473,1.4624,1.4515,1.4401,1.4325,1.432,1.432,1.4352,1.4412,1.4428,1.4396,1.4347,1.432,1.4325,1.4325,1.432,1.4352,1.4385,1.4466,1.4548,1.4646,1.4763,1.476,1.4798,1.4825,1.4951,1.5341,1.5791,1.6242,1.7308,1.7747,1.8211,2.4929,2.4891,2.4882,2.4882,2.4882,2.4882,2.4882,2.4882,2.4882,2.4882,2.4882,2.4882,2.4882,2.4882,2.4882,2.4882,2.4882,2.4882,2.4882,2.4882,2.4882,2.5109,2.5544,2.5544,2.6078,2.6891,2.6999,2.7324,2.7875,2.7929,2.7574,2.6988,2.6755,2.6515,2.6309,2.6142,2.6101,2.6259,2.5943,2.5404,2.4932,2.5567,2.582,2.5282,2.4461,2.3807,2.3334,2.2126,2.1439,2.1388,2.07,2.0055,1.949,1.9355,1.9083,1.8548,1.7742,1.6796,1.5796,1.5585,1.5258,1.4773,1.4744,1.4629,1.4255,1.4215,1.4314,1.4314,1.432,1.432,1.433,1.4461,1.4542,1.4564,1.4765,1.4907,1.4907,1.4885,1.4877,1.4801,1.4817,1.485,1.479,1.4757,1.464,1.4564,1.4423,1.432,1.432,1.4325,1.4352,1.4439,1.445,1.4428,1.4379,1.4379,1.4363,1.4325,1.432,1.432,1.432,1.4407,1.4483,1.4548,1.4591,1.4651,1.4711,1.4763,1.4741,1.4943,1.532,1.5985,1.689,1.7243,1.7641,2.5071,2.4901,2.4882,2.4882,2.4882,2.4882,2.4882,2.4882,2.4882,2.4882,2.4882,2.4882,2.4882,2.4882,2.4882,2.4882,2.4882,2.4882,2.4882,2.4882,2.4882,2.4936,2.4936,2.4936,2.5272,2.5979,2.6033,2.625,2.6684,2.6684,2.6684,2.6546,2.5752,2.5429,2.5273,2.4648,2.4055,2.3711,2.3551,2.2992,2.2032,2.1953,2.2468,2.3106,2.2344,2.177,2.1574,2.0578,1.9982,1.999,1.9494,1.8928,1.8445,1.8352,1.8114,1.7602,1.7138,1.6595,1.6041,1.5494,1.4946,1.4459,1.4398,1.4364,1.4298,1.4309,1.432,1.432,1.432,1.432,1.4341,1.4504,1.4629,1.4714,1.4863,1.4983,1.4952,1.489,1.4915,1.4866,1.479,1.4711,1.4803,1.4744,1.4662,1.4591,1.4455,1.432,1.432,1.432,1.4336,1.4347,1.4363,1.4369,1.4461,1.4439,1.4401,1.4363,1.432,1.432,1.432,1.4341,1.4401,1.445,1.4483,1.4542,1.4635,1.4719,1.4651,1.4844,1.5134,1.5793,1.6288,1.6972,1.7412,2.5165,2.5071,2.4939,2.4882,2.4882,2.4882,2.4882,2.4882,2.4882,2.4882,2.4882,2.4882,2.4882,2.4882,2.4882,2.4882,2.4882,2.4882,2.4882,2.4882,2.4882,2.4882,2.4882,2.4882,2.5208,2.5707,2.5762,2.587,2.5979,2.5317,2.4936,2.4764,2.3937,2.3403,2.3285,2.2744,2.2275,2.2058,2.1732,2.1298,2.0855,2.0155,1.9828,1.9813,1.9993,1.9823,1.9509,1.8703,1.8334,1.828,1.8119,1.7904,1.7749,1.7453,1.6913,1.6163,1.5906,1.5543,1.503,1.4758,1.4542,1.432,1.432,1.432,1.432,1.432,1.432,1.432,1.432,1.432,1.4347,1.4472,1.4564,1.4586,1.4706,1.4814,1.4798,1.4765,1.4711,1.4646,1.4586,1.4591,1.4619,1.4591,1.4537,1.4455,1.4374,1.433,1.432,1.432,1.4341,1.4417,1.4439,1.445,1.4483,1.4423,1.4369,1.4347,1.432,1.4314,1.4314,1.4309,1.4296,1.4352,1.4379,1.4407,1.4488,1.4542,1.4542,1.4555,1.4842,1.5202,1.5577,1.6235,1.6839,2.5407,2.5251,2.4995,2.4882,2.4882,2.4882,2.4882,2.4882,2.4882,2.4773,2.4664,2.461,2.4501,2.4337,2.4337,2.4337,2.4392,2.4719,2.4773,2.461,2.461,2.4501,2.4337,2.4337,2.4501,2.4828,2.4719,2.4664,2.4555,2.3628,2.3191,2.3082,2.2206,2.1713,2.1603,2.111,2.0725,2.0505,2.0128,1.979,1.9357,1.8585,1.7867,1.7502,1.7875,1.7989,1.7609,1.7181,1.7079,1.7242,1.7296,1.7296,1.7249,1.7007,1.6438,1.5634,1.5308,1.5036,1.4653,1.4431,1.432,1.432,1.432,1.432,1.432,1.432,1.432,1.432,1.432,1.432,1.4336,1.4401,1.4461,1.4504,1.4608,1.473,1.473,1.464,1.4564,1.4488,1.4494,1.4504,1.4504,1.451,1.4472,1.4385,1.4352,1.4325,1.432,1.4325,1.4341,1.4423,1.4428,1.4423,1.4428,1.4374,1.4347,1.433,1.432,1.4314,1.4221,1.4215,1.4215,1.4265,1.4276,1.4287,1.433,1.4396,1.4385,1.4341,1.448,1.4809,1.5149,1.5559,1.6138,2.5815,2.5457,2.5052,2.4882,2.4882,2.4882,2.4882,2.4828,2.4828,2.4501,2.4065,2.401,2.3737,2.3292,2.3292,2.3182,2.3401,2.4228,2.4392,2.401,2.401,2.3674,2.3182,2.3191,2.3128,2.3128,2.259,2.2371,2.2371,2.1823,2.1494,2.1329,2.0835,2.0505,2.0505,1.9908,1.9302,1.8861,1.8757,1.8198,1.7154,1.7092,1.6816,1.62,1.6237,1.6225,1.612,1.6126,1.6446,1.6956,1.7011,1.6982,1.695,1.6852,1.6643,1.5923,1.548,1.5197,1.5086,1.4597,1.432,1.432,1.432,1.432,1.432,1.432,1.432,1.432,1.432,1.432,1.432,1.433,1.4374,1.4483,1.457,1.4681,1.4624,1.4564,1.4461,1.4374,1.4417,1.4494,1.4499,1.4483,1.4461,1.4439,1.4385,1.432,1.432,1.432,1.4325,1.433,1.4352,1.4369,1.4347,1.4325,1.4325,1.432,1.4314,1.4248,1.4161,1.4134,1.4139,1.4139,1.4188,1.426,1.4309,1.4363,1.4358,1.4325,1.4397,1.4458,1.4831,1.5202,1.5535,2.553,2.5269,2.5005,2.4882,2.4882,2.4882,2.4664,2.4283,2.4283,2.3956,2.3464,2.341,2.3237,2.3137,2.3128,2.3073,2.3128,2.3128,2.3191,2.33,2.3346,2.3027,2.259,2.2535,2.2316,2.1869,2.1329,2.1055,2.0945,2.045,2.0175,2.0065,1.9577,1.9302,1.9247,1.8695,1.8143,1.7597,1.7535,1.7148,1.6428,1.6373,1.6089,1.5535,1.548,1.5313,1.4931,1.5652,1.6373,1.6926,1.6988,1.6816,1.6422,1.5979,1.548,1.4925,1.4703,1.4597,1.4597,1.4431,1.432,1.432,1.432,1.432,1.432,1.4314,1.4314,1.4314,1.432,1.432,1.432,1.432,1.4341,1.4374,1.4407,1.4445,1.445,1.4407,1.4363,1.4336,1.4352,1.4374,1.4379,1.4379,1.439,1.439,1.4347,1.4325,1.432,1.432,1.432,1.432,1.432,1.432,1.432,1.432,1.432,1.432,1.432,1.4221,1.4134,1.408,1.408,1.4102,1.415,1.4199,1.4303,1.432,1.432,1.432,1.433,1.4442,1.4597,1.4875,1.5202,2.5538,2.5184,2.4976,2.4882,2.4882,2.4664,2.4337,2.401,2.3737,2.3355,2.2918,2.28,2.2526,2.2206,2.2152,2.1987,2.1823,2.1439,2.1494,2.1814,2.2097,2.1814,2.1384,2.1274,2.111,2.067,2.012,1.9845,1.9798,1.9239,1.8971,1.8861,1.8585,1.8419,1.8364,1.8088,1.7701,1.7369,1.7148,1.6705,1.62,1.5868,1.548,1.498,1.5091,1.4958,1.4647,1.552,1.6182,1.6629,1.696,1.683,1.6071,1.5691,1.513,1.4431,1.4292,1.432,1.432,1.432,1.432,1.432,1.432,1.4298,1.4215,1.4199,1.4238,1.4195,1.4227,1.4194,1.4254,1.4298,1.4314,1.4325,1.433,1.432,1.432,1.432,1.4325,1.4325,1.4325,1.432,1.432,1.432,1.432,1.432,1.432,1.432,1.432,1.432,1.432,1.432,1.432,1.432,1.432,1.432,1.432,1.432,1.432,1.4199,1.4112,1.4091,1.408,1.4112,1.4156,1.4276,1.432,1.432,1.432,1.432,1.432,1.4375,1.4486,1.4597,1.4814,2.5634,2.5101,2.4858,2.4719,2.4674,2.4192,2.3828,2.371,2.3244,2.2658,2.221,2.2071,2.1559,2.0717,2.0701,2.0481,1.978,1.981,1.9818,1.9976,2.0189,2.0181,1.9805,1.968,1.957,1.9467,1.8971,1.875,1.875,1.8309,1.7915,1.8026,1.8033,1.7915,1.7977,1.7915,1.7867,1.7646,1.7203,1.6588,1.596,1.5401,1.4946,1.4448,1.4874,1.5104,1.5133,1.5639,1.5966,1.6094,1.692,1.6874,1.5995,1.5937,1.5325,1.419,1.4238,1.4265,1.4287,1.426,1.4265,1.426,1.4254,1.4254,1.4091,1.4124,1.4108,1.4048,1.4102,1.4102,1.4134,1.426,1.4314,1.432,1.432,1.432,1.432,1.432,1.432,1.432,1.432,1.432,1.432,1.432,1.432,1.432,1.432,1.432,1.432,1.432,1.432,1.432,1.432,1.432,1.432,1.432,1.432,1.432,1.4314,1.4199,1.4123,1.4096,1.408,1.4118,1.4172,1.4292,1.432,1.432,1.432,1.432,1.432,1.432,1.4375,1.4431,1.4542,2.4559,2.4247,2.381,2.3565,2.3591,2.3506,2.3016,2.2323,2.2218,2.1638,2.0879,2.0711,2.0584,2.0214,2.0199,2.0102,1.9792,1.9463,1.9317,1.9261,1.893,1.895,1.8848,1.853,1.8412,1.8357,1.8253,1.8143,1.8088,1.7977,1.7915,1.7915,1.7915,1.7915,1.7915,1.7915,1.7646,1.7203,1.665,1.6041,1.5356,1.4734,1.4519,1.4713,1.4822,1.5131,1.541,1.5919,1.6242,1.6331,1.6608,1.6487,1.5692,1.5385,1.4871,1.4244,1.4091,1.4113,1.4119,1.4119,1.4113,1.4053,1.4135,1.4097,1.401,1.4004,1.4031,1.4064,1.4074,1.4118,1.4194,1.4298,1.432,1.432,1.432,1.432,1.432,1.432,1.432,1.432,1.432,1.432,1.432,1.432,1.432,1.432,1.432,1.432,1.432,1.432,1.432,1.432,1.432,1.432,1.432,1.432,1.432,1.432,1.4303,1.4215,1.415,1.4102,1.4091,1.4091,1.4243,1.4314,1.432,1.432,1.432,1.432,1.432,1.432,1.432,1.4375,1.4431,2.3727,2.3628,2.3237,2.2973,2.2771,2.2685,2.2096,2.1351,2.1166,2.0794,2.0173,2.0117,1.9948,1.9722,1.9722,1.9509,1.9233,1.8895,1.8678,1.8622,1.8328,1.8273,1.835,1.8074,1.7915,1.7915,1.7915,1.7915,1.7915,1.7915,1.7915,1.7915,1.7915,1.7915,1.7915,1.7915,1.7756,1.7301,1.6544,1.5796,1.5346,1.4523,1.4358,1.473,1.5038,1.5458,1.6191,1.6224,1.6192,1.6103,1.6213,1.6065,1.5218,1.4943,1.4528,1.4003,1.3982,1.4015,1.4009,1.4009,1.4009,1.4015,1.4009,1.3982,1.3966,1.3977,1.4048,1.3972,1.402,1.4107,1.4177,1.4287,1.4314,1.432,1.432,1.432,1.432,1.432,1.432,1.432,1.432,1.432,1.432,1.432,1.432,1.432,1.432,1.432,1.432,1.432,1.432,1.432,1.432,1.432,1.432,1.432,1.432,1.432,1.4314,1.4221,1.4194,1.4195,1.4205,1.4222,1.4287,1.432,1.432,1.432,1.432,1.432,1.432,1.432,1.432,1.432,1.4375,2.3018,2.2918,2.2854,2.2535,2.1957,2.1571,2.1056,2.0538,2.0219,1.9962,1.9864,1.9906,1.9496,1.9107,1.9107,1.8754,1.8187,1.8278,1.8189,1.8127,1.7975,1.8031,1.8162,1.8032,1.7922,1.7908,1.7908,1.7826,1.7806,1.7868,1.7806,1.7772,1.784,1.7874,1.7812,1.7881,1.7895,1.7579,1.6675,1.6088,1.5748,1.4959,1.4679,1.5069,1.5601,1.62,1.6637,1.6472,1.5887,1.5342,1.5942,1.5577,1.461,1.4683,1.4389,1.3958,1.3836,1.3944,1.396,1.3939,1.3955,1.3944,1.3949,1.3944,1.383,1.3874,1.3917,1.3917,1.4026,1.408,1.4195,1.4321,1.4475,1.4542,1.4486,1.4542,1.4486,1.4375,1.432,1.432,1.432,1.432,1.4375,1.4375,1.4431,1.4931,1.4764,1.4597,1.4542,1.4431,1.4375,1.432,1.432,1.432,1.432,1.432,1.432,1.432,1.432,1.4303,1.4303,1.4282,1.4298,1.432,1.432,1.432,1.432,1.432,1.432,1.432,1.432,1.432,1.432,1.432,1.432,2.2198,2.1705,2.1274,2.0725,2.0261,2.0241,2.0001,1.9494,1.9417,1.922,1.8893,1.8766,1.8654,1.8491,1.8541,1.8351,1.8247,1.824,1.8247,1.8219,1.8091,1.8057,1.8106,1.7963,1.7915,1.7888,1.7745,1.7697,1.7622,1.7602,1.7521,1.7534,1.7582,1.7582,1.7636,1.7724,1.7697,1.7526,1.6946,1.649,1.6176,1.5564,1.5277,1.573,1.6353,1.6756,1.6822,1.6413,1.5868,1.5506,1.5366,1.5115,1.4528,1.4404,1.4214,1.3837,1.3673,1.3689,1.3684,1.37,1.3684,1.3705,1.3727,1.3711,1.3792,1.3819,1.3917,1.401,1.4058,1.4239,1.442,1.4736,1.4925,1.5091,1.5369,1.5591,1.5535,1.4875,1.4486,1.4375,1.4431,1.4486,1.4925,1.498,1.5147,1.548,1.5369,1.5036,1.4869,1.4653,1.4597,1.4597,1.4486,1.4486,1.432,1.432,1.432,1.432,1.432,1.432,1.432,1.432,1.432,1.432,1.432,1.432,1.432,1.432,1.432,1.432,1.4325,1.4336,1.4341,1.4336,1.4541,2.111,2.0505,2.0183,1.9735,1.9276,1.9415,1.914,1.8776,1.874,1.8646,1.8466,1.8348,1.8321,1.8321,1.8314,1.8287,1.8262,1.8412,1.8615,1.876,1.8723,1.8557,1.8211,1.8101,1.8005,1.7779,1.7561,1.7494,1.746,1.7412,1.7433,1.7433,1.748,1.7589,1.7602,1.7711,1.7758,1.7608,1.7057,1.6636,1.6406,1.5767,1.5639,1.615,1.6663,1.6978,1.6926,1.6131,1.5651,1.523,1.4815,1.4393,1.4135,1.403,1.3871,1.3713,1.3607,1.3607,1.3607,1.3607,1.3613,1.3607,1.3651,1.3716,1.3809,1.3874,1.4162,1.4447,1.4624,1.4746,1.5086,1.5375,1.5591,1.5646,1.5868,1.6089,1.5979,1.5541,1.5153,1.5153,1.5208,1.5313,1.5535,1.5591,1.5702,1.5923,1.5874,1.5591,1.5646,1.543,1.5091,1.498,1.4869,1.4703,1.4431,1.432,1.432,1.432,1.432,1.432,1.432,1.432,1.432,1.432,1.432,1.432,1.432,1.432,1.432,1.432,1.433,1.4352,1.4385,1.4412,1.4758,2.0018,1.9467,1.9467,1.9136,1.8661,1.8774,1.8573,1.8174,1.8199,1.824,1.8274,1.8267,1.8199,1.8233,1.8339,1.832,1.8469,1.8627,1.9009,1.9136,1.9169,1.894,1.8575,1.8424,1.8262,1.7826,1.7507,1.7392,1.7378,1.7358,1.7297,1.7365,1.7494,1.7534,1.7561,1.7751,1.7792,1.7697,1.7174,1.6813,1.6681,1.6054,1.5992,1.6295,1.6715,1.6978,1.6768,1.6026,1.5283,1.523,1.4182,1.3718,1.3629,1.3607,1.3607,1.3607,1.3607,1.3607,1.3607,1.3607,1.3607,1.3629,1.3716,1.3916,1.4041,1.4222,1.4606,1.5009,1.5299,1.5462,1.6034,1.6206,1.6206,1.6256,1.6317,1.6366,1.6366,1.6373,1.6317,1.5979,1.5818,1.5868,1.6096,1.6262,1.6311,1.6311,1.6262,1.6262,1.6256,1.6089,1.5702,1.5369,1.5202,1.4758,1.4431,1.432,1.432,1.432,1.432,1.432,1.432,1.432,1.432,1.432,1.432,1.432,1.432,1.432,1.432,1.432,1.4336,1.4358,1.4417,1.4494,1.4914,1.9412,1.8868,1.8868,1.853,1.8088,1.8053,1.8128,1.8057,1.7968,1.8016,1.8097,1.8051,1.7955,1.8128,1.8448,1.8798,1.909,1.9275,1.928,1.9315,1.9293,1.914,1.8974,1.8824,1.8749,1.8429,1.7875,1.7389,1.7255,1.7121,1.7114,1.71,1.7236,1.7358,1.7494,1.7602,1.7724,1.7717,1.7365,1.7163,1.6989,1.6776,1.661,1.6768,1.6926,1.6978,1.6768,1.5973,1.5283,1.5178,1.4182,1.3815,1.3812,1.3768,1.3682,1.3635,1.364,1.3651,1.3645,1.3624,1.3667,1.3727,1.3851,1.423,1.4625,1.483,1.518,1.5691,1.5954,1.6034,1.6089,1.6594,1.6816,1.6926,1.7203,1.7473,1.7473,1.7424,1.7086,1.6533,1.6311,1.6317,1.665,1.6871,1.6982,1.6975,1.6926,1.6871,1.6871,1.6539,1.6145,1.5812,1.548,1.4925,1.4375,1.432,1.432,1.432,1.432,1.432,1.432,1.432,1.432,1.432,1.432,1.432,1.432,1.432,1.432,1.432,1.4341,1.4363,1.4445,1.4526,1.4868,1.8928,1.8582,1.8574,1.8415,1.8127,1.812,1.7943,1.7724,1.767,1.7717,1.7806,1.7792,1.7964,1.8295,1.853,1.9104,1.9619,1.9715,1.9762,1.9799,1.9867,1.96,1.9349,1.9235,1.8986,1.8715,1.8181,1.7773,1.7495,1.7184,1.7031,1.7039,1.7195,1.7351,1.746,1.7656,1.7731,1.7711,1.7541,1.7385,1.7283,1.71,1.6992,1.6978,1.6978,1.6978,1.6821,1.6236,1.5763,1.5552,1.4973,1.4621,1.4526,1.4335,1.4047,1.3877,1.3835,1.3781,1.384,1.384,1.3932,1.4299,1.4355,1.477,1.5268,1.5564,1.5906,1.6403,1.692,1.7031,1.7086,1.7314,1.7424,1.7535,1.7756,1.786,1.7915,1.7915,1.7473,1.6975,1.7086,1.7197,1.7314,1.7535,1.759,1.7646,1.759,1.748,1.7424,1.7148,1.6699,1.6145,1.5757,1.5036,1.4486,1.432,1.432,1.432,1.432,1.432,1.432,1.432,1.432,1.432,1.432,1.432,1.432,1.432,1.432,1.432,1.433,1.4369,1.4466,1.4626,1.4952,1.8641,1.8636,1.8636,1.8557,1.8449,1.8496,1.8234,1.7796,1.781,1.79,1.7963,1.8039,1.8396,1.8818,1.9086,1.9491,2.031,2.0183,2.0231,2.0369,2.049,2.0207,1.9909,1.9736,1.9633,1.9408,1.8903,1.8469,1.778,1.7398,1.7136,1.7092,1.7249,1.7399,1.7467,1.7656,1.7792,1.7772,1.7575,1.7419,1.7283,1.7114,1.6978,1.6978,1.6978,1.6978,1.6926,1.64,1.6078,1.5933,1.5589,1.534,1.5402,1.5123,1.4715,1.4433,1.4205,1.4015,1.4004,1.4161,1.4372,1.4699,1.5063,1.5505,1.6004,1.6408,1.6699,1.7148,1.7473,1.7749,1.7694,1.786,1.7867,1.786,1.786,1.7915,1.7915,1.7915,1.7915,1.7749,1.7915,1.786,1.7756,1.7756,1.7805,1.7805,1.7756,1.7756,1.7694,1.7749,1.7307,1.6588,1.5923,1.5147,1.4647,1.432,1.432,1.432,1.432,1.432,1.432,1.432,1.432,1.432,1.432,1.432,1.432,1.432,1.432,1.432,1.432,1.4374,1.4472,1.4615,1.4873,1.8593,1.9009,1.9016,1.9002,1.8972,1.9018,1.8972,1.8857,1.8796,1.9021,1.9016,1.91,1.9173,1.9488,1.9835,2.0294,2.0612,2.0542,2.0397,2.045,2.0539,2.0543,2.049,2.0681,2.0505,2.0216,1.9864,1.8941,1.8138,1.7741,1.7391,1.7124,1.7161,1.729,1.7439,1.7636,1.7738,1.7785,1.7575,1.7311,1.7114,1.7032,1.6998,1.6992,1.6985,1.6978,1.6926,1.6505,1.6236,1.6144,1.577,1.5581,1.5662,1.5784,1.5791,1.5437,1.4813,1.4015,1.42,1.4542,1.4908,1.525,1.5571,1.6126,1.6684,1.7226,1.7528,1.7756,1.786,1.7915,1.7915,1.7915,1.7915,1.7915,1.7915,1.7915,1.7915,1.7915,1.7915,1.7915,1.7915,1.7915,1.786,1.786,1.7915,1.7915,1.7915,1.7915,1.7915,1.7915,1.7473,1.6588,1.6089,1.5369,1.4647,1.4375,1.432,1.432,1.432,1.432,1.432,1.432,1.432,1.432,1.432,1.432,1.432,1.432,1.432,1.432,1.432,1.4385,1.4477,1.4666,1.4902,1.9182,1.9478,1.9425,1.9372,1.9349,1.9341,1.9129,1.8857,1.8804,1.8947,1.9081,1.9103,1.9362,1.9853,2.0261,2.0524,2.0677,2.0531,2.0474,2.0483,2.0564,2.0653,2.0742,2.0869,2.0901,2.0856,2.0516,1.9768,1.8788,1.7956,1.7503,1.7131,1.7202,1.7358,1.7453,1.7656,1.7779,1.7792,1.765,1.7392,1.7263,1.7148,1.71,1.7093,1.7026,1.6992,1.6926,1.6821,1.661,1.6637,1.6478,1.6515,1.655,1.6522,1.6443,1.6507,1.5777,1.5272,1.5266,1.5413,1.5668,1.6035,1.639,1.6813,1.7411,1.7701,1.7915,1.7915,1.7915,1.7915,1.7915,1.7915,1.7915,1.7915,1.7915,1.7915,1.7915,1.7915,1.7915,1.7915,1.7915,1.7915,1.7915,1.7915,1.7915,1.7915,1.7915,1.7915,1.7915,1.7915,1.7252,1.6311,1.5979,1.5646,1.4875,1.432,1.432,1.432,1.432,1.432,1.432,1.432,1.432,1.432,1.432,1.432,1.432,1.432,1.432,1.432,1.432,1.4485,1.4703,1.5061,1.5491,1.9773,1.9883,1.983,1.9812,1.9702,1.9702,1.9441,1.9067,1.9075,1.9166,1.9296,1.9433,1.9791,2.015,2.0497,2.0576,2.0588,2.0401,2.045,2.0547,2.0661,2.0767,2.0897,2.1015,2.1064,2.0978,2.0685,2.0054,1.9164,1.8376,1.7643,1.7153,1.7297,1.7433,1.7528,1.7663,1.7785,1.7772,1.7636,1.75,1.7352,1.7297,1.7229,1.7168,1.7093,1.7019,1.6985,1.6978,1.6978,1.6953,1.7062,1.7163,1.721,1.7173,1.7141,1.7128,1.6661,1.655,1.644,1.6446,1.6588,1.6871,1.721,1.7411,1.7749,1.7915,1.7915,1.7915,1.7915,1.7915,1.7915,1.7915,1.7915,1.7915,1.7915,1.7915,1.7915,1.7915,1.7915,1.7915,1.7915,1.7915,1.7915,1.7915,1.7915,1.7915,1.7915,1.7915,1.7915,1.7915,1.7369,1.6539,1.6089,1.5812,1.5091,1.4542,1.4431,1.432,1.432,1.432,1.432,1.432,1.432,1.432,1.4375,1.432,1.432,1.432,1.432,1.4375,1.4486,1.4758,1.5026,1.5453,1.6026,2.0224,2.0232,2.024,2.0232,2.0216,2.0216,2.0216,2.0007,2.0111,2.0156,2.0308,2.0567,2.0562,2.073,2.0592,2.0572,2.058,2.0401,2.0458,2.0596,2.0759,2.0905,2.1059,2.1189,2.1295,2.1115,2.0692,2.0023,1.9334,1.8568,1.7937,1.7459,1.7446,1.7467,1.7541,1.7684,1.7731,1.7724,1.7636,1.7561,1.75,1.7412,1.7351,1.7243,1.7188,1.7121,1.6992,1.6998,1.6985,1.6998,1.7229,1.7372,1.7399,1.7561,1.7654,1.7632,1.759,1.7473,1.7418,1.7148,1.6982,1.7148,1.7424,1.7756,1.7915,1.7915,1.7915,1.7915,1.7915,1.7915,1.7915,1.7915,1.7915,1.7915,1.7915,1.7915,1.7915,1.7915,1.7915,1.7915,1.7915,1.7915,1.7915,1.7915,1.7915,1.7915,1.7915,1.7915,1.7915,1.786,1.7535,1.6982,1.6428,1.5923,1.5258,1.4869,1.4597,1.4375,1.432,1.432,1.432,1.432,1.4542,1.4542,1.4653,1.4486,1.4431,1.4708,1.482,1.4597,1.4708,1.5214,1.5773,1.6323,1.6778,2.0268,2.0268,2.0268,2.0268,2.0268,2.0268,2.0268,2.0268,2.0268,2.0353,2.0434,2.0499,2.0523,2.0515,2.0483,2.0426,2.0418,2.0361,2.045,2.0596,2.0775,2.0954,2.1124,2.1216,2.1211,2.0874,2.0427,1.981,1.8973,1.862,1.8251,1.7841,1.7595,1.7541,1.7595,1.7731,1.7765,1.7772,1.7772,1.7738,1.7704,1.7595,1.748,1.7433,1.7358,1.7263,1.7141,1.7114,1.706,1.7087,1.7283,1.7385,1.7473,1.7717,1.7895,1.7915,1.7915,1.7915,1.7915,1.7646,1.7528,1.759,1.7805,1.7915,1.7915,1.7915,1.7915,1.7915,1.7915,1.7915,1.7915,1.7915,1.7915,1.7915,1.7915,1.797,1.8026,1.8081,1.8026,1.8088,1.797,1.7915,1.7915,1.7915,1.7915,1.7915,1.7915,1.7915,1.7915,1.786,1.759,1.7314,1.676,1.62,1.5591,1.5147,1.4758,1.4597,1.4431,1.4542,1.4653,1.4814,1.4925,1.498,1.5091,1.5202,1.5319,1.5375,1.5319,1.5091,1.5386,1.5904,1.6547,1.7151,1.7506,2.0268,2.0268,2.0268,2.0268,2.0268,2.0268,2.0268,2.0268,2.0268,2.0268,2.0268,2.0268,2.0268,2.0268,2.0328,2.0328,2.0284,2.0336,2.0442,2.0572,2.0726,2.0913,2.11,2.1121,2.1037,2.0537,2.0175,1.9618,1.8791,1.853,1.8226,1.7916,1.7765,1.7731,1.7738,1.7799,1.7915,1.7915,1.7915,1.7915,1.7888,1.7772,1.7609,1.7582,1.7473,1.7412,1.7304,1.7256,1.7222,1.7243,1.7344,1.7419,1.7575,1.769,1.7888,1.7915,1.7915,1.7915,1.7915,1.7915,1.7915,1.786,1.786,1.7915,1.7915,1.7915,1.7915,1.7915,1.7915,1.7915,1.7915,1.7915,1.7915,1.7915,1.8198,1.8309,1.8419,1.8474,1.8364,1.8309,1.8198,1.8143,1.7915,1.7915,1.7915,1.7915,1.7915,1.7915,1.7915,1.786,1.7749,1.748,1.7092,1.6539,1.5929,1.5652,1.5424,1.5313,1.5208,1.5097,1.5202,1.5313,1.548,1.5535,1.5702,1.6034,1.6096,1.604,1.5818,1.5591,1.6052,1.657,1.7143,1.7702,1.8018,2.0268,2.0268,2.0268,2.0268,2.0268,2.0268,2.0268,2.0268,2.0268,2.0268,2.0268,2.0268,2.0268,2.0268,2.0268,2.0268,2.0268,2.0328,2.0401,2.0539,2.0629,2.0824,2.0956,2.0986,2.0771,2.0427,1.9908,1.9247,1.864,1.8364,1.8088,1.7915,1.7888,1.7826,1.7902,1.7908,1.7915,1.7915,1.7915,1.7915,1.7908,1.7895,1.7765,1.7649,1.7663,1.7568,1.7453,1.7419,1.7385,1.7372,1.7446,1.7541,1.7582,1.7765,1.7908,1.7915,1.7915,1.7915,1.7915,1.7915,1.7915,1.7915,1.7915,1.7915,1.7915,1.7915,1.7915,1.7915,1.7915,1.7915,1.7915,1.797,1.797,1.8143,1.8474,1.875,1.8861,1.8916,1.8861,1.875,1.864,1.853,1.8143,1.7915,1.7915,1.7915,1.7915,1.7915,1.7915,1.786,1.7811,1.7701,1.7369,1.6982,1.6483,1.6262,1.6096,1.604,1.5874,1.5646,1.5702,1.5923,1.6034,1.6096,1.6366,1.6699,1.665,1.6594,1.6502,1.6515,1.6711,1.7187,1.7777,1.8156,1.8355,2.0268,2.0268,2.0268,2.0268,2.0268,2.0268,2.0268,2.0268,2.0268,2.0268,2.0268,2.0268,2.0268,2.0268,2.0268,2.0268,2.0268,2.0268,2.0393,2.0418,2.0523,2.0726,2.0806,2.0635,2.0342,1.9862,1.9302,1.8805,1.8143,1.8253,1.8143,1.8033,1.797,1.7915,1.7915,1.7915,1.7915,1.7915,1.7915,1.7915,1.7915,1.7915,1.7833,1.7785,1.7779,1.7711,1.7534,1.7575,1.748,1.7433,1.7548,1.7602,1.7629,1.7792,1.7915,1.7915,1.7915,1.7915,1.7915,1.7915,1.7915,1.7915,1.7915,1.7915,1.7915,1.7915,1.7915,1.7915,1.7915,1.7915,1.7915,1.8309,1.8419,1.8585,1.8861,1.9192,1.9357,1.9412,1.9412,1.9357,1.9247,1.8971,1.864,1.8309,1.8198,1.8033,1.7977,1.7915,1.7915,1.7922,1.7867,1.786,1.7694,1.7369,1.7092,1.6822,1.6539,1.6373,1.62,1.5979,1.6145,1.6539,1.665,1.6705,1.7031,1.7307,1.7258,1.7223,1.7442,1.7566,1.7504,1.7577,1.803,1.8321,1.8409,2.0268,2.0268,2.0268,2.0268,2.0268,2.0268,2.0268,2.0268,2.0268,2.0268,2.0268,2.0268,2.0268,2.0268,2.0268,2.0268,2.0268,2.0268,2.0268,2.0336,2.0434,2.0596,2.0607,2.0354,1.9961,1.9458,1.9004,1.8474,1.8309,1.853,1.8474,1.8309,1.8191,1.8088,1.8026,1.7915,1.7915,1.7915,1.7915,1.7915,1.7915,1.7915,1.7915,1.7908,1.7902,1.7812,1.7751,1.7704,1.7677,1.7623,1.765,1.7663,1.7758,1.7799,1.7915,1.7915,1.7915,1.7915,1.7915,1.7915,1.7915,1.7915,1.7915,1.7915,1.7915,1.7915,1.7915,1.7915,1.7915,1.8081,1.8253,1.864,1.8861,1.9033,1.9467,1.9798,1.9963,2.001,2.0065,2.0018,1.9853,1.9522,1.9081,1.875,1.853,1.8253,1.8033,1.7977,1.7936,1.7956,1.7983,1.7997,1.7948,1.7746,1.7553,1.7396,1.7112,1.676,1.6656,1.6558,1.6816,1.7203,1.7258,1.7314,1.748,1.7646,1.777,1.7852,1.7871,1.7931,1.7965,1.808,1.8362,1.8473,1.8514,2.0268,2.0268,2.0268,2.0268,2.0268,2.0268,2.0268,2.0268,2.0268,2.0268,2.0268,2.0268,2.0268,2.0268,2.0268,2.0268,2.0268,2.0268,2.0268,2.0268,2.0361,2.0483,2.0409,2.0188,1.9869,1.9433,1.9039,1.8746,1.8715,1.8768,1.872,1.8645,1.8576,1.8253,1.7985,1.7902,1.7908,1.7915,1.8033,1.8026,1.797,1.8033,1.7977,1.797,1.7908,1.7908,1.7881,1.7874,1.7881,1.7874,1.7895,1.7902,1.7908,1.7915,1.7915,1.7915,1.7915,1.7915,1.7915,1.7915,1.8033,1.8088,1.8143,1.8026,1.7915,1.7915,1.7977,1.8033,1.8143,1.8419,1.8695,1.8916,1.9192,1.9632,2.0175,2.045,2.0615,2.0725,2.0835,2.078,2.056,2.023,1.9687,1.9302,1.8861,1.8419,1.8205,1.8018,1.799,1.8009,1.8043,1.8097,1.8097,1.8097,1.7952,1.78,1.7737,1.7422,1.7497,1.7484,1.7735,1.7708,1.7646,1.7646,1.7811,1.7922,1.7929,1.7997,1.8043,1.8104,1.8179,1.8287,1.843,1.8601,1.8756,2.0268,2.0268,2.0268,2.0268,2.0268,2.0268,2.0268,2.0268,2.0268,2.0268,2.0268,2.0268,2.0268,2.0268,2.0268,2.0268,2.0268,2.0268,2.0268,2.0268,2.0276,2.0442,2.0345,2.007,1.9876,1.9608,1.9321,1.9001,1.9026,1.9034,1.9034,1.8957,1.8784,1.8313,1.7985,1.7812,1.7902,1.8033,1.8253,1.8253,1.8198,1.8309,1.8253,1.8143,1.797,1.797,1.7977,1.7915,1.7915,1.7915,1.7915,1.7915,1.7915,1.7915,1.7915,1.7915,1.7915,1.7915,1.797,1.8253,1.8474,1.8585,1.8805,1.853,1.8247,1.8026,1.8198,1.8364,1.853,1.8805,1.9247,1.9577,1.9798,2.023,2.0733,2.0906,2.1079,2.1158,2.1268,2.1205,2.104,2.078,2.023,1.9743,1.9302,1.875,1.8385,1.8267,1.8114,1.8196,1.8172,1.8226,1.8253,1.8253,1.8247,1.81,1.815,1.8136,1.8077,1.7982,1.7962,1.7872,1.7942,1.7915,1.7915,1.7915,1.7922,1.8004,1.8057,1.8199,1.8287,1.8389,1.847,1.8749,1.902,2.0268,2.0268,2.0268,2.0268,2.0268,2.0268,2.0268,2.0268,2.0268,2.0268,2.0268,2.0268,2.0268,2.0268,2.0268,2.0268,2.0268,2.0268,2.0268,2.0268,2.0268,2.0385,2.0256,2.0028,1.9797,1.9669,1.9478,1.9239,1.9394,1.9685,1.9754,1.9221,1.8922,1.8428,1.8081,1.8102,1.8247,1.8364,1.8474,1.8585,1.875,1.8861,1.875,1.8585,1.8357,1.8253,1.8198,1.8088,1.7915,1.7915,1.7915,1.7915,1.7915,1.7915,1.7915,1.797,1.8191,1.8253,1.8364,1.875,1.8971,1.9136,1.9412,1.9192,1.8964,1.875,1.8861,1.8971,1.9081,1.9302,1.9798,2.0293,2.056,2.0835,2.1134,2.1425,2.1457,2.1498,2.1498,2.149,2.1347,2.1181,2.078,2.0293,1.99,1.9577,1.9298,1.9052,1.8755,1.8474,1.8407,1.8375,1.8396,1.8403,1.8396,1.8369,1.8294,1.8233,1.8118,1.8043,1.8023,1.801,1.7936,1.7915,1.7915,1.7915,1.7922,1.8004,1.8057,1.8255,1.8562,1.8886,1.8998,1.9062,1.9327,2.0268,2.0268,2.0268,2.0268,2.0268,2.0268,2.0268,2.0268,2.0268,2.0268,2.0268,2.0268,2.0268,2.0268,2.0268,2.0268,2.0268,2.0268,2.0268,2.0268,2.0268,2.0353,2.0236,1.9993,1.9943,1.9659,1.9554,1.9585,2.0028,2.0172,2.0006,1.9497,1.945,1.9006,1.8417,1.8612,1.8861,1.9081,1.9136,1.9192,1.9412,1.9577,1.9632,1.9467,1.9081,1.875,1.864,1.8364,1.797,1.797,1.7915,1.7915,1.7915,1.7915,1.7915,1.7977,1.8198,1.8309,1.853,1.8861,1.9302,1.9467,1.9632,1.979,1.9735,1.9357,1.9357,1.9577,1.9687,1.9955,2.045,2.067,2.089,2.111,2.1282,2.152,2.161,2.1634,2.1634,2.1546,2.1457,2.1315,2.1253,2.0717,2.0392,2.026,1.9983,1.9659,1.949,1.9057,1.8887,1.8713,1.8538,1.8602,1.8538,1.8484,1.8342,1.8253,1.8172,1.8077,1.803,1.801,1.7922,1.7915,1.7915,1.7915,1.7936,1.8059,1.8308,1.853,1.8888,1.9355,1.9569,1.9598,1.9767,2.0268,2.0268,2.0268,2.0268,2.032,2.0268,2.032,2.0268,2.0268,2.0372,2.032,2.032,2.0268,2.0268,2.0268,2.0268,2.0268,2.0268,2.0268,2.0268,2.0268,2.0268,2.0268,2.0168,2.0139,2.0131,2.0111,2.0017,2.0191,2.0349,2.0292,1.9768,1.9708,1.939,1.8969,1.9221,1.95,1.979,1.9963,1.9798,1.9798,2.001,2.012,1.9798,1.9412,1.9357,1.9192,1.8805,1.8585,1.8474,1.8088,1.797,1.7915,1.7915,1.7915,1.797,1.8198,1.8364,1.8585,1.9026,1.9467,1.9798,2.0073,2.0505,2.0505,1.9963,1.9798,2.0128,2.0403,2.0725,2.0945,2.1055,2.1164,2.1274,2.1384,2.1569,2.1699,2.1708,2.1716,2.1595,2.149,2.1451,2.1452,2.1287,2.0953,2.0555,2.0119,1.9886,2.0046,1.9827,1.9654,1.9434,1.8898,1.8803,1.8789,1.8613,1.8477,1.8369,1.8294,1.8179,1.8043,1.8059,1.8088,1.797,1.7915,1.8136,1.8309,1.8371,1.8601,1.8881,1.9367,1.9913,2.0237,2.0376,2.0492,2.1049,2.1049,2.1041,2.1049,2.1049,2.1049,2.1041,2.1049,2.1049,2.1041,2.0937,2.0581,2.032,2.032,2.0268,2.0268,2.0268,2.0268,2.0268,2.0268,2.0268,2.0268,2.0268,2.0268,2.0284,2.0268,2.0268,2.0284,2.0268,2.0292,2.0164,1.9832,1.9867,1.9792,1.9505,1.9702,2.0059,2.045,2.0717,2.0615,2.034,2.0615,2.078,2.0395,2.0183,2.0073,1.9687,1.9247,1.8805,1.853,1.8143,1.797,1.7915,1.7915,1.8033,1.8309,1.8585,1.8798,1.9026,1.9412,1.9853,2.0301,2.056,2.1055,2.111,2.067,2.0615,2.089,2.089,2.1164,2.1164,2.1274,2.1274,2.1384,2.14,2.1473,2.1642,2.1716,2.1725,2.179,2.1701,2.1644,2.1653,2.167,2.143,2.1351,2.0856,2.0688,2.0732,2.0553,2.0391,2.0105,1.9605,1.9249,1.9249,1.897,1.8606,1.8511,1.8362,1.8242,1.8114,1.826,1.8253,1.8309,1.8467,1.8743,1.8916,1.8916,1.9106,1.9432,1.9889,2.0439,2.0744,2.0992,2.1008,2.1977,2.2029,2.1977,2.1977,2.1977,2.1977,2.1977,2.1977,2.1977,2.1977,2.1778,2.0841,2.0476,2.0424,2.032,2.032,2.0268,2.0268,2.0268,2.0268,2.0268,2.0268,2.0268,2.0268,2.0268,2.0268,2.0268,2.0268,2.0268,2.0284,2.0131,1.9854,1.9797,1.9791,1.9808,2.0054,2.0497,2.0701,2.096,2.1266,2.1329,2.1384,2.1274,2.111,2.0945,2.067,2.0238,1.9743,1.9081,1.8805,1.864,1.8419,1.8357,1.8412,1.853,1.8805,1.9136,1.9592,2.0048,2.0308,2.0757,2.1142,2.1298,2.1337,2.1337,2.1384,2.1329,2.1329,2.1329,2.1329,2.1384,2.1392,2.1392,2.1416,2.1441,2.1473,2.1634,2.1732,2.1782,2.1839,2.1847,2.1774,2.1879,2.1896,2.1904,2.1936,2.1912,2.1904,2.1735,2.1326,2.1043,2.0796,2.0383,2.0093,1.9706,1.9331,1.8846,1.8516,1.8402,1.8258,1.8309,1.8627,1.8861,1.8916,1.9081,1.9302,1.9467,1.9522,1.9729,1.9922,2.0499,2.0976,2.0961,2.1207,2.1397,2.2029,2.2029,2.2029,2.2029,2.2029,2.2029,2.2029,2.2029,2.2029,2.2029,2.1925,2.1457,2.1049,2.0989,2.0476,2.032,2.0268,2.0268,2.0268,2.0268,2.0268,2.0268,2.0268,2.0268,2.0268,2.0268,2.0268,2.0268,2.0369,2.0308,2.0365,2.0385,2.0385,2.0436,2.0612,2.0787,2.0829,2.0972,2.1115,2.1327,2.136,2.1368,2.1376,2.1329,2.1337,2.1219,2.1,2.0505,2.0293,2.0018,1.957,1.9247,1.9081,1.9081,1.9199,1.9401,1.9725,1.9958,2.0369,2.0519,2.0804,2.1144,2.1159,2.115,2.1252,2.1392,2.1392,2.1384,2.1384,2.1384,2.1384,2.1408,2.1425,2.149,2.153,2.1595,2.1676,2.1717,2.1782,2.1839,2.1847,2.1928,2.2107,2.2164,2.2204,2.2172,2.2115,2.2107,2.205,2.1808,2.1599,2.1309,2.0984,2.0184,1.9533,1.9469,1.9114,1.8684,1.851,1.8684,1.8932,1.9276,1.9467,1.9467,1.9522,1.9687,1.9853,2.0183,2.0253,2.0496,2.1104,2.1533,2.1389,2.134,2.149]},{"header":{"parameterUnit":"m.s-1","parameterCategory":1,"la1":31.0,"la2":29.5877,"lo1":-88.7671,"lo2":-86.6584,"dy":0.0162,"dx":0.0185,"nx":115,"ny":88,"refTime":"2023-10-02T06:00:00:Z","depth":0,"parameterNumber":3,"parameterNumberName":"V-component_of_WINDS"},"data":[0.0,0.0,0.0,0.0,0.0,0.0,0.0,0.0,0.0,0.0,0.0,0.0,0.0,0.0,0.0,0.0,0.0,0.0,0.0,0.0,0.0,0.0,0.0,0.0,0.0,0.0,0.0,0.0,0.0,0.0,0.0,0.0,0.0,0.0,0.0,0.0,0.0,0.0,0.0,0.0,0.0,0.0,0.0,0.0,0.0,0.0,0.0,0.0,0.0,0.0,0.0,0.0,0.0,0.0,0.0,0.0,0.0,0.0,0.0,0.0,0.0,0.0,0.0,0.0,0.0,0.0,0.0,0.0,0.0,0.0,0.0,0.0,0.0,0.0,0.0,0.0,0.0,0.0,0.0,0.0,0.0,0.0,0.0,0.0,0.0,0.0,0.0,0.0,0.0,0.0,0.0,0.0,0.0,0.0,0.0,0.0,0.0,0.0,0.0,0.0,0.0,0.0,0.0,0.0,0.0,0.0,0.0,0.0,0.0,0.0,0.0,0.0,0.0,0.0,0.0,0.0,0.0,0.0,0.0,0.0,0.0,0.0,0.0,0.0,0.0,0.0,0.0,0.0,0.0,0.0,0.0,0.0,0.0,0.0,0.0,0.0,0.0,0.0,0.0,0.0,0.0,0.0,0.0,0.0,0.0,0.0,0.0,0.0,0.0,0.0,0.0,0.0,0.0,0.0,0.0,0.0,0.0,0.0,0.0,0.0,0.0,0.0,0.0,0.0,0.0,0.0,0.0,0.0,0.0,0.0,0.0,0.0,0.0,0.0,0.0,0.0,0.0,0.0,0.0,0.0,0.0,0.0,0.0,0.0,0.0,0.0,0.0,0.0,0.0,0.0,0.0,0.0,0.0,0.0,0.0,0.0,0.0,0.0,0.0,0.0,0.0,0.0,0.0,0.0,0.0,0.0,0.0,0.0,0.0,0.0,0.0,0.0,0.0,0.0,0.0,0.0,0.0,0.0,0.0,0.0,0.0,0.0,0.0,0.0,0.0,0.0,0.0,0.0,0.0,0.0,0.0,0.0,0.0,0.0,0.0,0.0,0.0,0.0,0.0,0.0,0.0,0.0,0.0,0.0,0.0,0.0,0.0,0.0,0.0,0.0,0.0,0.0,0.0,0.0,0.0,0.0,0.0,0.0,0.0,0.0,0.0,0.0,0.0,0.0,0.0,0.0,0.0,0.0,0.0,0.0,0.0,0.0,0.0,0.0,0.0,0.0,0.0,0.0,0.0,0.0,0.0,0.0,0.0,0.0,0.0,0.0,0.0,0.0,0.0,0.0,0.0,0.0,0.0,0.0,0.0,0.0,0.0,0.0,0.0,0.0,0.0,0.0,0.0,0.0,0.0,0.0,0.0,0.0,0.0,0.0,0.0,0.0,0.0,0.0,0.0,0.0,0.0,0.0,0.0,0.0,0.0,0.0,0.0,0.0,0.0,0.0,0.0,0.0,0.0,0.0,0.0,0.0,0.0,0.0,0.0,0.0,0.0,0.0,0.0,0.0,0.0,0.0,0.0,0.0,0.0,0.0,0.0,0.0,0.0,0.0,0.0,0.0,0.0,0.0,0.0,0.0,0.0,0.0,0.0,0.0,0.0,0.0,0.0,0.0,0.0,0.0,0.0,0.0,0.0,0.0,0.0,0.0,0.0,0.0,0.0,0.0,0.0,0.0,0.0,0.0,0.0,0.0,0.0,0.0,0.0,0.0,0.0,0.0,0.0,0.0,0.0,0.0,0.0,0.0,0.0,0.0,0.0,0.0,0.0,0.0,0.0,0.0,0.0,0.0,0.0,0.0,0.0,0.0,0.0,0.0,0.0,0.0,0.0,0.0,0.0,0.0,0.0,0.0,0.0,0.0,0.0,0.0,0.0,0.0,0.0,0.0,0.0,0.0,0.0,0.0,0.0,0.0,0.0,0.0,0.0,0.0,0.0,0.0,0.0,0.0,0.0,0.0,0.0,0.0,0.0,0.0,0.0,0.0,0.0,0.0,0.0,0.0,0.0,0.0,0.0,0.0,0.0,0.0,0.0,0.0,0.0,0.0,0.0,0.0,0.0,0.0,0.0,0.0,0.0,0.0,0.0,0.0,0.0,0.0,0.0,0.0,0.0,0.0,0.0,0.0,0.0,0.0,0.0,0.0,0.0,0.0,0.0,0.0,0.0,0.0,0.0,0.0,0.0,0.0,0.0,0.0,0.0,0.0,0.0,0.0,0.0,0.0,0.0,0.0,0.0,0.0,0.0,0.0,0.0,0.0,0.0,0.0,0.0,0.0,0.0,0.0,0.0,0.0,0.0,0.0,0.0,0.0,0.0,0.0,0.0,0.0,0.0,0.0,0.0,0.0,0.0,0.0,0.0,0.0,0.0,0.0,0.0,0.0,0.0,0.0,0.0,0.0,0.0,0.0,0.0,0.0,0.0,0.0,0.0,0.0,0.0,0.0,0.0,0.0,0.0,0.0,0.0,0.0,0.0,0.0,0.0,0.0,0.0,0.0,0.0,0.0,0.0,0.0,0.0,0.0,0.0,0.0,0.0,0.0,0.0,0.0,0.0,0.0,0.0,0.0,0.0,0.0,0.0,0.0,0.0,0.0,0.0,0.0,0.0,0.0,0.0,0.0,0.0,0.0,0.0,0.0,0.0,0.0,0.0,0.0,0.0,0.0,0.0,0.0,0.0,0.0,0.0,0.0,0.0,0.0,0.0,0.0,0.0,0.0,0.0,0.0,0.0,0.0,0.0,0.0,0.0,0.0,0.0,0.0,0.0,0.0,0.0,0.0,0.0,0.0,0.0,0.0,0.0,0.0,0.0,0.0,0.0,0.0,0.0,0.0,0.0,0.0,0.0,0.0,0.0,0.0,0.0,0.0,0.0,0.0,0.0,0.0,0.0,0.0,0.0,0.0,0.0,0.0,0.0,0.0,0.0,0.0,0.0,0.0,0.0,0.0,0.0,0.0,0.0,0.0,0.0,0.0,0.0,0.0,0.0,0.0,0.0,0.0,0.0,0.0,0.0,0.0,0.0,0.0,0.0,0.0,0.0,0.0,0.0,0.0,0.0,0.0,0.0,0.0,0.0,0.0,0.0,0.0,0.0,0.0,0.0,0.0,0.0,0.0,0.0,0.0,0.0,0.0,0.0,0.0,0.0,0.0,0.0,0.0,0.0,0.0,0.0,0.0,0.0,0.0,0.0,0.0,0.0,0.0,0.0,0.0,0.0,0.0,0.0,0.0,0.0,0.0,0.0,0.0,0.0,0.0,0.0,0.0,0.0,0.0,0.0,0.0,0.0,0.0,0.0,0.0,0.0,0.0,0.0,0.0,0.0,0.0,0.0,0.0,0.0,0.0,0.0,0.0,0.0,0.0,0.0,0.0,0.0,0.0,0.0,0.0,0.0,0.0,0.0,0.0,0.0,0.0,0.0,0.0,0.0,0.0,0.0,0.0,0.0,0.0,0.0,0.0,0.0,0.0,0.0,0.0,0.0,0.0,0.0,0.0,0.0,0.0,0.0,0.0,0.0,0.0,0.0,0.0,0.0,0.0,0.0,0.0,0.0,0.0,0.0,0.0,0.0,0.0,0.0,0.0,0.0,0.0,0.0,0.0,0.0,0.0,0.0,0.0,0.0,0.0,0.0,0.0,0.0,0.0,0.0,0.0,0.0,0.0,0.0,0.0,0.0,0.0,0.0,0.0,0.0,0.0,0.0,0.0,0.0,0.0,0.0,0.0,0.0,0.0,0.0,0.0,0.0,0.0,0.0,0.0,0.0,0.0,0.0,0.0,0.0,0.0,0.0,0.0,0.0,0.0,0.0,0.0,0.0,0.0,0.0,0.0,0.0,0.0,0.0,0.0,0.0,0.0,0.0,0.0,0.0,0.0,0.0,0.0,0.0,0.0,0.0,0.0,0.0,0.0,0.0,0.0,0.0,0.0,0.0,0.0,0.0,0.0,0.0,0.0,0.0,0.0,0.0,0.0,0.0,0.0,0.0,0.0,0.0,0.0,0.0,0.0,0.0,0.0,0.0,0.0,0.0,0.0,0.0,0.0,0.0,0.0,0.0,0.0,0.0,0.0,0.0,0.0,0.0,0.0,0.0,0.0,0.0,0.0,0.0,0.0,0.0,0.0,0.0,0.0,0.0,0.0,0.0,0.0,0.0,0.0,0.0,0.0,0.0,0.0,0.0,0.0,0.0,0.0,0.0,0.0,0.0,0.0,0.0,0.0,0.0,0.0,0.0,0.0,0.0,0.0,0.0,0.0,0.0,0.0,0.0,0.0,1.3941,0.0,0.0,0.0,0.0,0.0,0.0,0.0,0.0,0.0,0.0,0.0,0.0,0.0,0.0,0.0,0.0,0.0,0.0,0.0,0.0,0.0,0.0,0.0,0.0,0.0,0.0,0.0,0.0,0.0,0.0,0.0,0.0,0.0,0.0,0.0,0.0,0.0,0.0,0.0,0.0,0.0,0.0,0.0,0.0,0.0,0.0,0.0,0.0,0.0,0.0,0.0,0.0,0.0,0.0,0.0,0.0,0.0,0.0,0.0,0.0,0.0,0.0,0.0,0.0,0.0,0.0,0.0,0.0,0.0,0.0,0.0,0.0,0.0,0.0,0.0,0.0,0.0,0.0,0.0,0.0,0.0,0.0,0.0,0.0,0.0,0.0,0.0,0.0,0.0,0.0,0.0,0.0,0.0,0.0,0.0,0.0,0.0,0.0,0.0,0.0,0.0,0.0,0.0,0.0,0.0,0.0,0.0,0.0,0.0,0.0,1.2745,1.2983,1.3248,1.3747,1.4524,0.0,0.0,0.0,0.0,0.0,0.0,0.0,0.0,0.0,0.0,0.0,0.0,0.0,0.0,0.0,0.0,0.0,0.0,0.0,0.0,0.0,0.0,0.0,0.0,0.0,0.0,0.0,0.0,0.0,0.0,0.0,0.0,0.0,0.0,0.0,0.0,0.0,0.0,0.0,0.0,0.0,0.0,0.0,0.0,0.0,0.0,0.0,0.0,0.0,0.0,0.0,0.0,0.0,0.0,0.0,0.0,0.0,0.0,0.0,0.0,0.0,0.0,0.0,0.0,0.0,0.0,0.0,0.0,0.0,0.0,0.0,0.0,0.0,0.0,0.0,0.0,0.0,0.0,0.0,0.0,0.0,0.0,0.0,0.0,0.0,0.0,0.0,0.0,0.0,0.0,0.0,0.0,0.0,0.0,0.0,0.0,0.0,0.0,0.0,0.0,0.0,0.0,0.0,0.0,0.0,0.0,0.0,0.0,0.0,0.0,0.0,0.0,1.4081,1.4485,1.504,0.0,0.0,0.0,0.0,0.0,0.0,0.0,0.0,0.0,0.0,0.0,0.0,0.0,0.0,0.0,0.0,0.0,0.0,0.0,0.0,0.0,0.0,0.0,0.0,0.0,0.0,0.0,0.0,0.0,0.0,0.0,0.0,0.0,0.0,0.0,0.0,0.0,0.0,0.0,0.0,0.0,0.0,0.0,0.0,0.0,0.0,0.0,0.0,0.0,0.0,0.0,0.0,0.0,0.0,0.0,0.0,0.0,0.0,0.0,0.0,0.0,0.0,0.0,0.0,0.0,0.0,0.0,0.0,0.0,0.0,0.0,0.0,0.0,0.0,0.0,0.0,0.0,0.0,0.0,0.0,0.0,0.0,0.0,0.0,0.0,0.0,0.0,0.0,0.0,0.0,0.0,0.0,0.0,0.0,0.0,0.0,0.0,0.0,0.0,0.0,0.0,0.0,0.0,0.0,0.0,0.0,0.0,0.0,0.0,0.0,1.3599,1.3791,1.4121,0.0,1.5404,0.0,0.0,0.0,0.0,0.0,0.0,0.0,0.0,0.0,0.0,0.0,0.0,0.0,0.0,0.0,0.0,0.0,0.0,0.0,0.0,0.0,0.0,0.0,0.0,0.0,0.0,0.0,0.0,0.0,0.0,0.0,0.0,0.0,0.0,0.0,0.0,0.0,0.0,0.0,0.0,0.0,0.0,0.0,0.0,0.0,0.0,0.0,0.0,0.0,0.0,0.0,0.0,0.0,0.0,0.0,0.0,0.0,0.0,0.0,0.0,0.0,0.0,0.0,0.0,0.0,0.0,0.0,0.0,0.0,0.0,0.0,0.0,0.0,0.0,0.0,0.0,0.0,0.0,0.0,0.0,0.0,0.0,0.0,0.0,0.0,0.0,0.0,0.0,0.0,0.0,0.0,0.0,0.0,0.0,0.0,0.0,0.0,0.0,0.0,0.0,0.0,0.0,0.0,0.0,0.0,0.0,0.0,0.0,0.0,0.0,1.4767,1.4919,1.5383,1.5773,0.0,0.0,0.0,0.0,0.0,0.0,0.0,0.0,0.0,0.0,0.0,0.0,0.0,0.0,0.0,0.0,0.0,0.0,0.0,0.0,0.0,0.0,0.0,0.0,0.0,0.0,0.0,0.0,0.0,0.0,0.0,0.0,0.0,0.0,0.0,0.0,0.0,0.0,0.0,0.0,0.0,0.0,0.0,0.0,0.0,0.0,0.0,0.0,0.0,0.0,0.0,0.0,0.0,0.0,0.0,0.0,0.0,0.0,0.0,0.0,0.0,0.0,0.0,0.0,0.0,0.0,0.0,0.0,0.0,0.0,0.0,0.0,0.0,0.0,0.0,0.0,0.0,0.0,0.0,0.0,0.0,0.0,0.0,0.0,0.0,0.0,0.0,0.0,0.0,0.0,0.0,0.0,0.0,0.0,0.0,0.0,0.0,0.0,0.0,0.0,0.0,0.0,0.0,0.0,0.0,0.0,0.0,0.0,0.0,0.0,1.5254,1.5621,1.5836,1.637,1.6559,1.6307,0.0,0.0,0.0,0.0,0.0,0.0,0.0,0.0,0.0,0.0,0.0,0.0,0.0,0.0,0.0,0.0,0.0,0.0,0.0,0.0,0.0,0.0,0.0,0.0,0.0,0.0,0.0,0.0,0.0,0.0,0.0,0.0,0.0,0.0,0.0,0.0,0.0,0.0,0.0,0.0,0.0,0.0,0.0,0.0,0.0,0.0,0.0,0.0,0.0,0.0,0.0,0.0,0.0,0.0,0.0,0.0,0.0,0.0,0.0,0.0,0.0,0.0,0.0,0.0,0.0,0.0,0.0,0.0,0.0,0.0,0.0,0.0,0.0,0.0,0.0,0.0,0.0,0.0,0.0,0.0,0.0,0.0,0.0,0.0,0.0,0.0,0.0,0.0,0.0,0.0,0.0,0.0,0.0,0.0,0.0,0.0,0.0,0.0,0.0,0.0,0.0,0.0,0.0,0.0,0.0,0.0,0.0,0.0,1.5363,1.5481,1.5733,1.6191,1.6573,1.6624,0.0,0.0,0.0,0.0,0.0,0.0,0.0,0.0,0.0,0.0,0.0,0.0,0.0,0.0,0.0,0.0,0.0,0.0,0.0,0.0,0.0,0.0,0.0,0.0,0.0,0.0,0.0,0.0,0.0,0.0,0.0,0.0,0.0,0.0,0.0,0.0,0.0,0.0,0.0,0.0,0.0,0.0,0.0,0.0,0.0,0.0,0.0,0.0,0.0,0.0,0.0,0.0,0.0,0.0,0.0,0.0,0.0,0.0,0.0,0.0,0.0,0.0,0.0,0.0,0.0,0.0,0.0,0.0,0.0,0.0,0.0,0.0,0.0,0.0,0.0,0.0,0.0,0.0,0.0,0.0,0.0,0.0,0.0,0.0,0.0,0.0,0.0,0.0,0.0,0.0,0.0,0.0,0.0,0.0,0.0,0.0,0.0,0.0,0.0,0.0,0.0,0.0,0.0,0.0,0.0,0.0,0.0,0.0,0.0,1.6261,1.6879,1.7376,1.7663,1.8021,1.8025,0.0,0.0,0.0,0.0,0.0,0.0,0.0,0.0,0.0,0.0,0.0,0.0,0.0,0.0,0.0,0.0,0.0,0.0,0.0,0.0,0.0,0.0,0.0,0.0,0.0,0.0,0.0,0.0,0.0,0.0,0.0,0.0,0.0,0.0,0.0,0.0,0.0,0.0,0.0,0.0,0.0,0.0,0.0,0.0,0.0,0.0,0.0,0.0,0.0,0.0,0.0,0.0,0.0,0.0,0.0,0.0,0.0,0.0,0.0,0.0,0.0,0.0,0.0,0.0,0.0,0.0,0.0,0.0,0.0,0.0,0.0,0.0,0.0,0.0,0.0,0.0,0.0,0.0,0.0,0.0,0.0,0.0,0.0,0.0,0.0,0.0,0.0,0.0,0.0,0.0,0.0,0.0,0.0,0.0,0.0,0.0,0.0,0.0,0.0,0.0,0.0,0.0,0.0,0.0,0.0,0.0,0.0,0.0,0.0,1.8211,0.0,1.9212,1.9591,1.9507,1.9242,0.0,0.0,0.0,0.0,0.0,0.0,0.0,0.0,0.0,0.0,0.0,0.0,0.0,0.0,0.0,0.0,0.0,0.0,0.0,0.0,0.0,0.0,0.0,0.0,0.0,0.0,0.0,0.0,0.0,0.0,0.0,0.0,0.0,0.0,0.0,0.0,0.0,0.0,0.0,0.0,0.0,0.0,0.0,0.0,0.0,0.0,0.0,0.0,0.0,0.0,0.0,0.0,0.0,0.0,0.0,0.0,0.0,0.0,0.0,0.0,0.0,0.0,0.0,0.0,0.0,0.0,0.0,0.0,0.0,0.0,0.0,0.0,0.0,0.0,0.0,0.0,0.0,0.0,0.0,0.0,0.0,0.0,0.0,0.0,0.0,0.0,0.0,0.0,0.0,0.0,0.0,0.0,0.0,0.0,0.0,0.0,0.0,0.0,0.0,0.0,0.0,0.0,0.0,0.0,0.0,0.0,0.0,0.0,1.9978,2.1342,2.1105,2.1328,2.1866,2.1038,2.0221,0.0,0.0,0.0,0.0,0.0,0.0,0.0,0.0,0.0,0.0,0.0,0.0,0.0,0.0,0.0,0.0,0.0,0.0,0.0,0.0,0.0,0.0,0.0,0.0,0.0,0.0,0.0,0.0,0.0,0.0,0.0,0.0,0.0,0.0,0.0,0.0,0.0,0.0,0.0,0.0,0.0,0.0,0.0,0.0,0.0,0.0,0.0,0.0,0.0,0.0,0.0,0.0,0.0,0.0,0.0,0.0,0.0,0.0,0.0,0.0,0.0,0.0,0.0,0.0,0.0,0.0,0.0,0.0,0.0,0.0,0.0,0.0,0.0,0.0,0.0,0.0,0.0,0.0,0.0,0.0,0.0,0.0,0.0,0.0,0.0,0.0,0.0,0.0,0.0,0.0,0.0,0.0,0.0,0.0,0.0,0.0,0.0,0.0,0.0,0.0,0.0,0.0,0.0,0.0,0.0,0.0,0.0,0.0,0.0,2.4491,2.5074,2.536,2.5185,2.4061,2.3072,0.0,0.0,0.0,0.0,0.0,0.0,0.0,0.0,0.0,0.0,0.0,0.0,0.0,0.0,0.0,0.0,0.0,0.0,0.0,0.0,0.0,0.0,0.0,0.0,0.0,0.0,0.0,0.0,0.0,0.0,0.0,0.0,0.0,0.0,0.0,0.0,0.0,0.0,0.0,0.0,0.0,0.0,0.0,0.0,0.0,0.0,0.0,0.0,0.0,0.0,0.0,0.0,0.0,0.0,0.0,0.0,0.0,0.0,0.0,0.0,0.0,0.0,0.0,0.0,0.0,0.0,0.0,0.0,0.0,0.0,0.0,0.0,0.0,0.0,0.0,0.0,0.0,0.0,0.0,0.0,0.0,0.0,0.0,0.0,0.0,0.0,0.0,0.0,0.0,0.0,0.0,0.0,0.0,0.0,0.0,0.0,0.0,0.0,0.0,0.0,0.0,0.0,0.0,0.0,0.0,0.0,0.0,0.0,0.0,3.249,3.1314,3.0691,3.0645,2.8801,2.7104,2.5677,0.0,0.0,0.0,0.0,0.0,0.0,0.0,0.0,0.0,0.0,0.0,0.0,0.0,0.0,0.0,0.0,0.0,0.0,0.0,0.0,0.0,0.0,0.0,0.0,0.0,0.0,0.0,0.0,0.0,0.0,0.0,0.0,0.0,0.0,0.0,0.0,0.0,0.0,0.0,0.0,0.0,0.0,0.0,0.0,0.0,0.0,0.0,0.0,0.0,0.0,0.0,0.0,0.0,0.0,0.0,0.0,0.0,0.0,0.0,0.0,0.0,0.0,0.0,0.0,0.0,0.0,0.0,0.0,0.0,0.0,0.0,0.0,0.0,0.0,0.0,0.0,0.0,0.0,0.0,0.0,0.0,0.0,0.0,0.0,0.0,0.0,0.0,0.0,0.0,0.0,0.0,0.0,0.0,0.0,0.0,0.0,0.0,0.0,0.0,0.0,0.0,0.0,0.0,0.0,0.0,0.0,0.0,0.0,4.4229,3.9703,3.7501,3.7713,3.4858,3.207,0.0,0.0,0.0,0.0,0.0,0.0,0.0,0.0,0.0,0.0,0.0,0.0,0.0,0.0,0.0,0.0,0.0,0.0,0.0,0.0,0.0,0.0,0.0,0.0,0.0,0.0,0.0,0.0,0.0,0.0,0.0,0.0,0.0,0.0,0.0,0.0,0.0,0.0,0.0,0.0,0.0,0.0,0.0,0.0,0.0,0.0,0.0,0.0,0.0,0.0,0.0,0.0,0.0,0.0,0.0,0.0,0.0,0.0,0.0,0.0,0.0,0.0,0.0,0.0,0.0,0.0,0.0,0.0,0.0,0.0,0.0,0.0,0.0,0.0,0.0,0.0,0.0,0.0,0.0,0.0,0.0,0.0,0.0,0.0,0.0,0.0,0.0,0.0,0.0,0.0,0.0,0.0,0.0,0.0,0.0,0.0,0.0,0.0,0.0,0.0,0.0,0.0,0.0,0.0,0.0,0.0,0.0,0.0,0.0,5.0113,5.1259,4.9245,4.412,4.0823,3.7258,0.0,0.0,0.0,0.0,0.0,0.0,0.0,0.0,0.0,0.0,0.0,0.0,0.0,0.0,0.0,0.0,0.0,0.0,0.0,0.0,0.0,0.0,0.0,0.0,0.0,0.0,0.0,0.0,0.0,0.0,0.0,0.0,0.0,0.0,0.0,0.0,0.0,0.0,0.0,0.0,0.0,0.0,0.0,0.0,0.0,0.0,0.0,0.0,0.0,0.0,0.0,0.0,0.0,0.0,0.0,0.0,0.0,0.0,0.0,0.0,0.0,0.0,0.0,0.0,0.0,0.0,0.0,0.0,0.0,0.0,0.0,0.0,0.0,0.0,0.0,0.0,0.0,0.0,0.0,0.0,0.0,0.0,0.0,0.0,0.0,0.0,0.0,0.0,0.0,0.0,0.0,0.0,0.0,0.0,0.0,0.0,0.0,0.0,0.0,0.0,0.0,0.0,0.0,0.0,0.0,0.0,0.0,0.0,5.0271,5.6705,5.9896,5.9332,5.4825,4.8639,4.3101,0.0,0.0,0.0,0.0,0.0,0.0,0.0,0.0,0.0,0.0,0.0,0.0,0.0,0.0,0.0,0.0,0.0,0.0,0.0,0.0,0.0,0.0,0.0,0.0,0.0,0.0,0.0,0.0,0.0,0.0,0.0,0.0,0.0,0.0,0.0,0.0,0.0,0.0,0.0,0.0,0.0,0.0,0.0,0.0,0.0,0.0,0.0,0.0,0.0,0.0,0.0,0.0,0.0,0.0,0.0,0.0,0.0,0.0,0.0,0.0,0.0,0.0,0.0,0.0,0.0,0.0,0.0,0.0,0.0,0.0,0.0,0.0,0.0,0.0,0.0,0.0,0.0,0.0,0.0,0.0,0.0,0.0,0.0,0.0,0.0,0.0,0.0,0.0,0.0,0.0,0.0,0.0,0.0,0.0,0.0,0.0,0.0,0.0,0.0,0.0,0.0,0.0,0.0,0.0,0.0,0.0,0.0,0.0,5.5982,6.294,6.622,6.7577,6.6721,5.7019,4.9104,0.0,0.0,0.0,0.0,0.0,0.0,0.0,0.0,0.0,0.0,0.0,0.0,0.0,0.0,0.0,0.0,0.0,0.0,0.0,0.0,0.0,0.0,0.0,0.0,0.0,0.0,0.0,0.0,0.0,0.0,0.0,0.0,0.0,0.0,0.0,0.0,0.0,0.0,0.0,0.0,0.0,0.0,0.0,0.0,0.0,0.0,0.0,0.0,0.0,0.0,0.0,0.0,0.0,0.0,0.0,0.0,0.0,0.0,0.0,0.0,0.0,0.0,0.0,0.0,0.0,0.0,0.0,0.0,0.0,0.0,0.0,0.0,0.0,0.0,0.0,0.0,0.0,0.0,0.0,0.0,0.0,0.0,0.0,0.0,0.0,0.0,0.0,0.0,0.0,0.0,0.0,0.0,0.0,0.0,0.0,0.0,0.0,0.0,0.0,0.0,0.0,0.0,0.0,0.0,0.0,0.0,0.0,0.0,6.0034,6.6753,7.0105,7.1666,7.1361,6.1763,5.3694,0.0,0.0,0.0,0.0,0.0,0.0,0.0,0.0,0.0,0.0,0.0,0.0,0.0,0.0,0.0,0.0,0.0,0.0,0.0,0.0,0.0,0.0,0.0,0.0,0.0,0.0,0.0,0.0,0.0,0.0,0.0,0.0,0.0,0.0,0.0,0.0,0.0,0.0,0.0,0.0,0.0,0.0,0.0,0.0,0.0,0.0,0.0,0.0,2.3518,0.0,0.0,0.0,0.0,0.0,0.0,0.0,0.0,0.0,0.0,0.0,0.0,0.0,0.0,0.0,0.0,0.0,0.0,0.0,0.0,0.0,0.0,0.0,0.0,0.0,0.0,0.0,0.0,0.0,0.0,0.0,0.0,0.0,0.0,0.0,0.0,0.0,0.0,0.0,0.0,0.0,0.0,0.0,0.0,0.0,0.0,0.0,0.0,0.0,0.0,0.0,0.0,0.0,0.0,0.0,0.0,0.0,0.0,0.0,6.4685,7.1313,7.4233,7.5436,7.4707,6.6944,5.9128,0.0,0.0,0.0,0.0,0.0,0.0,0.0,0.0,0.0,0.0,0.0,0.0,0.0,0.0,0.0,0.0,0.0,0.0,0.0,0.0,0.0,0.0,0.0,0.0,0.0,0.0,0.0,0.0,0.0,0.0,0.0,0.0,0.0,0.0,0.0,0.0,0.0,0.0,0.0,0.0,0.0,0.0,0.0,0.0,0.0,0.0,0.0,0.0,0.0,0.0,0.0,0.0,0.0,0.0,0.0,0.0,0.0,0.0,0.0,0.0,0.0,0.0,0.0,0.0,0.0,0.0,0.0,0.0,0.0,0.0,0.0,0.0,0.0,0.0,0.0,0.0,0.0,0.0,0.0,0.0,0.0,0.0,0.0,0.0,0.0,0.0,0.0,0.0,0.0,0.0,0.0,0.0,0.0,0.0,0.0,0.0,0.0,0.0,0.0,0.0,0.0,0.0,0.0,0.0,0.0,0.0,0.0,6.1556,6.911,7.5562,7.8052,7.8679,7.7499,7.1396,6.4138,5.5759,0.0,0.0,0.0,0.0,0.0,0.0,0.0,0.0,0.0,0.0,0.0,0.0,0.0,0.0,0.0,0.0,0.0,0.0,0.0,0.0,0.0,0.0,0.0,0.0,0.0,0.0,0.0,0.0,0.0,0.0,0.0,0.0,0.0,0.0,0.0,0.0,0.0,0.0,2.5029,2.9386,0.0,0.0,0.0,0.0,0.0,0.0,0.0,0.0,2.9793,0.0,0.0,0.0,0.0,0.0,0.0,0.0,0.0,0.0,0.0,0.0,0.0,0.0,0.0,0.0,0.0,0.0,0.0,0.0,0.0,0.0,0.0,0.0,0.0,0.0,0.0,0.0,0.0,0.0,0.0,0.0,0.0,0.0,0.0,0.0,0.0,0.0,0.0,0.0,0.0,0.0,0.0,0.0,0.0,0.0,0.0,0.0,0.0,0.0,0.0,0.0,0.0,0.0,0.0,0.0,0.0,5.6187,6.4694,7.1862,7.7613,8.0455,8.0683,7.8214,7.2733,6.6201,5.8485,0.0,0.0,0.0,0.0,0.0,0.0,0.0,0.0,0.0,0.0,0.0,0.0,0.0,0.0,0.0,0.0,0.0,0.0,0.0,0.0,0.0,0.0,0.0,0.0,0.0,0.0,0.0,0.0,0.0,0.0,0.0,0.0,0.0,0.0,0.0,0.0,0.0,0.0,0.0,3.2393,3.4644,0.0,0.0,0.0,0.0,0.0,0.0,0.0,0.0,3.2685,0.0,0.0,0.0,0.0,0.0,0.0,0.0,0.0,0.0,0.0,0.0,0.0,0.0,0.0,0.0,0.0,0.0,0.0,0.0,0.0,0.0,0.0,0.0,0.0,0.0,0.0,0.0,0.0,0.0,0.0,0.0,0.0,0.0,0.0,0.0,0.0,0.0,0.0,0.0,0.0,0.0,0.0,0.0,0.0,0.0,0.0,0.0,0.0,0.0,0.0,0.0,0.0,0.0,0.0,0.0,5.9822,6.7976,7.4779,8.0233,8.2314,8.1983,7.9134,7.3744,6.6754,0.0,0.0,0.0,0.0,0.0,0.0,0.0,0.0,0.0,0.0,0.0,0.0,0.0,0.0,0.0,0.0,0.0,0.0,0.0,0.0,0.0,0.0,0.0,0.0,0.0,0.0,0.0,0.0,0.0,0.0,0.0,0.0,0.0,0.0,0.0,0.0,0.0,0.0,0.0,0.0,3.587,3.8147,3.8193,0.0,0.0,0.0,0.0,0.0,0.0,3.7566,3.7096,0.0,0.0,0.0,0.0,0.0,0.0,0.0,0.0,0.0,0.0,0.0,0.0,0.0,0.0,0.0,0.0,0.0,0.0,0.0,0.0,0.0,0.0,0.0,0.0,0.0,0.0,0.0,0.0,0.0,0.0,0.0,0.0,0.0,0.0,0.0,0.0,0.0,0.0,0.0,0.0,0.0,0.0,0.0,0.0,0.0,0.0,0.0,0.0,0.0,0.0,0.0,0.0,0.0,0.0,0.0,6.3392,7.1122,7.7619,8.2808,8.4043,8.3143,7.999,7.4372,6.6866,0.0,0.0,0.0,0.0,0.0,0.0,0.0,0.0,0.0,0.0,0.0,0.0,0.0,0.0,0.0,0.0,0.0,0.0,0.0,0.0,0.0,0.0,0.0,0.0,0.0,0.0,0.0,0.0,0.0,0.0,0.0,0.0,0.0,0.0,0.0,0.0,0.0,0.0,0.0,0.0,0.0,4.127,4.229,4.2439,0.0,0.0,0.0,0.0,4.1691,4.2046,0.0,0.0,0.0,0.0,0.0,0.0,0.0,0.0,0.0,0.0,0.0,0.0,0.0,0.0,0.0,0.0,0.0,0.0,0.0,0.0,0.0,0.0,0.0,0.0,0.0,0.0,0.0,0.0,0.0,0.0,0.0,0.0,0.0,0.0,0.0,0.0,0.0,0.0,0.0,0.0,0.0,0.0,0.0,0.0,0.0,0.0,0.0,0.0,0.0,0.0,0.0,0.0,0.0,0.0,0.0,0.0,6.6337,7.3974,8.0119,8.4643,8.5763,8.441,8.0662,7.4523,6.6928,0.0,0.0,0.0,0.0,0.0,0.0,0.0,0.0,0.0,0.0,0.0,0.0,0.0,0.0,0.0,0.0,0.0,0.0,0.0,0.0,0.0,0.0,0.0,0.0,0.0,0.0,0.0,0.0,0.0,0.0,0.0,0.0,0.0,0.0,0.0,0.0,0.0,0.0,0.0,0.0,0.0,4.2555,4.476,4.5268,4.5534,0.0,0.0,4.56,4.6352,4.5781,0.0,0.0,0.0,0.0,0.0,0.0,0.0,0.0,0.0,0.0,0.0,0.0,0.0,0.0,0.0,0.0,0.0,0.0,0.0,0.0,0.0,0.0,0.0,0.0,0.0,0.0,0.0,0.0,0.0,0.0,0.0,0.0,0.0,0.0,0.0,0.0,0.0,0.0,0.0,0.0,0.0,0.0,0.0,0.0,0.0,0.0,0.0,0.0,0.0,0.0,0.0,0.0,0.0,0.0,0.0,5.865,6.8983,7.5663,8.1445,8.6377,8.6392,8.4688,8.1414,7.5046,6.7246,0.0,0.0,0.0,0.0,0.0,0.0,0.0,0.0,0.0,0.0,0.0,0.0,0.0,0.0,0.0,0.0,0.0,0.0,0.0,0.0,0.0,0.0,0.0,0.0,0.0,0.0,0.0,0.0,0.0,0.0,0.0,0.0,0.0,0.0,0.0,0.0,0.0,0.0,0.0,0.0,0.0,0.0,4.8247,4.9627,0.0,0.0,0.0,5.1945,5.2352,0.0,0.0,0.0,0.0,0.0,0.0,0.0,0.0,0.0,0.0,0.0,0.0,0.0,0.0,0.0,0.0,0.0,0.0,0.0,0.0,0.0,0.0,0.0,0.0,0.0,0.0,0.0,0.0,0.0,0.0,0.0,0.0,0.0,0.0,0.0,0.0,0.0,0.0,0.0,0.0,0.0,0.0,0.0,0.0,0.0,0.0,0.0,0.0,0.0,0.0,0.0,0.0,0.0,0.0,0.0,0.0,0.0,7.139,7.7417,8.2911,8.7714,8.695,8.5027,8.2034,7.5694,0.0,0.0,0.0,0.0,0.0,0.0,0.0,0.0,0.0,0.0,0.0,0.0,0.0,0.0,0.0,0.0,0.0,0.0,0.0,0.0,0.0,0.0,0.0,0.0,0.0,0.0,0.0,2.5054,0.0,0.0,0.0,0.0,0.0,0.0,0.0,0.0,0.0,0.0,0.0,0.0,0.0,0.0,4.8297,5.209,5.4174,5.5418,0.0,0.0,5.7548,5.7195,5.6398,5.4661,0.0,0.0,0.0,0.0,0.0,0.0,0.0,0.0,0.0,0.0,0.0,0.0,0.0,0.0,0.0,0.0,0.0,0.0,0.0,0.0,0.0,0.0,0.0,0.0,0.0,0.0,0.0,0.0,0.0,0.0,0.0,0.0,0.0,0.0,0.0,0.0,0.0,0.0,0.0,0.0,0.0,0.0,0.0,0.0,0.0,0.0,0.0,0.0,0.0,0.0,0.0,0.0,0.0,0.0,0.0,7.3106,7.9809,8.4942,8.8539,8.775,8.5797,8.2736,7.6502,6.923,0.0,0.0,0.0,0.0,0.0,0.0,0.0,0.0,0.0,0.0,0.0,0.0,0.0,0.0,0.0,0.0,0.0,0.0,0.0,0.0,0.0,0.0,0.0,0.0,0.0,0.0,0.0,0.0,0.0,0.0,0.0,0.0,0.0,0.0,0.0,0.0,0.0,0.0,0.0,0.0,0.0,5.1392,5.6142,5.8517,6.008,0.0,0.0,6.0987,5.9674,5.8536,5.6453,5.2543,0.0,0.0,0.0,0.0,0.0,0.0,0.0,0.0,0.0,0.0,0.0,0.0,0.0,0.0,0.0,0.0,0.0,0.0,0.0,0.0,0.0,0.0,0.0,0.0,0.0,0.0,0.0,0.0,0.0,0.0,0.0,0.0,0.0,0.0,0.0,0.0,0.0,0.0,0.0,0.0,0.0,0.0,0.0,0.0,0.0,0.0,0.0,0.0,0.0,0.0,0.0,0.0,0.0,6.3554,7.4089,8.0177,8.5278,8.9156,8.7801,8.5762,8.3348,7.7561,7.0919,0.0,0.0,0.0,0.0,0.0,0.0,0.0,0.0,0.0,0.0,0.0,0.0,0.0,0.0,0.0,0.0,0.0,0.0,0.0,0.0,0.0,0.0,0.0,0.0,0.0,0.0,0.0,0.0,3.452,3.5533,3.5773,0.0,0.0,0.0,0.0,0.0,0.0,0.0,0.0,0.0,0.0,5.5625,6.0152,6.247,0.0,0.0,6.5115,6.4757,6.3757,6.19,5.9345,5.5732,5.1801,0.0,0.0,0.0,0.0,0.0,0.0,0.0,0.0,0.0,0.0,0.0,0.0,0.0,0.0,0.0,0.0,0.0,0.0,0.0,0.0,0.0,0.0,0.0,0.0,0.0,0.0,0.0,0.0,0.0,0.0,0.0,0.0,0.0,0.0,0.0,0.0,0.0,0.0,0.0,0.0,0.0,0.0,0.0,0.0,0.0,0.0,0.0,0.0,0.0,0.0,0.0,0.0,6.4611,7.4972,8.0606,8.5511,8.9641,8.7712,8.5786,8.3905,7.8724,7.2796,0.0,0.0,0.0,0.0,0.0,0.0,0.0,0.0,0.0,0.0,0.0,0.0,0.0,0.0,0.0,0.0,0.0,0.0,0.0,0.0,0.0,0.0,0.0,0.0,0.0,0.0,0.0,0.0,3.7594,3.8182,3.7278,0.0,0.0,0.0,0.0,0.0,0.0,0.0,0.0,0.0,0.0,5.9966,6.3699,6.5876,6.7334,6.8022,6.787,6.7244,6.629,6.3988,6.1217,5.8096,0.0,0.0,0.0,0.0,0.0,0.0,0.0,0.0,0.0,0.0,0.0,0.0,0.0,0.0,0.0,0.0,0.0,0.0,0.0,0.0,0.0,0.0,0.0,0.0,0.0,0.0,0.0,0.0,0.0,0.0,2.3418,0.0,0.0,0.0,0.0,0.0,0.0,0.0,0.0,0.0,0.0,0.0,0.0,0.0,0.0,0.0,0.0,0.0,0.0,0.0,0.0,0.0,0.0,6.5937,7.5716,8.1265,8.5849,8.9402,8.7568,8.5964,8.4699,8.0066,7.4918,6.9243,0.0,0.0,0.0,0.0,0.0,0.0,0.0,0.0,0.0,0.0,0.0,0.0,0.0,0.0,0.0,0.0,0.0,0.0,0.0,0.0,0.0,0.0,0.0,0.0,0.0,0.0,3.9665,4.0739,4.0667,0.0,0.0,0.0,0.0,0.0,0.0,0.0,0.0,0.0,0.0,5.9951,6.4289,6.675,6.8593,6.9758,6.9972,6.92,6.8096,6.6693,6.4273,6.1618,0.0,0.0,0.0,0.0,0.0,0.0,0.0,0.0,0.0,0.0,0.0,0.0,0.0,0.0,0.0,0.0,0.0,0.0,0.0,0.0,0.0,0.0,0.0,0.0,0.0,0.0,0.0,3.1642,3.1682,0.0,0.0,0.0,0.0,0.0,0.0,0.0,0.0,0.0,0.0,0.0,5.3028,5.4153,0.0,0.0,0.0,0.0,0.0,0.0,0.0,0.0,0.0,0.0,0.0,0.0,6.6846,7.6396,8.1601,8.5743,8.9047,8.7792,8.6188,8.4399,8.1323,7.6193,6.885,0.0,0.0,0.0,0.0,0.0,0.0,0.0,0.0,0.0,0.0,0.0,0.0,0.0,0.0,0.0,0.0,0.0,0.0,0.0,0.0,0.0,0.0,0.0,0.0,0.0,4.0521,0.0,0.0,0.0,0.0,0.0,0.0,0.0,0.0,0.0,0.0,0.0,5.6809,6.0343,6.4433,6.762,6.9045,7.0239,7.0758,0.0,0.0,0.0,0.0,0.0,0.0,0.0,0.0,0.0,0.0,0.0,0.0,0.0,0.0,5.2648,4.8138,4.7818,4.8737,5.0096,0.0,0.0,0.0,0.0,0.0,0.0,0.0,0.0,0.0,0.0,0.0,0.0,0.0,0.0,3.8963,0.0,3.8162,0.0,0.0,0.0,0.0,0.0,0.0,0.0,0.0,5.6689,5.9622,6.1758,6.2974,6.2719,0.0,6.1141,5.7556,0.0,0.0,0.0,0.0,0.0,0.0,0.0,0.0,6.8657,7.7263,8.2056,8.5869,8.879,8.7769,8.6311,8.4509,8.102,7.628,7.0193,6.4551,5.9496,0.0,0.0,0.0,0.0,0.0,0.0,0.0,0.0,0.0,0.0,0.0,0.0,0.0,0.0,0.0,0.0,0.0,0.0,0.0,0.0,0.0,0.0,0.0,4.4156,0.0,0.0,0.0,0.0,0.0,0.0,0.0,0.0,0.0,5.3118,5.7585,6.2043,6.4998,6.8048,7.0203,7.0797,0.0,0.0,0.0,0.0,0.0,0.0,0.0,6.5996,6.4671,6.4516,6.4634,6.4635,6.4158,6.4035,6.4865,0.0,0.0,5.6366,5.5879,5.7043,5.8531,5.9081,6.0039,6.2443,6.3396,6.4403,0.0,0.0,0.0,0.0,0.0,0.0,0.0,0.0,4.6731,4.7184,0.0,4.6408,0.0,0.0,0.0,0.0,0.0,5.2592,0.0,0.0,6.5133,6.8124,6.9807,7.1494,7.1531,7.0067,6.9958,6.8742,6.6019,5.7074,0.0,0.0,0.0,0.0,0.0,0.0,7.1296,7.8343,8.2748,8.6261,8.8823,8.7601,8.6279,8.497,7.949,7.5511,7.3271,6.8475,6.3799,5.935,5.5124,0.0,0.0,0.0,0.0,0.0,0.0,0.0,0.0,0.0,0.0,0.0,0.0,0.0,0.0,0.0,0.0,0.0,0.0,0.0,0.0,4.784,0.0,0.0,0.0,0.0,0.0,0.0,0.0,0.0,0.0,0.0,5.923,6.3205,6.7012,6.8907,0.0,0.0,0.0,0.0,7.241,7.3199,7.1833,7.0961,7.1586,7.0298,6.9169,6.904,0.0,0.0,7.2678,7.3062,7.3307,7.4368,7.4452,7.2242,6.496,6.4611,6.568,6.6837,6.7826,6.9136,7.0944,7.2141,7.3448,5.9608,0.0,0.0,0.0,0.0,5.2025,5.3678,5.5114,5.6014,5.6425,5.64,5.5126,0.0,0.0,0.0,0.0,0.0,0.0,6.5104,6.8294,7.2112,7.4763,7.6398,7.7671,7.7764,7.6792,7.6755,7.6125,7.468,7.0776,6.554,5.9276,0.0,0.0,0.0,0.0,7.5171,8.0893,8.418,8.6665,8.8466,8.787,8.65,8.4423,8.0947,7.8088,7.596,7.2753,6.9145,6.5119,5.9966,0.0,0.0,0.0,0.0,0.0,0.0,0.0,0.0,0.0,0.0,0.0,0.0,0.0,0.0,0.0,0.0,0.0,0.0,0.0,5.1236,5.2846,5.3408,0.0,0.0,0.0,0.0,0.0,0.0,0.0,0.0,0.0,7.0621,7.0897,7.1903,0.0,0.0,7.493,7.551,7.5021,7.4893,7.5708,0.0,0.0,0.0,7.5266,7.5269,7.5073,7.6512,7.7966,7.8542,7.9255,8.0005,8.0845,8.1103,8.0555,7.9176,7.5413,7.3544,7.4811,7.587,7.7117,7.9091,8.0465,8.1763,7.0461,6.4463,6.125,5.9699,5.9476,6.1045,6.2427,6.358,6.4124,6.4454,6.4428,6.3273,6.2459,6.1975,6.2618,0.0,0.0,0.0,7.2755,7.5033,7.8048,8.0148,8.1397,8.2501,8.2654,8.1883,8.1846,8.1585,8.1038,7.9701,7.6276,7.0783,0.0,0.0,7.1108,7.4584,7.8601,8.306,8.5412,8.7085,8.8127,8.7348,8.5995,8.4148,8.181,7.9735,7.7973,7.5565,7.2742,6.9548,6.4589,5.9867,0.0,0.0,0.0,0.0,0.0,0.0,0.0,0.0,0.0,0.0,0.0,3.768,4.0858,0.0,0.0,0.0,5.1067,5.4194,5.7414,5.8163,0.0,0.0,0.0,0.0,0.0,0.0,0.0,6.9146,7.306,7.6542,7.9138,7.8898,7.8455,7.8596,7.8241,7.8258,7.9078,0.0,7.8708,7.9898,7.9679,7.9497,7.9825,8.0293,8.074,8.1222,8.2373,8.3582,8.4231,8.4832,8.5581,8.6348,8.6709,8.7137,8.8108,8.5068,8.2222,8.2126,8.3008,8.4346,8.6138,8.7266,8.8523,7.9862,7.8842,7.2449,6.9095,6.8167,6.9587,7.0644,7.1342,7.1359,7.1477,7.1555,7.0829,7.0392,7.0309,7.2378,0.0,7.4687,7.7464,7.9548,8.1122,8.321,8.4535,8.5321,8.6408,8.6543,8.5805,8.5842,8.5842,8.578,8.4991,8.4483,8.4053,7.7544,7.5203,7.725,7.9246,8.1797,8.4849,8.6555,8.7571,8.7926,8.6264,8.4982,8.413,8.2104,8.0442,7.9215,7.7056,7.4851,7.2638,6.8663,6.4539,6.0358,0.0,0.0,0.0,0.0,0.0,0.0,0.0,0.0,0.0,0.0,0.0,0.0,0.0,0.0,0.0,5.8558,0.0,6.3845,6.3747,0.0,0.0,0.0,6.5641,6.7568,7.0264,7.3243,7.6493,0.0,0.0,8.5272,8.643,8.5891,8.2671,8.1917,8.1965,8.2913,8.2974,8.3512,8.5255,8.4844,8.4578,8.5211,8.5369,8.5811,8.6944,8.7457,8.8149,8.9377,8.9941,9.043,9.1208,9.1537,9.1923,9.2871,9.2631,9.2039,8.8696,8.9195,9.0518,9.1564,9.2494,9.367,8.4772,8.4517,8.2863,7.9783,7.6155,7.7008,7.7533,7.7695,7.785,7.7952,7.7947,7.7575,7.7571,7.7872,7.9039,8.0102,8.1208,8.326,8.482,8.6017,8.795,8.8952,8.9177,9.0169,9.0513,9.0362,9.0325,9.0325,9.03,8.9509,8.9039,8.8712,8.5913,8.3488,8.1806,8.3504,8.5133,8.6497,8.7519,8.7917,8.7554,8.5549,8.4348,8.4076,8.1559,7.9682,7.8639,7.7325,7.5442,7.2834,6.9988,6.6398,6.2104,5.7783,0.0,0.0,0.0,0.0,0.0,0.0,0.0,0.0,0.0,4.5875,4.9754,0.0,5.6759,0.0,6.4759,6.776,6.8175,6.96,0.0,0.0,7.252,7.4773,7.6129,7.914,8.1757,8.3385,8.5435,8.7499,8.9415,9.0398,9.1117,9.1381,8.7933,8.6073,8.8025,8.7838,8.825,9.0226,9.009,8.9911,9.0573,9.0806,9.0867,9.1288,9.2323,9.3358,9.3717,9.4518,9.5129,9.5297,9.5607,9.5877,9.5987,9.6131,9.5961,9.5168,9.4637,9.433,9.4816,9.5711,9.693,8.7991,8.8042,8.8078,8.6377,8.3732,8.3183,8.2915,8.2933,8.3227,8.3397,8.3441,8.3614,8.3871,8.4253,8.5203,8.5943,8.6645,8.8021,8.8996,8.9567,9.0675,9.1221,9.1234,9.182,9.2074,9.2061,9.2074,9.2263,9.2566,9.1757,9.1463,9.1655,9.0306,8.8485,8.6251,8.648,8.6966,8.7638,8.7833,8.7603,8.6943,8.5409,8.4113,8.3055,8.1324,7.9628,7.7952,7.6981,7.5403,7.301,7.0551,6.7749,6.4527,6.087,5.7002,0.0,0.0,0.0,0.0,0.0,0.0,0.0,0.0,0.0,0.0,0.0,6.3458,6.7895,7.1479,7.373,7.4201,7.5756,7.6853,7.7054,7.9287,8.1484,8.3411,8.5933,8.8074,8.949,9.1099,9.2518,9.3516,9.4354,9.5179,9.6131,9.3629,9.1963,9.2636,9.2469,9.2795,9.4442,9.4366,9.4215,9.4692,9.4744,9.4781,9.4805,9.5522,9.6149,9.6163,9.6684,9.711,9.7055,9.7257,9.7591,9.7855,9.8008,9.8174,9.8554,9.8515,9.8221,9.788,9.8617,9.9695,9.0514,9.0631,9.0684,9.0701,9.0557,8.8562,8.7528,8.7182,8.7593,8.7875,8.8064,8.8653,8.9013,8.9259,9.0248,9.0734,9.0898,9.1736,9.2129,9.2256,9.2402,9.2467,9.2467,9.2544,9.2595,9.2595,9.2595,9.3024,9.3694,9.2846,9.274,9.3286,9.2367,9.1282,9.0139,8.8679,8.8068,8.8278,8.7757,8.7144,8.6463,8.5556,8.404,8.1943,8.1087,7.9519,7.7193,7.6184,7.4875,7.3093,7.0773,6.8711,6.6977,6.3909,6.0897,0.0,5.6595,0.0,0.0,0.0,0.0,0.0,0.0,0.0,0.0,6.6116,7.0877,7.5925,7.8119,7.9655,8.0603,8.1783,8.2996,8.4181,8.5352,8.7111,8.9738,9.1499,9.3098,9.4658,9.615,9.7058,9.7172,9.7888,9.8336,9.8451,9.8287,9.7681,9.6969,9.6515,9.6641,9.7602,9.7602,9.7236,9.7198,9.7375,9.7451,9.7526,9.7678,9.7716,9.7754,9.7883,9.8009,9.8111,9.8375,9.8689,9.9401,9.9591,9.9883,10.0555,10.1188,10.1379,10.0583,10.0938,10.1992,9.4096,9.4131,9.4302,9.437,9.4312,9.3454,9.1729,8.9551,9.009,9.052,9.0925,9.1053,9.1178,9.1315,9.1558,9.2038,9.2692,9.2978,9.3447,9.4089,9.4248,9.4275,9.4275,9.4338,9.4351,9.4313,9.4351,9.4427,9.4579,9.4271,9.4125,9.414,9.3196,9.2466,9.1957,0.0,0.0,0.0,8.7693,8.744,8.7222,8.5336,8.3802,8.2634,7.9743,0.0,7.6514,7.4969,7.366,7.262,7.1391,0.0,0.0,0.0,0.0,0.0,0.0,0.0,0.0,0.0,0.0,0.0,7.1015,7.1144,6.9887,7.5174,7.9448,8.1254,8.3251,8.4579,8.4898,8.6559,8.8018,8.9033,9.12,9.3204,9.4546,9.6161,9.7469,9.7798,9.8154,9.8615,9.9258,9.9566,9.9902,10.0468,10.067,10.0602,10.0289,9.9254,9.9024,9.9775,9.9317,9.868,9.8031,9.8528,9.8897,9.8974,9.9546,9.9889,9.9901,10.0034,10.0386,10.0774,10.1182,10.1525,10.2276,10.2563,10.2505,10.2822,10.2998,10.2804,10.1683,10.2191,10.313,9.5566,0.0,9.5747,9.5828,0.0,9.5688,9.4721,9.3323,9.2803,9.2829,9.3229,9.3242,9.3309,9.344,9.3375,9.3789,9.4634,9.4701,9.4954,9.5371,9.5815,9.5816,9.5437,9.5854,9.6044,9.6006,9.5627,9.5398,9.5333,9.477,9.4431,9.4293,9.3737,9.3078,9.2353,9.1302,9.0078,8.8716,8.8359,8.7772,8.689,8.5043,8.3546,8.2289,0.0,0.0,0.0,0.0,0.0,0.0,0.0,0.0,0.0,0.0,0.0,6.8549,6.9158,6.9727,7.02,7.2103,7.4485,7.7317,8.088,8.1708,7.8751,8.2046,8.4833,8.6324,8.7791,8.8912,8.9615,9.0917,9.2289,9.3769,9.5145,9.652,9.7894,9.8883,9.9623,10.0045,10.014,10.0333,10.0709,10.0786,10.094,10.1354,10.1432,10.1432,10.1413,10.0785,10.0502,10.0874,10.0606,10.0156,9.9811,9.9965,10.0261,10.0348,10.0644,10.0913,10.0951,10.1311,10.1765,10.2095,10.2603,10.3144,10.3409,10.3552,10.3628,10.3618,10.3892,10.3958,10.3343,10.3576,10.4138,9.6546,9.6702,9.6733,9.6824,9.6937,9.6934,9.6818,9.6606,0.0,0.0,0.0,9.5248,9.5312,9.5414,9.53,9.5627,9.6296,9.6296,9.6296,9.6334,9.6978,9.694,9.6334,9.6978,9.7306,9.7217,9.6459,9.6001,9.5791,9.4847,9.4293,9.4137,9.3992,9.3417,9.2371,9.1471,9.0568,8.974,8.9099,8.8142,8.6742,8.5116,8.3602,8.2179,8.0815,7.9118,7.7067,7.685,7.5838,7.3888,7.3889,7.3938,7.3833,7.4113,7.4391,7.4661,7.5959,7.6921,7.7455,7.9479,8.1818,8.4414,8.8406,8.9555,8.6757,8.7546,8.888,9.0584,9.1609,9.263,9.3721,9.4699,9.6009,9.7787,9.8007,9.8687,10.0265,10.0569,10.0801,10.1513,10.156,10.1637,10.1637,10.1637,10.1637,10.1637,10.1637,10.1637,10.1611,10.1421,10.1241,10.1318,10.1231,10.1289,10.1337,10.1251,10.1376,10.1251,10.1289,10.1414,10.1645,10.2116,10.2627,10.3108,10.3627,10.4089,10.4282,10.4415,10.4229,10.4208,10.4663,10.5087,10.5054,10.4954,10.5105,9.856,9.8712,9.8861,9.8934,9.8926,9.8366,9.7774,9.7188,9.6839,9.678,9.694,9.6954,9.6954,9.698,9.6954,9.7016,9.713,9.713,9.7143,0.0,9.7244,9.7244,9.713,9.7244,9.7228,9.7082,9.6312,9.5828,9.5564,9.4707,9.4137,9.3992,9.3815,9.3497,9.3088,9.2897,9.2354,9.1353,8.9691,8.8659,8.8437,8.6215,8.466,8.3748,8.1959,8.0547,7.9686,7.9013,7.8618,7.8512,7.8544,7.8688,7.8949,7.9163,7.9438,7.9865,8.1574,8.3082,8.4218,8.6136,8.8177,9.0235,9.1909,9.2127,9.078,9.1648,9.2463,9.2811,9.4272,9.5412,9.5857,9.7231,9.8547,9.9693,9.9883,10.0359,10.1379,10.1512,10.1575,10.1872,10.1858,10.1888,10.1919,10.1919,10.1958,10.1888,10.1864,10.185,10.1818,10.1663,10.1559,10.1541,10.1541,10.1541,10.1579,10.1541,10.1541,10.1541,10.1541,10.1772,10.2351,10.2745,10.3324,10.4674,10.4982,10.5407,10.6024,10.6284,10.6073,10.5929,10.6034,10.6138,10.6056,10.5951,10.5959,9.9253,9.9361,9.9485,9.9557,9.9603,9.9294,9.897,9.8646,9.8592,9.8102,9.7438,9.74,9.74,9.74,9.7321,9.7547,9.8001,9.8015,9.8001,9.8053,9.847,9.8391,9.7983,9.8348,9.8492,9.8291,9.7484,9.6998,9.678,9.5992,9.5418,9.5105,9.4547,9.3943,9.3391,9.3259,9.2944,9.2393,9.0996,9.0065,8.9605,8.7899,8.6815,8.6503,8.4651,8.3305,8.2603,8.1899,8.1371,8.1092,8.1775,8.2443,8.3143,8.3874,8.4661,8.5502,8.6945,8.8102,8.8749,9.0685,9.2259,9.3287,9.4713,9.5338,9.4826,9.477,9.5001,9.5521,9.6761,9.7759,9.8359,9.9147,10.001,10.0951,10.147,10.1967,10.2389,10.253,10.2546,10.2616,10.2624,10.2624,10.2624,10.2972,10.305,10.2701,10.2237,10.1928,10.1889,10.1826,10.1769,10.1777,10.1769,10.1777,10.173,10.1777,10.1777,10.1769,10.1769,10.1923,10.2387,10.2966,10.3971,10.4744,10.5555,10.6336,10.683,10.6786,10.6742,10.6696,10.6555,10.6517,10.6448,10.6367,10.6248,9.9528,9.9655,9.9655,9.9725,9.9783,9.9796,9.9796,9.9796,9.9796,9.913,9.8097,9.8034,9.8021,9.8008,9.7903,9.8229,9.8811,9.8887,9.8887,9.8924,9.9531,9.9401,9.8813,9.9352,9.9571,9.93,9.8517,9.8001,9.7778,9.7034,9.6509,9.6106,9.5186,9.4398,9.38,9.3397,9.3232,9.3065,9.234,9.1536,9.0622,8.9418,8.8823,8.8783,8.7522,8.6515,8.5918,8.5466,8.498,8.4519,8.5448,8.6418,8.7207,8.8189,8.9185,9.0196,9.1499,9.2478,9.3104,9.4526,9.5567,9.578,9.7056,9.7899,9.7876,9.7448,9.7277,9.7872,9.8619,9.9509,10.0128,10.0724,10.123,10.197,10.279,10.3278,10.3459,10.3475,10.3475,10.3475,10.3475,10.3475,10.3591,10.4017,10.4017,10.3243,10.2431,10.1928,10.1889,10.1889,10.1889,10.1889,10.1889,10.1881,10.1889,10.1881,10.1881,10.1889,10.1881,10.2028,10.2384,10.339,10.4279,10.4697,10.5749,10.6553,10.6871,10.6907,10.6847,10.6765,10.6658,10.6555,10.6488,10.6427,10.6322,9.9631,9.9755,9.9769,9.9783,9.9796,9.9796,9.9796,9.9796,9.9796,9.9758,9.952,9.9582,9.9506,9.9582,9.9531,9.9569,9.9645,9.9683,9.9645,9.9645,9.9758,9.9745,9.9642,9.9717,9.9669,9.93,9.8554,9.8055,9.7749,9.693,9.6388,9.6106,9.5202,9.4728,9.4525,9.3875,9.3507,9.3454,9.3364,9.2758,9.1581,9.0398,8.9854,9.0021,8.9852,8.9769,8.9756,9.006,9.0251,9.0567,9.0691,9.1079,9.1509,9.1811,9.2178,9.27,9.4354,9.6135,9.7827,9.8279,9.8374,9.8678,9.8781,9.8953,9.9009,9.9638,9.9716,9.9356,9.9725,10.0269,10.0538,10.1791,10.2665,10.2894,10.3722,10.4279,10.4279,10.4279,10.4287,10.4279,10.4249,10.4287,10.4249,10.4318,10.4055,10.3282,10.2431,10.1889,10.1889,10.1889,10.1966,10.1966,10.1928,10.1928,10.1928,10.1889,10.1889,10.1889,10.1889,10.2121,10.2663,10.3127,10.3707,10.4674,10.5478,10.6028,10.657,10.6987,10.6838,10.6663,10.6593,10.6655,10.6536,10.6294,10.6123,9.9742,9.9796,9.9796,9.9796,9.9796,9.9796,9.9796,9.9796,9.9796,9.9796,9.9796,9.9796,9.9796,9.9796,9.9796,9.9796,9.9796,9.9796,9.9796,9.9796,9.9796,9.978,9.9697,9.9659,9.9505,9.923,9.8823,9.8606,9.8372,9.8026,9.7681,9.7223,9.6749,9.6359,9.5833,9.548,9.5285,9.5209,9.5285,9.5127,9.4565,9.3037,9.2272,9.2428,9.2061,9.1894,9.2006,9.187,9.1807,9.2,9.2696,9.3183,9.3446,9.4487,9.5216,9.5536,9.6785,9.7991,9.8916,9.8972,9.9034,9.9153,9.9625,9.9958,10.0015,10.082,10.113,10.0874,10.1059,10.126,10.1408,10.2414,10.3164,10.3351,10.4365,10.5177,10.5169,10.513,10.5014,10.455,10.486,10.4937,10.4511,10.4395,10.4055,10.3282,10.2469,10.1928,10.1889,10.1889,10.2121,10.2547,10.2663,10.2431,10.2082,10.1889,10.1928,10.1928,10.1889,10.2121,10.2353,10.2933,10.3514,10.421,10.4627,10.5022,10.5293,10.5487,10.5548,10.5807,10.6057,10.591,10.5187,10.4995,10.4955,9.9986,9.9834,9.9796,9.9796,9.9796,9.9796,9.9796,9.9796,9.9796,9.9796,9.9796,9.9796,9.9796,9.9796,9.9796,9.9796,9.9796,9.9796,9.9796,9.9796,9.9796,9.978,9.9669,9.9669,9.949,9.9274,9.9244,9.9156,9.9043,9.9027,9.8802,9.8357,9.8137,9.7676,9.7125,9.6927,9.6776,9.6733,9.6819,9.6921,9.6842,9.5625,9.491,9.4974,9.4583,9.4387,9.4465,9.4194,9.4032,9.4044,9.4837,9.5375,9.5532,9.6755,9.7605,9.7986,9.8731,9.9372,9.9733,9.9806,9.9856,9.9969,10.0526,10.0898,10.103,10.1549,10.185,10.185,10.1889,10.1889,10.1966,10.2895,10.3475,10.363,10.5061,10.6067,10.6067,10.5912,10.544,10.4898,10.5014,10.5246,10.4821,10.4589,10.4171,10.363,10.2624,10.1889,10.1889,10.1928,10.2121,10.274,10.2817,10.2663,10.2315,10.2315,10.2199,10.1928,10.1889,10.1889,10.1889,10.2508,10.305,10.3514,10.3823,10.4249,10.4674,10.4627,10.4473,10.5075,10.5258,10.5001,10.4424,10.4089,10.4022,10.0554,9.9872,9.9796,9.9796,9.9796,9.9796,9.9796,9.9796,9.9796,9.9796,9.9796,9.9796,9.9796,9.9796,9.9796,9.9796,9.9796,9.9796,9.9796,9.9796,9.9796,9.9783,9.9783,9.9783,9.9738,9.9557,9.9542,9.9485,9.937,9.937,9.937,9.9286,9.8687,9.8327,9.8166,9.7721,9.7385,9.759,9.7629,9.7642,9.7863,9.7761,9.7563,9.7414,9.7512,9.7441,9.7565,9.786,9.7943,9.7981,9.8002,9.8232,9.8324,9.8421,9.8941,9.9827,10.0066,10.0514,10.1276,10.1401,10.1523,10.1672,10.1641,10.1804,10.1734,10.1812,10.1889,10.1889,10.1889,10.1889,10.2044,10.3204,10.4094,10.4279,10.5757,10.6608,10.681,10.5951,10.571,10.5362,10.4821,10.4674,10.5332,10.4906,10.4326,10.3823,10.2856,10.1889,10.1889,10.1889,10.2005,10.2082,10.2199,10.2237,10.2895,10.274,10.2469,10.2199,10.1889,10.1889,10.1889,10.2044,10.2469,10.2817,10.305,10.3475,10.4133,10.4318,10.4249,10.4379,10.4377,10.4121,10.3571,10.3856,10.3704,10.0933,10.0554,10.0024,9.9796,9.9796,9.9796,9.9796,9.9796,9.9796,9.9796,9.9796,9.9796,9.9796,9.9796,9.9796,9.9796,9.9796,9.9796,9.9796,9.9796,9.9796,9.9796,9.9796,9.9796,9.9714,9.9627,9.9613,9.9585,9.9557,9.9687,9.9783,9.9785,9.9706,9.9632,9.9619,9.9504,9.945,9.9498,9.957,9.9664,9.9717,9.9901,9.9966,9.989,9.8818,9.8254,9.8357,9.8513,9.8623,9.8633,9.8662,9.8702,9.8769,9.9298,10.0065,10.098,10.1139,10.1354,10.1708,10.1787,10.1858,10.1889,10.1889,10.1889,10.1889,10.1889,10.1889,10.1889,10.1889,10.1889,10.2082,10.2972,10.363,10.3784,10.4636,10.5409,10.5293,10.5061,10.4674,10.421,10.3784,10.3823,10.4017,10.3823,10.3436,10.2856,10.2276,10.1966,10.1889,10.1889,10.2044,10.2585,10.274,10.2817,10.305,10.2624,10.2237,10.2082,10.1889,10.185,10.185,10.1812,10.2129,10.2121,10.2315,10.2508,10.3088,10.3475,10.3475,10.3158,10.3156,10.3262,10.2692,10.2867,10.2691,10.1195,10.1274,10.0251,9.9796,9.9796,9.9796,9.9796,9.9796,9.9796,9.9823,9.985,9.9864,9.989,9.993,9.993,9.993,9.9917,9.9837,9.9823,9.9864,9.9864,9.989,9.993,9.993,9.989,9.981,9.9837,9.985,9.9877,10.01,10.0203,10.0228,10.0425,10.0533,10.0557,10.0662,10.0742,10.0787,10.0902,10.0929,10.1053,10.1198,10.1327,10.1193,10.0096,9.948,9.9548,9.9662,9.972,9.9692,9.9682,9.9682,9.973,10.0287,10.0936,10.1577,10.1666,10.1746,10.1842,10.1873,10.1889,10.1889,10.1889,10.1889,10.1889,10.1889,10.1889,10.1889,10.1889,10.1889,10.2005,10.2469,10.2895,10.3204,10.3939,10.4395,10.4395,10.4171,10.363,10.3088,10.3127,10.3204,10.3204,10.3243,10.2972,10.2353,10.2121,10.1928,10.1889,10.1928,10.2044,10.2624,10.2663,10.2624,10.2663,10.2276,10.2082,10.1966,10.1889,10.185,10.1587,10.1549,10.1549,10.1502,10.158,10.1657,10.1966,10.2431,10.2353,10.2044,10.2221,10.253,10.2125,10.1826,10.1894,10.1414,10.1867,10.0478,9.9796,9.9796,9.9796,9.9796,9.981,9.981,9.989,9.9996,10.001,10.0075,10.0139,10.0139,10.0165,10.0114,9.9957,9.9917,10.001,10.001,10.005,10.0165,10.0203,10.0177,10.0177,10.034,10.0389,10.0389,10.051,10.058,10.0615,10.0719,10.0787,10.0787,10.0946,10.1064,10.1147,10.1206,10.1268,10.149,10.1461,10.1507,10.1567,10.1443,10.1366,10.1422,10.1461,10.133,10.1325,10.1316,10.1479,10.1287,10.1382,10.1496,10.1611,10.168,10.1683,10.1699,10.185,10.1889,10.1889,10.1889,10.1889,10.1889,10.1889,10.1889,10.1889,10.1889,10.1889,10.1889,10.1966,10.2276,10.305,10.3668,10.4047,10.4055,10.363,10.2895,10.2276,10.2585,10.3127,10.3166,10.305,10.2895,10.274,10.2353,10.1889,10.1889,10.1889,10.1928,10.1966,10.2121,10.2237,10.2082,10.1928,10.1928,10.1889,10.185,10.1781,10.1162,10.0968,10.1007,10.1007,10.1355,10.1464,10.1812,10.2199,10.216,10.1928,10.2036,10.2067,10.1895,10.1722,10.1671,10.1688,10.135,10.0289,9.9796,9.9796,9.9796,9.985,9.9944,9.9944,10.0023,10.0139,10.0152,10.0152,10.0215,10.0177,10.019,10.0177,10.0177,10.0203,10.0177,10.0126,10.024,10.034,10.0352,10.0401,10.0459,10.0615,10.0673,10.0696,10.0798,10.0853,10.0875,10.1011,10.1064,10.1074,10.1178,10.1278,10.1414,10.1385,10.1451,10.157,10.1579,10.1585,10.1671,10.168,10.1705,10.1801,10.1693,10.1579,10.1489,10.1518,10.1507,10.1532,10.1603,10.168,10.1763,10.1795,10.185,10.185,10.1873,10.1889,10.1889,10.1889,10.1889,10.1889,10.185,10.185,10.185,10.1889,10.1889,10.1889,10.1889,10.2044,10.2276,10.2508,10.2779,10.2817,10.2508,10.2199,10.2005,10.2121,10.2276,10.2315,10.2315,10.2392,10.2392,10.2082,10.1928,10.1889,10.1889,10.1889,10.1889,10.1889,10.1889,10.1889,10.1889,10.1889,10.1889,10.1889,10.1587,10.0968,10.0582,10.0582,10.0736,10.1084,10.1433,10.1773,10.1889,10.1889,10.1889,10.1966,10.1951,10.185,10.1809,10.1722,10.1484,10.1009,10.0175,9.9796,9.9796,9.985,9.993,10.001,10.0075,10.0165,10.0265,10.0252,10.0314,10.0425,10.0438,10.0474,10.051,10.0592,10.058,10.0471,10.045,10.0471,10.0604,10.0627,10.0662,10.0753,10.0864,10.0919,10.0968,10.1036,10.1126,10.1147,10.1198,10.1228,10.1238,10.1288,10.1356,10.1414,10.1451,10.1525,10.1567,10.162,10.168,10.1755,10.1738,10.16,10.1408,10.1199,10.1096,10.1063,10.1008,10.0911,10.0757,10.1213,10.1614,10.1479,10.1696,10.1889,10.1889,10.1889,10.1889,10.1889,10.1889,10.1734,10.1549,10.1433,10.1309,10.0999,10.1231,10.1394,10.1425,10.1734,10.185,10.1928,10.1966,10.1889,10.1889,10.1889,10.1928,10.1928,10.1928,10.1889,10.1889,10.1889,10.1889,10.1889,10.1889,10.1889,10.1889,10.1889,10.1889,10.1889,10.1889,10.1889,10.1889,10.1889,10.1889,10.1889,10.1889,10.1433,10.0814,10.0659,10.0582,10.0814,10.1123,10.158,10.1889,10.1889,10.1889,10.1889,10.1889,10.1881,10.1865,10.185,10.1779,10.0936,10.0909,10.0164,9.9837,9.9888,10.0046,10.0214,10.0202,10.0431,10.0645,10.0705,10.0855,10.0886,10.0982,10.1185,10.123,10.117,10.1324,10.1362,10.1291,10.1209,10.1171,10.1006,10.0951,10.0972,10.1032,10.1126,10.1167,10.1167,10.1248,10.1279,10.1259,10.1298,10.1279,10.1308,10.1279,10.1327,10.1366,10.1442,10.1505,10.1487,10.1534,10.1523,10.1595,10.1415,10.1065,10.0508,10.0153,10.0102,10.02,10.0103,9.9834,9.9583,10.0621,10.1032,10.0566,10.1309,10.1502,10.1657,10.1464,10.1502,10.1464,10.1425,10.1425,10.0659,10.0496,10.038,9.9955,10.0342,10.0736,10.0968,10.1464,10.185,10.1889,10.1889,10.1889,10.1889,10.1889,10.1889,10.1889,10.1889,10.1889,10.1889,10.1889,10.1889,10.1889,10.1889,10.1889,10.1889,10.1889,10.1889,10.1889,10.1889,10.1889,10.1889,10.1889,10.1889,10.1889,10.185,10.1433,10.0891,10.0698,10.0582,10.0852,10.1239,10.1696,10.1889,10.1889,10.1889,10.1889,10.1889,10.1889,10.1881,10.1873,10.1858,10.0841,10.0274,10.0138,10.0075,10.0189,10.0811,10.1205,10.148,10.2063,10.2347,10.2624,10.2658,10.2604,10.2797,10.272,10.2819,10.272,10.2822,10.2969,10.298,10.3081,10.2243,10.1388,10.1208,10.119,10.12,10.1258,10.1278,10.1288,10.1308,10.1279,10.1279,10.1279,10.1279,10.1279,10.1279,10.1366,10.1442,10.1534,10.1276,10.0869,10.0843,10.0519,9.9938,9.9922,9.9757,9.9398,9.8764,9.8712,9.9251,9.9245,9.9186,9.9077,9.96,9.9875,9.9769,9.987,10.0025,10.0063,10.0063,10.0025,9.9994,10.0179,9.9909,9.9684,9.9645,9.9839,10.0071,10.0543,10.0852,10.1394,10.1734,10.1889,10.1889,10.1889,10.1889,10.1889,10.1889,10.1889,10.1889,10.1889,10.1889,10.1889,10.1889,10.1889,10.1889,10.1889,10.1889,10.1889,10.1889,10.1889,10.1889,10.1889,10.1889,10.1889,10.1889,10.1889,10.1889,10.1773,10.1549,10.1084,10.0736,10.0659,10.0659,10.1348,10.185,10.1889,10.1889,10.1889,10.1889,10.1889,10.1889,10.1889,10.1881,10.1873,10.0519,10.01,10.0152,10.0253,10.0379,10.1279,10.1769,10.2088,10.2884,10.3359,10.3481,10.3492,10.3525,10.3568,10.3568,10.337,10.3144,10.3206,10.2968,10.266,10.2634,10.2326,10.1796,10.1529,10.1279,10.1279,10.1279,10.1279,10.1279,10.1279,10.1279,10.1279,10.1279,10.1279,10.1279,10.1279,10.1347,10.1346,10.1235,10.0801,10.0436,10.0163,9.9792,9.9304,9.9139,9.8995,9.8403,9.7606,9.7413,9.7864,9.8202,9.8305,9.8163,9.8877,9.9057,9.8857,9.9096,9.9328,9.929,9.929,9.929,9.9328,9.929,9.9096,9.898,9.9058,9.956,9.9413,10.0156,10.0775,10.1278,10.1657,10.185,10.1889,10.1889,10.1889,10.1889,10.1889,10.1889,10.1889,10.1889,10.1889,10.1889,10.1889,10.1889,10.1889,10.1889,10.1889,10.1889,10.1889,10.1889,10.1889,10.1889,10.1889,10.1889,10.1889,10.1889,10.1889,10.185,10.1587,10.1394,10.0999,10.1077,10.1193,10.1657,10.1889,10.1889,10.1889,10.1889,10.1889,10.1889,10.1889,10.1889,10.1889,10.1881,10.0202,10.0265,10.024,10.0352,10.06,10.1483,10.2069,10.2374,10.3114,10.3602,10.37,10.3613,10.3611,10.3723,10.3723,10.3391,10.2818,10.3,10.25,10.2154,10.1943,10.1933,10.2346,10.1615,10.1317,10.1241,10.1241,10.1096,10.0981,10.101,10.0981,10.0789,10.0856,10.1048,10.1019,10.1087,10.1164,10.0981,10.0659,10.0161,9.978,9.9349,9.8956,9.8621,9.8499,9.8125,9.7457,9.6812,9.6553,9.6523,9.7217,9.7316,9.7031,9.8245,9.8485,9.8153,9.8446,9.8826,9.8942,9.8787,9.8903,9.8826,9.8864,9.8826,9.8408,9.8717,9.9027,9.9027,9.98,10.0582,10.0999,10.1494,10.1788,10.1858,10.1865,10.1858,10.1865,10.1881,10.1889,10.1889,10.1889,10.1889,10.1881,10.1881,10.1873,10.1801,10.1826,10.185,10.1858,10.1873,10.1881,10.1889,10.1889,10.1889,10.1889,10.1889,10.1889,10.1889,10.1889,10.1773,10.1773,10.1618,10.1734,10.1889,10.1889,10.1889,10.1889,10.1889,10.1889,10.1889,10.1889,10.1889,10.1889,10.1889,10.1889,10.0387,10.0495,10.0627,10.0742,10.0995,10.1756,10.26,10.3294,10.3507,10.402,10.4477,10.4103,10.3806,10.3875,10.3826,10.3741,10.3482,10.3443,10.3482,10.3328,10.2597,10.2404,10.2356,10.1548,10.1279,10.1125,10.0635,10.0366,10.026,9.9827,9.9365,9.9442,9.9712,9.9712,10.0337,10.0519,10.0366,10.0356,10.0257,9.9542,9.8643,9.8267,9.7838,9.7252,9.7069,9.6882,9.6632,9.6465,9.6437,9.6536,9.6677,9.6796,9.6846,9.7101,9.7287,9.7302,9.7286,9.7402,9.7363,9.7479,9.7363,9.7518,9.7673,9.7557,9.8137,9.833,9.9027,9.9684,10.0427,10.0914,10.1401,10.1632,10.1763,10.1738,10.1697,10.1663,10.1671,10.1809,10.1865,10.1881,10.1873,10.1865,10.1763,10.1755,10.173,10.168,10.1697,10.1746,10.1771,10.1842,10.185,10.185,10.1865,10.1865,10.1889,10.1889,10.1889,10.1889,10.1889,10.1889,10.1889,10.1889,10.1889,10.1889,10.1889,10.1889,10.1889,10.1889,10.1889,10.1889,10.1928,10.2005,10.2044,10.2005,10.2252,10.0662,10.0787,10.0891,10.094,10.1228,10.1957,10.2645,10.3188,10.3632,10.4085,10.4395,10.4059,10.3905,10.3905,10.3866,10.3712,10.3241,10.2778,10.2304,10.1841,10.1331,10.1044,10.071,10.0413,10.0192,10.051,9.9913,9.9529,9.9336,9.9067,9.8865,9.8865,9.9135,9.975,10.0144,10.0442,10.0712,10.05,9.9921,9.9082,9.8368,9.7483,9.7029,9.6509,9.6343,9.6288,9.6297,9.6394,9.6433,9.6501,9.6605,9.6668,9.6746,9.6761,9.6784,9.6807,9.6822,9.6822,9.6822,9.6822,9.686,9.6822,9.7131,9.7595,9.8253,9.8717,9.9584,10.0411,10.0859,10.1315,10.1699,10.1735,10.1663,10.1654,10.162,10.1585,10.1603,10.171,10.1769,10.1769,10.176,10.1705,10.1671,10.1663,10.1646,10.1611,10.1659,10.1663,10.1654,10.1727,10.1738,10.1755,10.1771,10.1795,10.1873,10.1889,10.1889,10.1889,10.1889,10.1889,10.1889,10.1889,10.1889,10.1889,10.1889,10.1889,10.1889,10.1889,10.1889,10.1889,10.1966,10.2121,10.2353,10.2547,10.2971,10.0924,10.1032,10.1032,10.1095,10.1303,10.1918,10.2391,10.2741,10.3212,10.3443,10.3635,10.3597,10.3212,10.3405,10.3346,10.2913,10.2132,10.1429,10.0722,9.9902,9.9777,9.9463,9.9015,9.8805,9.8835,9.9509,9.8971,9.8634,9.8557,9.8442,9.8096,9.8481,9.9211,9.9442,9.9913,10.0673,10.0904,10.0683,9.9624,9.8814,9.8361,9.7238,9.6536,9.6406,9.6334,9.6288,9.6325,9.6411,9.6492,9.6501,9.67,9.6845,9.6976,9.6822,9.6822,9.6822,9.6822,9.6822,9.6822,9.6822,9.6822,9.6976,9.7595,9.8238,9.8733,9.9615,10.0349,10.0803,10.1233,10.1564,10.1594,10.1606,10.1606,10.1559,10.1588,10.1541,10.1541,10.1579,10.1588,10.1603,10.1667,10.162,10.1624,10.1597,10.155,10.155,10.1597,10.1597,10.1559,10.1585,10.1646,10.1697,10.1722,10.1787,10.1873,10.1889,10.1889,10.1889,10.1889,10.1889,10.1889,10.1889,10.1889,10.1889,10.1889,10.1889,10.1889,10.1889,10.1889,10.1889,10.2005,10.216,10.2585,10.3127,10.3659,10.1043,10.1185,10.1185,10.1208,10.1288,10.1413,10.1836,10.2404,10.1904,10.2174,10.2635,10.2048,10.1827,10.1836,10.17,10.1119,10.0547,10.0035,9.9477,9.8793,9.8678,9.8469,9.8183,9.7695,9.759,9.7651,9.7635,9.7683,9.7548,9.7096,9.7057,9.698,9.775,9.8442,9.9211,9.9827,10.0519,10.0481,9.9432,9.8595,9.7912,9.6997,9.6352,9.6325,9.6297,9.6288,9.6325,9.642,9.6492,9.6509,9.67,9.7147,9.7503,9.7194,9.6969,9.7015,9.7054,9.7131,9.7092,9.6938,9.7247,9.7673,9.8168,9.8903,9.9714,10.0355,10.0817,10.1213,10.1448,10.1594,10.1585,10.1543,10.1507,10.1489,10.1442,10.1356,10.1356,10.1404,10.1422,10.1514,10.155,10.1588,10.1534,10.1498,10.1479,10.1441,10.1489,10.1498,10.1498,10.1552,10.1576,10.1629,10.168,10.1763,10.1881,10.1889,10.1889,10.1889,10.1889,10.1889,10.1889,10.1889,10.1889,10.1889,10.1889,10.1889,10.1889,10.1889,10.1889,10.1889,10.2044,10.2199,10.2779,10.3359,10.4139,10.0896,10.0563,10.0525,10.0276,9.9932,9.9893,10.0163,10.0519,10.0212,10.0481,10.0981,10.0904,10.0913,10.1171,10.1208,10.0624,9.9769,9.9113,9.8506,9.7861,9.7648,9.7423,9.7274,9.6699,9.6549,9.6562,9.6624,9.678,9.6751,9.6529,9.6279,9.6634,9.7519,9.8404,9.9019,10.0135,10.0558,10.0442,9.9481,9.8596,9.8019,9.698,9.6365,9.6288,9.6288,9.6288,9.6315,9.6376,9.6455,9.6489,9.658,9.7108,9.7557,9.7743,9.7627,9.7967,9.8052,9.806,9.8091,9.8091,9.8354,9.8617,9.9004,9.9574,10.029,10.0758,10.1139,10.1416,10.145,10.1432,10.1422,10.1423,10.1404,10.1385,10.1347,10.1289,10.1279,10.1279,10.1356,10.1441,10.1422,10.1404,10.1423,10.1385,10.1376,10.1366,10.1376,10.1395,10.1404,10.1451,10.1487,10.1576,10.1637,10.1746,10.1865,10.1889,10.1889,10.1889,10.1889,10.1889,10.1889,10.1889,10.1889,10.1889,10.1889,10.1889,10.1889,10.1889,10.1889,10.1889,10.1966,10.2237,10.2933,10.366,10.4324,10.0274,9.9639,9.9639,9.9217,9.8641,9.8592,9.8681,9.8721,9.8798,9.9298,9.9961,10.0067,10.0478,10.0917,10.0826,10.0271,9.9272,9.838,9.7533,9.6866,9.692,9.662,9.6243,9.6199,9.6499,9.6744,9.6406,9.6132,9.6223,9.6213,9.626,9.6625,9.7827,9.8673,9.9058,10.0135,10.0904,10.0789,9.9673,9.8788,9.8019,9.7057,9.6288,9.6288,9.6288,9.6288,9.6297,9.6388,9.6403,9.6506,9.672,9.7195,9.7937,9.8257,9.8832,9.9545,9.9499,9.9328,9.9251,9.9189,9.912,9.9466,10.0044,10.0372,10.0689,10.1099,10.1487,10.1451,10.1356,10.1308,10.1318,10.1289,10.1327,10.1289,10.1289,10.1279,10.1279,10.1279,10.1279,10.1308,10.1279,10.1289,10.1347,10.1347,10.1299,10.1299,10.1347,10.1347,10.1318,10.1308,10.1385,10.1505,10.1611,10.173,10.1803,10.1889,10.1889,10.1889,10.1889,10.1889,10.1889,10.1889,10.1889,10.1889,10.1889,10.1889,10.1889,10.1889,10.1889,10.1889,10.1889,10.2276,10.2972,10.3583,10.4178,9.8813,9.8654,9.8692,9.8616,9.8462,9.8413,9.8462,9.8444,9.8416,9.9009,9.9567,9.971,10.0094,10.0551,10.0005,9.9195,9.8291,9.7428,9.674,9.621,9.663,9.6909,9.692,9.7558,9.7516,9.7456,9.709,9.6598,9.6394,9.6309,9.6174,9.65,9.7326,9.8057,9.8904,10.0019,10.0596,10.0866,9.9673,9.8173,9.7057,9.6596,9.6403,9.6365,9.6326,9.6288,9.6297,9.637,9.6376,9.6471,9.7166,9.8027,9.8884,9.9656,10.0406,10.0659,10.0239,9.9328,9.946,9.9529,9.9751,10.0174,10.0441,10.0749,10.1054,10.124,10.1347,10.1347,10.1289,10.1279,10.1279,10.1279,10.1279,10.1279,10.1279,10.1279,10.1279,10.1279,10.1279,10.1279,10.1279,10.1279,10.1289,10.1289,10.1279,10.1279,10.1279,10.1279,10.1279,10.1279,10.1356,10.1505,10.1585,10.1697,10.1803,10.1881,10.1889,10.1889,10.1889,10.1889,10.1889,10.1889,10.1889,10.1889,10.1889,10.1889,10.1889,10.1889,10.1889,10.1889,10.1889,10.2353,10.3011,10.3536,10.3976,9.7267,9.7646,9.7657,9.7389,9.6995,9.6957,9.6999,9.7012,9.7022,9.7472,9.8162,9.8278,9.8744,9.9244,9.8484,9.7871,9.728,9.6592,9.6324,9.6363,9.6745,9.7165,9.7585,9.7918,9.8071,9.812,9.7833,9.7708,9.7224,9.6587,9.6194,9.6538,9.7557,9.8442,9.8981,10.0135,10.0827,10.0904,10.0096,9.8952,9.7904,9.725,9.698,9.6942,9.6557,9.6365,9.6297,9.6315,9.6352,9.6506,9.7167,9.8032,9.8898,9.9734,10.0618,10.136,10.1041,10.0684,10.0645,10.0504,10.0702,10.0882,10.0983,10.1151,10.1327,10.1356,10.1279,10.1279,10.1279,10.1279,10.1279,10.1279,10.1279,10.1279,10.1279,10.1279,10.1279,10.1279,10.1279,10.1279,10.1279,10.1279,10.1279,10.1279,10.1279,10.1279,10.1279,10.1279,10.1279,10.1279,10.1394,10.155,10.1603,10.1654,10.1809,10.1889,10.1889,10.1889,10.1889,10.1889,10.1889,10.1889,10.1889,10.1889,10.1889,10.1889,10.1889,10.1889,10.1889,10.1889,10.1889,10.226,10.2584,10.3085,10.3653,9.6112,9.6648,9.6658,9.6303,9.5768,9.5768,9.5821,9.5856,9.5895,9.6354,9.7006,9.7416,9.7823,9.7949,9.7477,9.7062,9.6859,9.5981,9.621,9.6668,9.7203,9.77,9.8311,9.8605,9.8835,9.8693,9.8635,9.8566,9.8305,9.7661,9.6962,9.6971,9.8096,9.8865,9.9404,10.0173,10.0866,10.0789,10.0337,9.9567,9.8721,9.8096,9.7711,9.7365,9.6942,9.6519,9.6326,9.6288,9.6288,9.6451,9.7384,9.8278,9.8865,9.9941,10.0739,10.1336,10.1255,10.1274,10.1292,10.133,10.1505,10.1498,10.1481,10.1327,10.1308,10.1279,10.1279,10.1279,10.1279,10.1279,10.1279,10.1279,10.1279,10.1279,10.1279,10.1279,10.1279,10.1279,10.1279,10.1279,10.1279,10.1279,10.1279,10.1279,10.1279,10.1279,10.1279,10.1279,10.1279,10.1279,10.1414,10.1552,10.1585,10.1629,10.1738,10.1858,10.1873,10.1889,10.1889,10.1889,10.1889,10.1889,10.1889,10.1889,10.1881,10.1889,10.1889,10.1889,10.1889,10.1881,10.1865,10.1787,10.2064,10.2632,10.3374,9.5659,9.5697,9.5735,9.5697,9.5621,9.5621,9.5621,9.5664,9.5643,9.6112,9.6839,9.7543,9.7783,9.7788,9.7138,9.6783,9.6821,9.5981,9.6248,9.6898,9.7662,9.8349,9.9075,9.9687,10.0183,10.0142,9.9751,9.9529,9.9466,9.8976,9.8577,9.8702,9.8942,9.9375,9.9798,10.0289,10.0558,10.0519,10.0337,9.9913,9.925,9.875,9.8404,9.7788,9.748,9.7096,9.6365,9.6403,9.6326,9.6403,9.7711,9.8519,9.899,10.0231,10.1087,10.1289,10.1376,10.1356,10.1366,10.1451,10.1479,10.1451,10.1404,10.1347,10.1279,10.1279,10.1279,10.1279,10.1279,10.1279,10.1279,10.1279,10.1279,10.1279,10.1279,10.1279,10.1279,10.1279,10.1279,10.1279,10.1279,10.1279,10.1279,10.1279,10.1279,10.1279,10.1279,10.1279,10.1279,10.1289,10.1385,10.1479,10.157,10.1611,10.1713,10.1771,10.185,10.1881,10.1889,10.1889,10.1889,10.1889,10.1858,10.1858,10.1842,10.1865,10.1873,10.1834,10.1818,10.185,10.1834,10.1799,10.2109,10.2695,10.3374,9.5609,9.5609,9.5609,9.5609,9.5609,9.5609,9.5609,9.5609,9.5609,9.5751,9.6133,9.6439,9.6554,9.6515,9.6363,9.6095,9.6057,9.5789,9.621,9.6898,9.7738,9.8579,9.9381,10.008,10.06,10.0631,10.0404,10.0448,10.053,10.0159,10.0306,10.0221,9.9788,9.9798,10.0106,10.0558,10.075,10.0789,10.0789,10.0596,10.0404,9.9788,9.9452,9.9183,9.8442,9.7904,9.7211,9.7057,9.6749,9.6903,9.8019,9.8596,9.9096,10.0481,10.1164,10.1279,10.1279,10.1279,10.1279,10.1366,10.1347,10.1376,10.1299,10.1279,10.1279,10.1279,10.1279,10.1279,10.1279,10.1279,10.1279,10.1279,10.1279,10.1279,10.1279,10.1269,10.1259,10.125,10.1259,10.1288,10.1269,10.1279,10.1279,10.1279,10.1279,10.1279,10.1279,10.1279,10.1279,10.1289,10.1376,10.1423,10.1516,10.1567,10.1663,10.173,10.1787,10.185,10.1873,10.1858,10.1842,10.1779,10.1763,10.1755,10.1738,10.1722,10.1744,10.1735,10.1744,10.1738,10.1812,10.1851,10.2303,10.2837,10.357,9.5609,9.5609,9.5609,9.5609,9.5609,9.5609,9.5609,9.5609,9.5609,9.5609,9.5609,9.5609,9.5609,9.5609,9.5637,9.5637,9.5686,9.5675,9.6172,9.6783,9.7509,9.8388,9.9266,9.9901,10.0318,10.0661,10.0853,10.0923,10.108,10.1208,10.1105,10.0962,10.075,10.0558,10.0596,10.0943,10.1279,10.1279,10.1279,10.1279,10.1125,10.0789,10.0183,10.0029,9.9413,9.875,9.8134,9.7865,9.7673,9.7788,9.8365,9.9106,9.9673,10.0327,10.1125,10.1279,10.1279,10.1279,10.1279,10.1279,10.1279,10.1289,10.1289,10.1279,10.1279,10.1279,10.1279,10.1279,10.1279,10.1279,10.1279,10.1279,10.1279,10.1279,10.1268,10.1248,10.1228,10.1218,10.1238,10.1248,10.1268,10.1278,10.1279,10.1279,10.1279,10.1279,10.1279,10.1279,10.1279,10.1289,10.1308,10.1395,10.1461,10.1552,10.165,10.1693,10.1688,10.1705,10.176,10.1777,10.1722,10.1705,10.168,10.1671,10.1646,10.1594,10.1624,10.1632,10.1667,10.1663,10.171,10.1745,10.2442,10.3021,10.3839,9.5609,9.5609,9.5609,9.5609,9.5609,9.5609,9.5609,9.5609,9.5609,9.5609,9.5609,9.5609,9.5609,9.5609,9.5609,9.5609,9.5609,9.5637,9.5981,9.663,9.705,9.7967,9.8858,9.953,10.0134,10.0683,10.0946,10.1074,10.1188,10.1238,10.1288,10.1279,10.1125,10.1096,10.1202,10.1241,10.1279,10.1279,10.1279,10.1279,10.1241,10.1164,10.075,10.0414,10.0173,9.9635,9.8981,9.8788,9.8596,9.8519,9.9259,9.9798,10.0029,10.075,10.1241,10.1279,10.1279,10.1279,10.1279,10.1279,10.1279,10.1279,10.1279,10.1279,10.1279,10.1279,10.1279,10.1279,10.1279,10.1279,10.1279,10.1269,10.1269,10.1278,10.1218,10.1167,10.1147,10.1137,10.1147,10.1167,10.1188,10.1208,10.1278,10.1279,10.1279,10.1279,10.1279,10.1279,10.1279,10.1289,10.1337,10.1356,10.1414,10.1479,10.1561,10.1597,10.1624,10.1632,10.1659,10.1654,10.1646,10.1611,10.1594,10.1624,10.1541,10.1487,10.1534,10.1543,10.1677,10.1754,10.1564,10.1682,10.2453,10.3299,10.4097,9.5609,9.5609,9.5609,9.5609,9.5609,9.5609,9.5609,9.5609,9.5609,9.5609,9.5609,9.5609,9.5609,9.5609,9.5609,9.5609,9.5609,9.5609,9.5942,9.6057,9.6554,9.7509,9.841,9.9205,9.9983,10.0716,10.1064,10.1157,10.1278,10.1258,10.1278,10.1298,10.1269,10.1279,10.1279,10.1279,10.1279,10.1279,10.1279,10.1279,10.1279,10.1279,10.1135,10.0866,10.0827,10.0442,9.976,9.9673,9.9452,9.9183,9.9837,10.0144,10.0298,10.0904,10.1279,10.1279,10.1279,10.1279,10.1279,10.1279,10.1279,10.1279,10.1279,10.1279,10.1279,10.1279,10.1279,10.1279,10.1279,10.1279,10.1279,10.1248,10.1228,10.1198,10.1147,10.1085,10.1053,10.1043,10.1043,10.1053,10.1074,10.1126,10.1188,10.1248,10.1268,10.1298,10.1308,10.1279,10.1279,10.1317,10.1327,10.1289,10.1318,10.1414,10.1461,10.1545,10.1552,10.1579,10.1567,10.1603,10.1576,10.1552,10.1534,10.1525,10.1432,10.1385,10.1433,10.1558,10.1837,10.1895,10.1866,10.229,10.3242,10.3905,10.4405,9.5609,9.5609,9.5609,9.5609,9.5609,9.5609,9.5609,9.5609,9.5609,9.5609,9.5609,9.5609,9.5609,9.5609,9.5609,9.5609,9.5609,9.5609,9.5609,9.5675,9.6133,9.6898,9.7734,9.8664,9.9502,10.0397,10.1001,10.1218,10.1248,10.1208,10.1218,10.1248,10.123,10.1288,10.1259,10.1279,10.1279,10.1279,10.1279,10.1279,10.1279,10.1279,10.1279,10.1241,10.1202,10.1019,10.0673,10.0404,10.025,9.9942,10.0096,10.0491,10.0712,10.0943,10.1279,10.1279,10.1279,10.1279,10.1279,10.1279,10.1279,10.1279,10.1279,10.1279,10.1279,10.1279,10.1279,10.1279,10.1279,10.125,10.1258,10.1188,10.1147,10.1154,10.1032,10.0968,10.0935,10.0886,10.0875,10.0924,10.0957,10.1021,10.1106,10.1167,10.1208,10.1258,10.1298,10.1308,10.1394,10.151,10.1664,10.1741,10.1789,10.1943,10.1818,10.1568,10.1576,10.1516,10.1573,10.1668,10.1507,10.1442,10.1433,10.1423,10.1395,10.1366,10.1424,10.1568,10.2001,10.2347,10.2539,10.3194,10.4135,10.4433,10.4664,9.5609,9.5609,9.5609,9.5609,9.5609,9.5609,9.5609,9.5609,9.5609,9.5609,9.5609,9.5609,9.5609,9.5609,9.5609,9.5609,9.5609,9.5609,9.5609,9.5609,9.5789,9.6363,9.7057,9.7861,9.8763,9.9686,10.0279,10.0533,10.0975,10.0648,10.0696,10.0909,10.0842,10.0941,10.1029,10.1202,10.1241,10.1279,10.1298,10.1259,10.1269,10.1298,10.1308,10.1269,10.1241,10.1241,10.1087,10.1048,10.1087,10.1048,10.1164,10.1202,10.1241,10.1279,10.1279,10.1279,10.1279,10.1279,10.1279,10.1279,10.1298,10.1288,10.1278,10.1259,10.1279,10.1279,10.1308,10.1298,10.1278,10.1228,10.1178,10.1137,10.1085,10.1,10.0853,10.0798,10.0764,10.0742,10.0719,10.073,10.0775,10.0842,10.0989,10.1064,10.1147,10.1228,10.1307,10.1538,10.1702,10.2135,10.2327,10.2635,10.2635,10.2635,10.2462,10.2251,10.2222,10.2395,10.1828,10.1751,10.1549,10.1395,10.1366,10.1366,10.1337,10.1317,10.1356,10.1741,10.2327,10.2674,10.3097,10.3712,10.452,10.449,10.47,9.5609,9.5609,9.5609,9.5609,9.5609,9.5609,9.5609,9.5609,9.5609,9.5609,9.5609,9.5609,9.5609,9.5609,9.5609,9.5609,9.5609,9.5609,9.5609,9.5609,9.5648,9.6172,9.6751,9.7287,9.7965,9.8576,9.9111,9.9491,9.9327,9.9365,9.9365,9.926,10.0128,10.0334,10.0711,10.1019,10.1202,10.1298,10.1258,10.1258,10.1268,10.1248,10.1258,10.1278,10.1269,10.1269,10.1308,10.1279,10.1279,10.1279,10.1279,10.1279,10.1279,10.1279,10.1279,10.1279,10.1279,10.1279,10.1269,10.1258,10.1218,10.1198,10.1157,10.1208,10.122,10.1259,10.1268,10.1238,10.1208,10.1157,10.1074,10.1011,10.0968,10.0842,10.078,10.0784,10.0788,10.0891,10.0868,10.0841,10.0876,10.073,10.0842,10.0979,10.1064,10.1167,10.1354,10.1653,10.2077,10.2538,10.3058,10.3366,10.352,10.352,10.3482,10.3309,10.3261,10.3184,10.252,10.1981,10.1866,10.1683,10.1433,10.1279,10.1279,10.1279,10.1317,10.1779,10.2404,10.3212,10.3712,10.4289,10.4751,10.4662,10.4533,9.5609,9.5609,9.5609,9.5609,9.5609,9.5609,9.5609,9.5609,9.5609,9.5609,9.5609,9.5609,9.5609,9.5609,9.5609,9.5609,9.5609,9.5609,9.5609,9.5609,9.5609,9.5904,9.6331,9.6817,9.7303,9.7767,9.8204,9.8689,9.834,9.8402,9.8468,9.917,9.9665,10.0035,10.0615,10.1047,10.122,10.1238,10.1218,10.1198,10.1167,10.1147,10.1167,10.1198,10.12,10.1258,10.1268,10.1288,10.1279,10.1279,10.1279,10.1279,10.1279,10.1279,10.1279,10.1269,10.123,10.1258,10.1238,10.1167,10.1126,10.1095,10.1043,10.1085,10.1088,10.1167,10.1147,10.1126,10.1106,10.1064,10.0968,10.0869,10.0775,10.0719,10.0776,10.0795,10.0948,10.1139,10.1139,10.11,10.0971,10.0727,10.073,10.0869,10.0908,10.1011,10.1343,10.1866,10.2438,10.3124,10.3731,10.4212,10.4328,10.4366,10.4328,10.4174,10.3751,10.3405,10.2751,10.2327,10.2212,10.1818,10.1394,10.1279,10.1279,10.1279,10.1317,10.1779,10.2404,10.3202,10.3941,10.4439,10.4736,10.4764,10.4596,9.5609,9.5609,9.5609,9.5609,9.5609,9.5609,9.5609,9.5609,9.5609,9.5609,9.5609,9.5609,9.5609,9.5609,9.5609,9.5609,9.5609,9.5609,9.5609,9.5609,9.5609,9.5751,9.5976,9.6385,9.6675,9.7172,9.7472,9.7625,9.7894,9.7784,9.8058,9.9434,9.9483,9.9808,10.0593,10.1034,10.1147,10.1106,10.1095,10.1085,10.1043,10.1011,10.1,10.1032,10.1106,10.1167,10.1188,10.1238,10.1269,10.1269,10.1279,10.1279,10.1279,10.1279,10.1279,10.1308,10.1268,10.1248,10.1208,10.1147,10.1064,10.1032,10.1,10.0929,10.094,10.1053,10.1053,10.1011,10.0989,10.0897,10.0798,10.0753,10.0708,10.0662,10.0665,10.0974,10.1394,10.1509,10.1509,10.1368,10.0948,10.0818,10.1071,10.1262,10.1646,10.1274,10.1329,10.2029,10.2658,10.3454,10.4121,10.4787,10.5136,10.5164,10.5136,10.4828,10.402,10.352,10.3058,10.252,10.2251,10.1818,10.1317,10.1279,10.1279,10.1279,10.1394,10.1769,10.2201,10.3114,10.3803,10.4432,10.4631,10.4466,10.4116,9.5609,9.5609,9.5609,9.5609,9.5598,9.5609,9.5598,9.5609,9.5609,9.5587,9.5598,9.5598,9.5609,9.5609,9.5609,9.5609,9.5609,9.5609,9.5609,9.5609,9.5609,9.5609,9.5609,9.591,9.6036,9.5998,9.6161,9.65,9.6544,9.6511,9.6762,9.7708,9.8238,9.9177,10.0212,10.0642,10.0906,10.0929,10.0935,10.0968,10.0968,10.0886,10.0864,10.0968,10.1043,10.1053,10.1085,10.1157,10.1198,10.1218,10.1288,10.1269,10.1279,10.1279,10.1279,10.1269,10.1268,10.1238,10.1198,10.1116,10.1032,10.0968,10.0913,10.0787,10.0787,10.0935,10.0968,10.0902,10.0847,10.0742,10.0696,10.0673,10.065,10.0627,10.0604,10.1203,10.1815,10.1853,10.1891,10.1597,10.11,10.1189,10.1468,10.1782,10.213,10.2171,10.2019,10.2304,10.283,10.3509,10.4138,10.4855,10.5826,10.5962,10.5885,10.5559,10.4789,10.4174,10.3751,10.3097,10.2327,10.1769,10.1288,10.1269,10.1279,10.124,10.1248,10.1277,10.191,10.2812,10.3238,10.3651,10.3509,10.3322,10.3021,9.544,9.544,9.5402,9.544,9.544,9.544,9.5402,9.544,9.544,9.5402,9.5425,9.5543,9.5598,9.5598,9.5609,9.5609,9.5609,9.5609,9.5609,9.5609,9.5609,9.5609,9.5609,9.5609,9.5686,9.5609,9.5609,9.5686,9.5609,9.5724,9.615,9.6937,9.7648,9.838,9.9473,10.019,10.0558,10.0798,10.0703,10.0764,10.082,10.0764,10.073,10.0809,10.0891,10.0913,10.0989,10.1074,10.1157,10.1208,10.1278,10.1269,10.1279,10.1279,10.1298,10.1248,10.1198,10.1119,10.1116,10.1043,10.0957,10.0908,10.0775,10.0673,10.0662,10.0753,10.0764,10.0708,10.0708,10.065,10.065,10.0627,10.0627,10.0604,10.068,10.1024,10.1547,10.1891,10.2209,10.2514,10.2094,10.1826,10.2144,10.25,10.275,10.2647,10.2509,10.2543,10.3052,10.3327,10.3996,10.4649,10.5459,10.612,10.612,10.5892,10.552,10.4982,10.4135,10.3125,10.2077,10.1614,10.1258,10.1248,10.118,10.1129,10.1137,10.1137,10.1538,10.2351,10.2621,10.2752,10.2532,10.2322,10.2119,9.5191,9.5179,9.5191,9.5191,9.5191,9.5191,9.5191,9.5191,9.5191,9.5191,9.5277,9.5486,9.5565,9.5576,9.5598,9.5598,9.5609,9.5609,9.5609,9.5609,9.5609,9.5609,9.5609,9.5609,9.5609,9.5609,9.5609,9.5609,9.5609,9.5686,9.5998,9.6773,9.7303,9.7823,9.9015,9.9682,9.9911,10.0348,10.0493,10.0589,10.0615,10.0604,10.0627,10.0662,10.0696,10.0753,10.088,10.0979,10.1106,10.1157,10.1188,10.1228,10.12,10.119,10.1208,10.1157,10.1095,10.1087,10.1078,10.0946,10.0895,10.0815,10.0742,10.0654,10.0654,10.0604,10.0615,10.0615,10.0615,10.0615,10.0604,10.0642,10.0642,10.0757,10.0871,10.1024,10.1509,10.1967,10.2476,10.3023,10.2782,10.2438,10.2935,10.329,10.3329,10.3202,10.3087,10.3049,10.3085,10.3091,10.3428,10.3956,10.4555,10.5208,10.5678,10.5588,10.52,10.4346,10.3375,10.2567,10.1883,10.1429,10.1147,10.1137,10.1106,10.1064,10.1032,10.1021,10.1498,10.1899,10.2183,10.2245,10.1889,10.1679,10.148,9.5179,9.5179,9.5179,9.5179,9.5179,9.5179,9.5179,9.5179,9.5179,9.5179,9.5203,9.531,9.544,9.5414,9.5565,9.5598,9.5609,9.5609,9.5609,9.5609,9.5609,9.5609,9.5609,9.5609,9.5609,9.5609,9.5609,9.5609,9.5828,9.5801,9.6068,9.6942,9.6942,9.745,9.8291,9.8854,9.9324,9.9733,10.0142,10.0336,10.0489,10.0527,10.0566,10.0615,10.0654,10.0639,10.0685,10.0787,10.0869,10.0924,10.0972,10.1074,10.1106,10.1106,10.1123,10.1283,10.1181,10.1494,10.1531,10.1421,10.1403,10.1652,10.1449,10.0853,10.0792,10.0642,10.0642,10.0604,10.0604,10.0604,10.0604,10.0718,10.0795,10.11,10.1292,10.1597,10.1979,10.217,10.2476,10.2743,10.2782,10.3164,10.4004,10.4272,10.4463,10.431,10.4043,10.4004,10.3737,10.3429,10.2994,10.3293,10.3719,10.3838,10.4121,10.4411,10.408,10.3324,10.2681,10.2053,10.1531,10.1228,10.1032,10.1032,10.1021,10.0989,10.0957,10.0891,10.0957,10.1307,10.174,10.185,10.1441,10.1212,10.11]}]]